[[{"header":{"parameterUnit":"m.s-1","parameterCategory":1,"la1":30.6,"la2":28.766,"lo1":-90.7593,"lo2":-88.6598,"dy":0.0162,"dx":0.0183,"nx":116,"ny":114,"refTime":"2023-06-25T12:00:00:Z","depth":0,"parameterNumber":2,"parameterNumberName":"U-component_of_WINDS"},"data":[0.0,0.0,0.0,0.0,0.0,0.0,0.0,0.0,0.0,0.0,0.0,0.0,0.0,0.0,0.0,0.0,0.0,0.0,0.0,0.0,0.0,0.0,0.0,0.0,0.0,0.0,0.0,0.0,0.0,0.0,0.0,0.0,0.0,0.0,0.0,0.0,0.0,0.0,0.0,0.0,0.0,0.0,0.0,0.0,0.0,0.0,0.0,0.0,0.0,0.0,0.0,0.0,0.0,0.0,0.0,0.0,0.0,0.0,0.0,0.0,0.0,0.0,0.0,0.0,0.0,0.0,0.0,0.0,0.0,0.0,0.0,0.0,0.0,0.0,0.0,0.0,0.0,0.0,0.0,0.0,0.0,0.0,0.0,0.0,0.0,0.0,0.0,0.0,0.0,0.0,0.0,0.0,0.0,0.0,0.0,0.0,0.0,0.0,0.0,0.0,0.0,0.0,0.0,0.0,0.0,0.0,0.0,0.0,0.0,0.0,0.0,0.0,0.0,0.0,0.0,0.0,0.0,0.0,0.0,0.0,0.0,0.0,0.0,0.0,0.0,0.0,0.0,0.0,0.0,0.0,0.0,0.0,0.0,0.0,0.0,0.0,0.0,0.0,0.0,0.0,0.0,0.0,0.0,0.0,0.0,0.0,0.0,0.0,0.0,0.0,0.0,0.0,0.0,0.0,0.0,0.0,0.0,0.0,0.0,0.0,0.0,0.0,0.0,0.0,0.0,0.0,0.0,0.0,0.0,0.0,0.0,0.0,0.0,0.0,0.0,0.0,0.0,0.0,0.0,0.0,0.0,0.0,0.0,0.0,0.0,0.0,0.0,0.0,0.0,0.0,0.0,0.0,0.0,0.0,0.0,0.0,0.0,0.0,0.0,0.0,0.0,0.0,0.0,0.0,0.0,0.0,0.0,0.0,0.0,0.0,0.0,0.0,0.0,0.0,0.0,0.0,0.0,0.0,0.0,0.0,0.0,0.0,0.0,0.0,0.0,0.0,0.0,0.0,0.0,0.0,0.0,0.0,0.0,0.0,0.0,0.0,0.0,0.0,0.0,0.0,0.0,0.0,0.0,0.0,0.0,0.0,0.0,0.0,0.0,0.0,0.0,0.0,0.0,0.0,0.0,0.0,0.0,0.0,0.0,0.0,0.0,0.0,0.0,0.0,0.0,0.0,0.0,0.0,0.0,0.0,0.0,0.0,0.0,0.0,0.0,0.0,0.0,0.0,0.0,0.0,0.0,0.0,0.0,0.0,0.0,0.0,0.0,0.0,0.0,0.0,0.0,0.0,0.0,0.0,0.0,0.0,0.0,0.0,0.0,0.0,0.0,0.0,0.0,0.0,0.0,0.0,0.0,0.0,0.0,0.0,0.0,0.0,0.0,0.0,0.0,0.0,0.0,0.0,0.0,0.0,0.0,0.0,0.0,0.0,0.0,0.0,0.0,0.0,0.0,0.0,0.0,0.0,0.0,0.0,0.0,0.0,0.0,0.0,0.0,0.0,0.0,0.0,0.0,0.0,0.0,0.0,0.0,0.0,0.0,0.0,0.0,0.0,0.0,0.0,0.0,0.0,0.0,0.0,0.0,0.0,0.0,0.0,0.0,0.0,0.0,0.0,0.0,0.0,0.0,0.0,0.0,0.0,0.0,0.0,0.0,0.0,0.0,0.0,0.0,0.0,0.0,0.0,0.0,0.0,0.0,0.0,0.0,0.0,0.0,0.0,0.0,0.0,0.0,0.0,0.0,0.0,0.0,0.0,0.0,0.0,0.0,0.0,0.0,0.0,0.0,0.0,0.0,0.0,0.0,0.0,0.0,0.0,0.0,0.0,0.0,0.0,0.0,0.0,0.0,0.0,0.0,0.0,0.0,0.0,0.0,0.0,0.0,0.0,0.0,0.0,0.0,0.0,0.0,0.0,0.0,0.0,0.0,0.0,0.0,0.0,0.0,0.0,0.0,0.0,0.0,0.0,0.0,0.0,0.0,0.0,0.0,0.0,0.0,0.0,0.0,0.0,0.0,0.0,0.0,0.0,0.0,0.0,0.0,0.0,0.0,0.0,0.0,0.0,0.0,0.0,0.0,0.0,0.0,0.0,0.0,0.0,0.0,0.0,0.0,0.0,0.0,0.0,0.0,0.0,0.0,0.0,0.0,0.0,0.0,0.0,0.0,0.0,0.0,0.0,0.0,0.0,0.0,0.0,0.0,0.0,0.0,0.0,0.0,0.0,0.0,0.0,0.0,0.0,0.0,0.0,0.0,0.0,0.0,0.0,0.0,0.0,0.0,0.0,0.0,0.0,0.0,0.0,0.0,0.0,0.0,0.0,0.0,0.0,0.0,0.0,0.0,0.0,0.0,0.0,0.0,0.0,0.0,0.0,0.0,0.0,0.0,0.0,0.0,0.0,0.0,0.0,0.0,0.0,0.0,0.0,0.0,0.0,0.0,0.0,0.0,0.0,0.0,0.0,0.0,0.0,0.0,0.0,0.0,0.0,0.0,0.0,0.0,0.0,0.0,0.0,0.0,0.0,0.0,0.0,0.0,0.0,0.0,0.0,0.0,0.0,0.0,0.0,0.0,0.0,0.0,0.0,0.0,0.0,0.0,0.0,0.0,0.0,0.0,0.0,0.0,0.0,0.0,0.0,0.0,0.0,0.0,0.0,0.0,0.0,0.0,0.0,0.0,0.0,0.0,0.0,0.0,0.0,0.0,0.0,0.0,0.0,0.0,0.0,0.0,0.0,0.0,0.0,0.0,0.0,0.0,0.0,0.0,0.0,0.0,0.0,0.0,0.0,0.0,0.0,0.0,0.0,0.0,0.0,0.0,0.0,0.0,0.0,0.0,0.0,0.0,0.0,0.0,0.0,0.0,0.0,0.0,0.0,0.0,0.0,0.0,0.0,0.0,0.0,0.0,0.0,0.0,0.0,0.0,0.0,0.0,0.0,0.0,0.0,0.0,0.0,0.0,0.0,0.0,0.0,0.0,0.0,0.0,0.0,0.0,0.0,0.0,0.0,0.0,0.0,0.0,0.0,0.0,0.0,0.0,0.0,0.0,0.0,0.0,0.0,0.0,0.0,0.0,0.0,0.0,0.0,0.0,0.0,0.0,0.0,0.0,0.0,0.0,0.0,0.0,0.0,0.0,0.0,0.0,0.0,0.0,0.0,0.0,0.0,0.0,0.0,0.0,0.0,0.0,0.0,0.0,0.0,0.0,0.0,0.0,0.0,0.0,0.0,0.0,0.0,0.0,0.0,0.0,0.0,0.0,0.0,0.0,0.0,0.0,0.0,0.0,0.0,0.0,0.0,0.0,0.0,0.0,0.0,0.0,0.0,0.0,0.0,0.0,0.0,0.0,0.0,0.0,0.0,0.0,0.0,0.0,0.0,0.0,0.0,0.0,0.0,0.0,0.0,0.0,0.0,0.0,0.0,0.0,0.0,0.0,0.0,0.0,0.0,0.0,0.0,0.0,0.0,0.0,0.0,0.0,0.0,0.0,0.0,0.0,0.0,0.0,0.0,0.0,0.0,0.0,0.0,0.0,0.0,0.0,0.0,0.0,0.0,0.0,0.0,0.0,0.0,0.0,0.0,0.0,0.0,0.0,0.0,0.0,0.0,0.0,0.0,0.0,0.0,0.0,0.0,0.0,0.0,0.0,0.0,0.0,0.0,0.0,0.0,0.0,0.0,0.0,0.0,0.0,0.0,0.0,0.0,0.0,0.0,0.0,0.0,0.0,0.0,0.0,0.0,0.0,0.0,0.0,0.0,0.0,0.0,0.0,0.0,0.0,0.0,0.0,0.0,0.0,0.0,0.0,0.0,0.0,0.0,0.0,0.0,0.0,0.0,0.0,0.0,0.0,0.0,0.0,0.0,0.0,0.0,0.0,0.0,0.0,0.0,0.0,0.0,0.0,0.0,0.0,0.0,0.0,0.0,0.0,0.0,0.0,0.0,0.0,0.0,0.0,0.0,0.0,0.0,0.0,0.0,0.0,0.0,0.0,0.0,0.0,0.0,0.0,0.0,0.0,0.0,0.0,0.0,0.0,0.0,0.0,0.0,0.0,0.0,0.0,0.0,0.0,0.0,0.0,0.0,0.0,0.0,0.0,0.0,0.0,0.0,0.0,0.0,0.0,0.0,0.0,0.0,0.0,0.0,0.0,0.0,0.0,0.0,0.0,0.0,0.0,0.0,0.0,0.0,0.0,0.0,0.0,0.0,0.0,0.0,0.0,0.0,0.0,0.0,0.0,0.0,0.0,0.0,0.0,0.0,0.0,0.0,0.0,0.0,0.0,0.0,0.0,0.0,0.0,0.0,0.0,0.0,0.0,0.0,0.0,0.0,0.0,0.0,0.0,0.0,0.0,0.0,0.0,0.0,0.0,0.0,0.0,0.0,0.0,0.0,0.0,0.0,0.0,0.0,0.0,0.0,0.0,0.0,0.0,0.0,0.0,0.0,0.0,0.0,0.0,0.0,0.0,0.0,0.0,0.0,0.0,0.0,0.0,0.0,0.0,0.0,0.0,0.0,0.0,0.0,0.0,0.0,0.0,0.0,0.0,0.0,0.0,0.0,0.0,0.0,0.0,0.0,0.0,0.0,0.0,0.0,0.0,0.0,0.0,0.0,0.0,0.0,0.0,0.0,0.0,0.0,0.0,0.0,0.0,0.0,0.0,0.0,0.0,0.0,0.0,0.0,0.0,0.0,0.0,0.0,0.0,0.0,0.0,0.0,0.0,0.0,0.0,0.0,0.0,0.0,0.0,0.0,0.0,0.0,0.0,0.0,0.0,0.0,0.0,0.0,0.0,0.0,0.0,0.0,0.0,0.0,0.0,0.0,0.0,0.0,0.0,0.0,0.0,0.0,0.0,0.0,0.0,0.0,0.0,0.0,0.0,0.0,0.0,0.0,0.0,0.0,0.0,0.0,0.0,0.0,0.0,0.0,0.0,0.0,0.0,0.0,0.0,0.0,0.0,0.0,0.0,0.0,0.0,0.0,0.0,0.0,0.0,0.0,0.0,0.0,0.0,0.0,0.0,0.0,0.0,0.0,0.0,0.0,0.0,0.0,0.0,0.0,0.0,0.0,0.0,0.0,0.0,0.0,0.0,0.0,0.0,0.0,0.0,0.0,0.0,0.0,0.0,0.0,0.0,0.0,0.0,0.0,0.0,0.0,0.0,0.0,0.0,0.0,0.0,0.0,0.0,0.0,0.0,0.0,0.0,0.0,0.0,0.0,0.0,0.0,0.0,0.0,0.0,0.0,0.0,0.0,0.0,0.0,0.0,0.0,0.0,0.0,0.0,0.0,0.0,0.0,0.0,0.0,0.0,0.0,0.0,0.0,0.0,0.0,0.0,0.0,0.0,0.0,0.0,0.0,0.0,0.0,0.0,0.0,0.0,0.0,0.0,0.0,0.0,0.0,0.0,0.0,0.0,0.0,0.0,0.0,0.0,0.0,0.0,0.0,0.0,0.0,0.0,0.0,0.0,0.0,0.0,0.0,0.0,0.0,0.0,0.0,0.0,0.0,0.0,0.0,0.0,0.0,0.0,0.0,0.0,0.0,0.0,0.0,0.0,0.0,0.0,0.0,0.0,0.0,0.0,0.0,0.0,0.0,0.0,0.0,0.0,0.0,0.0,0.0,0.0,0.0,0.0,0.0,0.0,0.0,0.0,0.0,0.0,0.0,0.0,0.0,0.0,0.0,0.0,0.0,0.0,0.0,0.0,0.0,0.0,0.0,0.0,0.0,0.0,0.0,0.0,0.0,0.0,0.0,0.0,0.0,0.0,0.0,0.0,0.0,0.0,0.0,0.0,0.0,0.0,0.0,0.0,0.0,0.0,0.0,0.0,0.0,0.0,0.0,0.0,0.0,0.0,0.0,0.0,0.0,0.0,0.0,0.0,0.0,0.0,0.0,0.0,0.0,0.0,0.0,0.0,0.0,0.0,0.0,0.0,0.0,0.0,0.0,0.0,0.0,0.0,0.0,0.0,0.0,0.0,0.0,0.0,0.0,0.0,0.0,0.0,0.0,0.0,0.0,0.0,0.0,0.0,0.0,0.0,0.0,0.0,0.0,0.0,0.0,0.0,0.0,0.0,0.0,-0.0,0.0,0.0,0.0,0.0,0.0,0.0,0.0,0.0,0.0,0.0,0.0,0.0,0.0,0.0,0.0,0.0,0.0,0.0,0.0,0.0,0.0,0.0,0.0,0.0,0.0,0.0,0.0,0.0,0.0,0.0,0.0,0.0,0.0,0.0,0.0,0.0,0.0,0.0,0.0,0.0,0.0,0.0,0.0,0.0,0.0,0.0,0.0,0.0,0.0,0.0,0.0,0.0,0.0,0.0,0.0,0.0,0.0,0.0,0.0,0.0,0.0,0.0,0.0,0.0,0.0,0.0,0.0,0.0,0.0,0.0,0.0,0.0,0.0,0.0,0.0,0.0,0.0,0.0,0.0,0.0,0.0,0.0,0.0,0.0,0.0,0.0,0.0,0.0,0.0,0.0,0.0,0.0,0.0,0.0,0.0,0.0,0.0,0.0,0.0,0.0,0.0,0.0,0.0,0.0,0.0,0.0,0.0,0.0,0.0,0.0,0.0,0.0,0.0,0.0,0.0,0.0,-0.0,0.0,0.0,0.0,0.0,0.0,0.0,0.0,0.0,0.0,0.0,0.0,0.0,0.0,0.0,0.0,0.0,0.0,0.0,0.0,0.0,0.0,0.0,0.0,0.0,0.0,0.0,0.0,0.0,0.0,0.0,0.0,0.0,0.0,0.0,0.0,0.0,0.0,0.0,0.0,0.0,0.0,0.0,0.0,0.0,0.0,0.0,0.0,0.0,0.0,0.0,0.0,0.0,0.0,0.0,0.0,0.0,0.0,0.0,0.0,0.0,0.0,0.0,0.0,0.0,0.0,0.0,0.0,0.0,0.0,0.0,0.0,0.0,0.0,0.0,0.0,0.0,0.0,0.0,0.0,0.0,0.0,0.0,0.0,0.0,0.0,0.0,0.0,0.0,0.0,0.0,0.0,0.0,0.0,0.0,0.0,0.0,0.0,0.0,0.0,0.0,0.0,0.0,0.0,0.0,0.0,0.0,0.0,0.0,-0.0,-0.0,-0.0,-0.0,-0.0,-0.0,-0.0,-0.0,-0.0,-0.0,0.0,0.0,0.0,0.0,0.0,0.0,0.0,0.0,0.0,0.0,0.0,0.0,0.0,0.0,0.0,0.0,0.0,0.0,0.0,0.0,0.0,0.0,0.0,0.0,0.0,0.0,0.0,0.0,0.0,0.0,0.0,0.0,0.0,0.0,0.0,0.0,0.0,0.0,0.0,0.0,0.0,0.0,0.0,0.0,0.0,0.0,0.0,0.0,0.0,0.0,0.0,0.0,0.0,0.0,0.0,0.0,0.0,0.0,0.0,0.0,0.0,0.0,0.0,0.0,0.0,0.0,0.0,0.0,0.0,0.0,0.0,0.0,0.0,0.0,0.0,0.0,0.0,0.0,0.0,0.0,0.0,0.0,0.0,0.0,0.0,0.0,-0.0,-0.0,0.0,0.0,0.0,0.0,0.0,0.0,0.0,0.0,0.0,0.0,0.0,0.0,0.0,-0.0,-0.0,-0.0,-0.0,-0.0,-0.0,-0.0,-0.0,-0.0,-0.0,-0.0,-0.0,0.0,-0.0,-0.0,0.0,0.0,0.0,0.0,0.0,0.0,0.0,0.0,0.0,0.0,0.0,0.0,0.0,0.0,0.0,0.0,0.0,0.0,0.0,0.0,0.0,0.0,0.0,0.0,0.0,0.0,0.0,0.0,0.0,0.0,0.0,0.0,0.0,0.0,0.0,0.0,0.0,0.0,0.0,0.0,0.0,0.0,0.0,0.0,0.0,0.0,0.0,0.0,0.0,0.0,0.0,0.0,0.0,0.0,0.0,0.0,0.0,0.0,0.0,0.0,0.0,0.0,0.0,0.0,0.0,0.0,0.0,0.0,0.0,0.0,0.0,0.0,0.0,0.0,0.0,0.0,0.0,0.0,0.0,0.0,0.0,0.0,0.0,0.0,0.0,-0.0,-0.0,-0.0,-0.0,-0.0,0.0,0.0,0.0,0.0,0.0,0.0,0.0,0.0,0.0,-0.0,-0.0,-0.0,-0.0,-0.0,-0.0,-0.0,-0.0,-0.0,-0.0,-0.0,-0.0,-0.0,-0.0,-0.0,-0.0,-0.0,-0.0,-0.0,0.0,0.0,0.0,0.0,-0.0,-0.0,0.0,0.0,0.0,0.0,0.0,0.0,0.0,0.0,0.0,0.0,0.0,0.0,0.0,0.0,0.0,0.0,0.0,0.0,0.0,0.0,0.0,0.0,0.0,0.0,0.0,0.0,0.0,0.0,0.0,0.0,0.0,0.0,0.0,0.0,0.0,0.0,0.0,0.0,0.0,0.0,0.0,0.0,0.0,0.0,0.0,0.0,0.0,0.0,0.0,0.0,0.0,0.0,0.0,0.0,0.0,0.0,0.0,0.0,0.0,0.0,0.0,0.0,0.0,0.0,0.0,0.0,0.0,0.0,0.0,0.0,0.0,0.0,0.0,0.0,0.0,0.0,0.0,-0.0,-0.0,-0.0,-0.0,-0.0,0.0,0.0,0.0,0.0,0.0,0.0,-0.0,-0.0,-0.0,-0.0,-0.0,-0.0,-0.0,-0.0,-0.0,-0.0,-0.0,-0.0,-0.0,-0.0,-0.0,-0.0,-0.0,-0.0,-0.0,-0.0,-0.0,-0.0,-0.0,-0.0,-0.0,-0.0,-0.0,-0.0,0.0,0.0,0.0,0.0,0.0,0.0,0.0,0.0,0.0,0.0,0.0,0.0,0.0,0.0,0.0,0.0,0.0,0.0,0.0,0.0,0.0,0.0,0.0,0.0,0.0,0.0,0.0,0.0,0.0,0.0,0.0,0.0,0.0,0.0,0.0,0.0,0.0,0.0,0.0,0.0,0.0,0.0,0.0,0.0,0.0,0.0,0.0,0.0,0.0,0.0,0.0,0.0,0.0,0.0,0.0,0.0,0.0,0.0,0.0,0.0,0.0,0.0,0.0,0.0,0.0,0.0,0.0,0.0,0.0,0.0,0.0,0.0,0.0,0.0,0.0,0.0,0.0,0.0,0.0,-0.0,-0.0,0.0,0.0,0.0,0.0,-0.0,-0.0,-0.0,-0.0,-0.0,-0.0,-0.0,-0.0,-0.0,-0.0,-0.0,-0.0,-0.0,-0.0,-0.0,-0.0,-0.0,-0.0,-0.0,-0.0,-0.0,-0.0,-0.0,-0.0,-0.0,-0.0,-0.0,-0.0,-0.0,-0.0,-0.0,0.0,0.0,0.0,0.0,0.0,0.0,0.0,0.0,0.0,0.0,0.0,0.0,0.0,0.0,0.0,0.0,0.0,0.0,0.0,0.0,0.0,0.0,0.0,0.0,0.0,0.0,0.0,0.0,0.0,0.0,0.0,0.0,0.0,0.0,0.0,0.0,0.0,0.0,0.0,0.0,0.0,0.0,0.0,0.0,0.0,0.0,0.0,0.0,0.0,0.0,0.0,0.0,0.0,0.0,0.0,0.0,0.0,0.0,0.0,0.0,0.0,0.0,0.0,0.0,0.0,0.0,0.0,0.0,0.0,0.0,0.0,0.0,0.0,0.0,0.0,0.0,0.0,0.0,0.0,-0.0,-0.0,0.0,-0.0,-0.0,-0.0,-0.0,-0.0,-0.0,-0.0,-0.0,-0.0,-0.0,-0.0,-0.0,-0.0,-0.0,-0.0,-0.0,-0.0,-0.0,-0.0,-0.0,-0.0,-0.0,-0.0,-0.0,-0.0,-0.0,-0.0,-0.0,-0.0,-0.0,-0.0,-0.0,-0.0,-0.0,0.0,0.0,0.0,0.0,0.0,0.0,0.0,0.0,0.0,0.0,0.0,0.0,0.0,0.0,0.0,0.0,0.0,0.0,0.0,0.0,0.0,0.0,0.0,0.0,0.0,0.0,0.0,0.0,0.0,0.0,0.0,0.0,0.0,0.0,0.0,0.0,0.0,0.0,0.0,0.0,0.0,0.0,-0.8113,0.0,0.0,0.0,0.0,0.0,0.0,0.0,0.0,0.0,0.0,0.0,0.0,0.0,0.0,0.0,0.0,0.0,0.0,0.0,0.0,0.0,0.0,0.0,0.0,0.0,0.0,0.0,0.0,0.0,0.0,0.0,0.0,0.0,0.0,0.0,-0.0,-0.0,-0.0,-0.0,-0.0,-0.0,-0.0,-0.0,-0.0,-0.0,-0.0,-0.0,-0.0,-0.0,-0.0,-0.0,-0.0,-0.0,-0.0,-0.0,-0.0,-0.0,-0.0,-0.0,-0.0,-0.0,-0.0,-0.0,-0.0,-0.0,-0.0,-0.0,-0.0,-0.0,-0.0,-0.0,-0.0,-0.0,0.0,0.0,0.0,0.0,0.0,0.0,0.0,0.0,0.0,0.0,0.0,0.0,0.0,0.0,0.0,0.0,0.0,0.0,0.0,0.0,0.0,0.0,0.0,0.0,0.0,0.0,0.0,0.0,0.0,0.0,0.0,0.0,0.0,0.0,0.0,0.0,0.0,0.0,0.0,0.0,0.0,0.0,-0.8255,0.0,0.0,0.0,0.0,0.0,0.0,0.0,0.0,0.0,0.0,0.0,0.0,0.0,0.0,0.0,0.0,0.0,0.0,0.0,0.0,0.0,0.0,0.0,0.0,0.0,0.0,0.0,0.0,0.0,0.0,0.0,0.0,0.0,-0.0,-0.0,-0.0,-0.0,-0.0,-0.0,-0.0,-0.0,-0.0,-0.0,-0.0,-0.0,-0.0,-0.0,-0.0,-0.0,-0.0,-0.0,-0.0,-0.0,-0.0,-0.0,-0.0,-0.0,-0.0,-0.0,-0.0,-0.0,-0.0,-0.0,-0.0,-0.0,-0.0,-0.0,-0.0,-0.0,-0.0,-0.0,-0.0,-0.0,0.0,0.0,0.0,0.0,0.0,0.0,0.0,0.0,0.0,0.0,0.0,0.0,0.0,0.0,0.0,0.0,0.0,0.0,0.0,0.0,0.0,0.0,0.0,0.0,0.0,0.0,0.0,0.0,0.0,0.0,0.0,0.0,0.0,0.0,0.0,0.0,0.0,0.0,0.0,0.0,0.0,0.0,-0.8265,0.0,0.0,0.0,0.0,0.0,0.0,0.0,0.0,0.0,0.0,0.0,0.0,0.0,0.0,0.0,0.0,0.0,0.0,0.0,0.0,0.0,0.0,0.0,0.0,0.0,0.0,0.0,0.0,0.0,0.0,0.0,0.0,-0.0,-0.0,-0.0,-0.0,-0.0,-0.0,-0.0,-0.0,-0.0,-0.0,-0.0,-0.0,-0.0,-0.0,-0.0,-0.0,-0.0,-0.0,-0.0,-0.0,-0.0,-0.0,-0.0,-0.0,-0.0,-0.0,-0.0,-0.0,-0.0,-0.0,-0.0,-0.0,-0.0,-0.0,-0.0,-0.0,-0.0,-0.0,-0.0,-0.0,-0.0,0.0,0.0,0.0,0.0,0.0,0.0,0.0,0.0,0.0,0.0,0.0,0.0,0.0,0.0,0.0,0.0,0.0,0.0,0.0,0.0,0.0,0.0,0.0,0.0,0.0,0.0,0.0,0.0,0.0,0.0,0.0,0.0,0.0,0.0,0.0,0.0,0.0,0.0,0.0,0.0,0.0,0.0,-0.8537,-0.8408,-0.835,-0.8223,-0.7853,-0.7703,-0.7354,-0.4894,0.0,0.0,0.0,0.0,0.0,0.0,0.0,0.0,0.0,0.0,0.0,0.0,0.0,0.0,0.0,0.0,0.0,0.0,0.0,0.0,0.0,0.0,0.0,0.0,-0.0,-0.0,-0.0,-0.0,-0.0,-0.0,-0.0,-0.0,-0.0,-0.0,-0.0,-0.0,-0.0,-0.0,-0.0,-0.0,-0.0,-0.0,-0.0,-0.0,-0.0,-0.0,-0.0,-0.0,-0.0,-0.0,-0.0,-0.0,-0.0,-0.0,-0.0,-0.0,-0.0,-0.0,-0.0,0.0,0.0,0.0,0.0,0.0,-0.0,-0.0,0.0,0.0,0.0,0.0,0.0,0.0,0.0,0.0,0.0,0.0,0.0,0.0,0.0,0.0,0.0,0.0,0.0,0.0,0.0,0.0,0.0,0.0,0.0,0.0,0.0,0.0,0.0,0.0,0.0,0.0,0.0,0.0,0.0,0.0,0.0,0.0,0.0,0.0,0.0,0.0,0.0,0.0,-0.8913,-0.8642,-0.8615,-0.8484,-0.7709,-0.7605,-0.7519,-0.4368,0.0,0.0,0.0,0.0,0.0,0.0,0.0,0.0,0.0,0.0,0.0,0.0,0.0,0.0,0.0,0.0,0.0,0.0,0.0,0.0,0.0,0.0,0.0,0.0,-0.0,-0.0,-0.0,-0.0,-0.0,-0.0,-0.0,-0.0,-0.0,-0.0,-0.0,-0.0,-0.0,-0.0,-0.0,0.0,0.0,0.0,0.0,-0.0,-0.0,-0.0,-0.0,-0.0,-0.0,-0.0,-0.0,-0.0,-0.0,-0.0,-0.0,-0.0,-0.0,-0.0,-0.0,-0.0,-0.0,-0.0,-0.0,-0.0,-0.0,-0.0,0.0,0.0,0.0,0.0,0.0,0.0,0.0,0.0,0.0,0.0,0.0,0.0,0.0,0.0,0.0,0.0,0.0,0.0,0.0,0.0,0.0,0.0,0.0,0.0,0.0,0.0,0.0,0.0,0.0,0.0,0.0,0.0,0.0,0.0,0.0,0.0,0.0,0.0,0.0,0.0,0.0,0.0,-0.8853,-0.8809,-0.8665,-0.8149,-0.5638,-0.6165,-0.7563,-0.4771,-0.2513,-0.093,-0.1653,0.0,0.0,0.0,0.0,0.0,0.0,0.0,0.0,0.0,0.0,0.0,0.0,0.0,0.0,0.0,0.0,0.0,0.0,0.0,0.0,-0.0,-0.0,-0.0,-0.0,-0.0,-0.0,-0.0,-0.0,-0.0,-0.0,-0.0,-0.0,-0.0,-0.0,-0.0,-0.0,-0.0,-0.0,-0.0,-0.0,-0.0,-0.0,-0.0,-0.0,-0.0,0.0,0.0,-0.0,-0.0,-0.0,-0.0,-0.0,-0.0,-0.0,-0.0,-0.0,-0.0,-0.0,-0.0,-0.0,-0.0,-0.0,-0.0,0.0,0.0,0.0,0.0,0.0,0.0,0.0,0.0,0.0,0.0,0.0,0.0,0.0,0.0,0.0,0.0,0.0,0.0,0.0,0.0,0.0,0.0,0.0,0.0,0.0,0.0,0.0,0.0,0.0,0.0,0.0,0.0,0.0,0.0,0.0,0.0,0.0,0.0,0.0,0.0,0.0,0.0,-0.9202,-0.7404,-0.7519,-0.8559,-0.6961,-0.5437,-0.3829,-0.2405,-0.1075,-0.0105,-0.0632,-0.0832,-0.0717,0.0,0.0,0.0,0.0,0.0,0.0,0.0,0.0,0.0,0.0,0.0,0.0,0.0,0.0,-0.0,0.0,0.0,-0.0,-0.0,-0.0,-0.0,-0.0,-0.0,-0.0,-0.0,-0.0,-0.0,-0.0,-0.0,-0.0,-0.0,-0.0,-0.0,-0.0,-0.0,-0.0,-0.0,-0.0,-0.0,-0.0,-0.0,-0.0,-0.0,-0.0,-0.0,-0.0,-0.0,-0.0,-0.0,-0.0,-0.0,-0.0,-0.0,-0.0,-0.0,-0.0,-0.0,-0.0,-0.0,-0.0,-0.0,0.0,0.0,0.0,0.0,0.0,0.0,0.0,0.0,0.0,0.0,0.0,0.0,0.0,0.0,0.0,0.0,0.0,0.0,0.0,0.0,0.0,0.0,0.0,0.0,0.0,0.0,0.0,0.0,0.0,0.0,0.0,0.0,0.0,0.0,0.0,0.0,0.0,0.0,0.0,0.0,0.0,0.0,-0.937,-0.5183,-0.5099,-0.7205,-0.7181,-0.4027,-0.0,-0.0,-0.0,-0.0,-0.0,-0.0,-0.0,-0.0,-0.0,0.0,0.0,0.0,0.0,0.0,0.0,0.0,0.0,0.0,-0.0,-0.0,-0.0,-0.0,-0.0,-0.0,-0.0,-0.0,-0.0,-0.0,-0.0,-0.0,-0.0,-0.0,-0.0,-0.0,-0.0,-0.0,-0.0,-0.0,-0.0,-0.0,-0.0,-0.0,-0.0,-0.0,-0.0,-0.0,-0.0,-0.0,-0.0,-0.0,-0.0,-0.0,-0.0,-0.0,-0.0,-0.0,-0.0,-0.0,-0.0,-0.0,-0.0,-0.0,-0.0,-0.0,-0.0,-0.0,-0.0,-0.0,0.0,0.0,0.0,0.0,0.0,0.0,0.0,0.0,0.0,0.0,0.0,0.0,0.0,0.0,0.0,0.0,0.0,0.0,0.0,0.0,0.0,0.0,0.0,0.0,0.0,0.0,0.0,0.0,0.0,0.0,0.0,0.0,0.0,0.0,0.0,0.0,0.0,0.0,0.0,0.0,0.0,0.0,-0.9178,-0.2903,-0.0733,-0.094,-0.1043,-0.0569,-0.0,-0.0,-0.0,-0.0,-0.0,-0.0,-0.0,-0.0,0.0,-0.0,-0.0,-0.0,-0.0,-0.0,-0.0,-0.0,0.0,0.0,-0.0,-0.0,-0.0,-0.0,-0.0,-0.0,-0.0,-0.0,-0.0,-0.0,-0.0,-0.0,-0.0,-0.0,-0.0,-0.0,-0.0,-0.0,-0.0,-0.0,-0.0,-0.0,-0.0,-0.0,-0.0,-0.0,-0.0,-0.0,-0.0,-0.0,-0.0,-0.0,-0.0,-0.0,-0.0,-0.0,-0.0,-0.0,-0.0,-0.0,-0.0,-0.0,-0.0,-0.0,-0.0,-0.0,-0.0,-0.0,-0.0,-0.0,0.0,0.0,0.0,0.0,0.0,0.0,0.0,0.0,0.0,0.0,0.0,0.0,0.0,0.0,0.0,0.0,0.0,0.0,0.0,0.0,0.0,0.0,0.0,0.0,0.0,0.0,0.0,0.0,0.0,0.0,0.0,0.0,0.0,0.0,0.0,0.0,0.0,0.0,0.0,0.0,0.0,0.0,-0.3742,-0.1007,-0.0,-0.0,-0.0,-0.0,0.0,0.0,-0.0,-0.0,-0.0,-0.0,-0.0,-0.0,-0.0,0.0,-0.0,-0.0,-0.0,0.0,-0.0,-0.0,-0.0,-0.0,-0.0,-0.0,-0.0,-0.0,-0.0,-0.0,-0.0,0.0,-0.0,-0.0,-0.0,-0.0,-0.0,-0.0,-0.0,-0.0,-0.0,-0.0,-0.0,-0.0,-0.0,-0.0,-0.0,-0.0,-0.0,-0.0,-0.0,-0.0,-0.0,-0.0,-0.0,-0.0,-0.0,-0.0,-0.0,-0.0,-0.0,-0.0,-0.0,-0.0,-0.0,-0.0,-0.0,-0.0,-0.0,-0.0,-0.0,-0.0,-0.0,-0.0,0.0,0.0,0.0,0.0,0.0,0.0,0.0,0.0,0.0,0.0,0.0,0.0,0.0,0.0,0.0,0.0,0.0,0.0,0.0,0.0,0.0,0.0,0.0,0.0,0.0,0.0,0.0,0.0,0.0,0.0,0.0,0.0,0.0,0.0,0.0,0.0,0.0,0.0,0.0,0.0,0.0,0.0,-0.0,-0.0,-0.0,-0.0,-0.0,-0.0,0.0,0.0,-0.0,-0.0,-0.0,-0.0,-0.0,-0.0,-0.0,-0.0,-0.0,-0.0,0.0,-0.0,-0.0,-0.0,-0.0,-0.0,-0.0,-0.0,-0.0,-0.0,-0.0,-0.0,-0.0,-0.0,-0.0,-0.0,-0.0,-0.0,-0.0,-0.0,-0.0,-0.0,-0.0,-0.0,-0.0,-0.0,-0.0,-0.0,-0.0,-0.0,-0.0,-0.0,-0.0,-0.0,-0.0,-0.0,-0.0,-0.0,-0.0,-0.0,-0.0,-0.0,-0.0,-0.0,-0.0,-0.0,-0.0,-0.0,-0.0,-0.0,-0.0,-0.0,-0.0,-0.0,-0.0,-0.0,0.0,0.0,0.0,0.0,0.0,0.0,0.0,0.0,0.0,0.0,0.0,0.0,0.0,0.0,0.0,0.0,0.0,0.0,0.0,0.0,0.0,0.0,0.0,0.0,0.0,0.0,0.0,0.0,0.0,0.0,0.0,0.0,0.0,0.0,0.0,0.0,0.0,0.0,0.0,0.0,0.0,0.0,-0.0,-0.0,-0.0,-0.0,-0.0,0.0,0.0,0.0,-0.0,-0.0,-0.0,-0.0,0.0,-0.0,-0.0,-0.0,-0.0,-0.0,-0.0,-0.0,-0.0,-0.0,-0.0,-0.0,-0.0,-0.0,-0.0,-0.0,-0.0,-0.0,-0.0,-0.0,-0.0,-0.0,-0.0,-0.0,-0.0,-0.0,-0.0,-0.0,0.0,-0.0,-0.0,-0.0,-0.0,-0.0,-0.0,-0.0,-0.0,-0.0,-0.0,-0.0,-0.0,-0.0,-0.0,-0.0,-0.0,-0.0,-0.0,-0.0,-0.0,-0.0,-0.0,-0.0,-0.0,-0.0,-0.0,-0.0,-0.0,-0.0,-0.0,-0.0,-0.0,-0.0,0.0,0.0,0.0,0.0,0.0,0.0,0.0,0.0,0.0,0.0,0.0,0.0,0.0,0.0,0.0,0.0,0.0,0.0,0.0,0.0,0.0,0.0,0.0,0.0,0.0,0.0,0.0,0.0,0.0,0.0,0.0,0.0,0.0,0.0,0.0,0.0,0.0,0.0,0.0,0.0,0.0,0.0,-0.0,-0.0,-0.0,-0.0,0.0,0.0,0.0,0.0,0.0,0.0,-0.0,0.0,0.0,-0.0,-0.0,-0.0,-0.0,-0.0,-0.0,-0.0,-0.0,-0.0,-0.0,-0.0,-0.0,-0.0,-0.0,-0.0,-0.0,-0.0,-0.0,-0.0,-0.0,-0.0,-0.0,-0.0,-0.0,-0.0,-0.0,0.0,0.0,0.0,0.0,-0.0,-0.0,-0.0,-0.0,-0.0,-0.0,-0.0,-0.0,-0.0,-0.0,-0.0,-0.0,-0.0,-0.0,-0.0,-0.0,-0.0,-0.0,-0.0,-0.0,-0.0,-0.0,-0.0,-0.0,-0.0,-0.0,-0.0,-0.0,-0.0,-0.0,-0.0,0.0,0.0,0.0,0.0,0.0,0.0,0.0,0.0,0.0,0.0,0.0,0.0,0.0,0.0,0.0,0.0,0.0,0.0,0.0,0.0,0.0,0.0,0.0,0.0,0.0,0.0,0.0,0.0,0.0,0.0,0.0,0.0,0.0,0.0,0.0,0.0,0.0,0.0,0.0,0.0,0.0,0.0,-0.0,-0.0,-0.0,0.0,0.0,0.0,0.0,0.0,0.0,0.0,0.0,-0.0,-0.0,-0.0,-0.0,-0.0,-0.0,-0.0,-0.0,-0.0,-0.0,-0.0,-0.0,-0.0,-0.0,-0.0,-0.0,-0.0,-0.0,-0.0,-0.0,-0.0,-0.0,-0.0,-0.0,-0.0,-0.0,-0.0,-0.0,-0.0,0.0,0.0,0.0,-0.0,-0.0,-0.0,-0.0,-0.0,-0.0,-0.0,-0.0,-0.0,-0.0,-0.0,-0.0,-0.0,-0.0,-0.0,-0.0,-0.0,-0.0,-0.0,-0.0,-0.0,-0.0,-0.0,-0.0,-0.0,-0.0,-0.0,-0.0,-0.0,-0.0,-0.0,0.0,0.0,0.0,0.0,0.0,0.0,0.0,0.0,0.0,0.0,0.0,0.0,0.0,0.0,0.0,0.0,0.0,0.0,0.0,0.0,0.0,0.0,0.0,0.0,0.0,0.0,0.0,0.0,0.0,0.0,0.0,0.0,0.0,0.0,0.0,0.0,0.0,0.0,0.0,0.0,0.0,0.0,-0.0,-0.0,0.0,0.0,0.0,0.0,0.0,0.0,0.0,0.0,0.0,-0.0,-0.0,-0.0,-0.0,-0.0,-0.0,-0.0,-0.0,-0.0,-0.0,-0.0,-0.0,-0.0,-0.0,-0.0,-0.0,-0.0,0.0,0.0,-0.0,-0.0,-0.0,-0.0,-0.0,-0.0,-0.0,0.0,0.0,0.0,0.0,0.0,0.0,-0.0,0.0,-0.0,-0.0,-0.0,-0.0,-0.0,-0.0,-0.0,-0.0,-0.0,-0.0,-0.0,-0.0,-0.0,-0.0,-0.0,-0.0,-0.0,-0.0,-0.0,-0.0,-0.0,-0.0,-0.0,-0.0,-0.0,-0.0,-0.0,-0.0,-0.0,0.0,0.0,0.0,0.0,0.0,0.0,0.0,0.0,0.0,0.0,0.0,0.0,0.0,0.0,0.0,0.0,0.0,0.0,0.0,0.0,0.0,0.0,0.0,0.0,0.0,0.0,0.0,0.0,0.0,0.0,0.0,0.0,0.0,0.0,0.0,0.0,0.0,0.0,0.0,0.0,0.0,0.0,-0.0,0.0,0.0,0.0,0.0,0.0,0.0,0.0,0.0,0.0,0.0,-0.0,-0.0,-0.0,-0.0,-0.0,-0.0,-0.0,-0.0,-0.0,-0.0,-0.0,-0.0,-0.0,-0.0,-0.0,-0.0,-0.0,0.0,0.0,0.0,-0.0,-0.0,0.0,-0.0,-0.0,0.0,-0.0,0.0,-0.0,-0.0,-0.0,0.0,0.0,-0.0,-0.0,-0.0,-0.0,-0.0,-0.0,-0.0,-0.0,-0.0,-0.0,-0.0,-0.0,-0.0,-0.0,-0.0,-0.0,-0.0,-0.0,-0.0,-0.0,-0.0,-0.0,-0.0,-0.0,-0.0,-0.0,-0.0,-0.0,-0.0,-0.0,0.0,0.0,0.0,0.0,0.0,0.0,0.0,0.0,0.0,0.0,0.0,0.0,0.0,0.0,0.0,0.0,0.0,0.0,0.0,0.0,0.0,0.0,0.0,0.0,0.0,0.0,0.0,0.0,0.0,0.0,0.0,0.0,0.0,0.0,0.0,0.0,0.0,0.0,0.0,0.0,0.0,0.0,0.0,0.0,0.0,0.0,0.0,0.0,0.0,0.0,0.0,-0.0,-0.0,-0.0,-0.0,-0.0,0.0,-0.0,-0.0,-0.0,-0.0,-0.0,-0.0,-0.0,-0.0,-0.0,-0.0,-0.0,-0.0,0.0,-0.0,-0.0,0.0,0.0,0.0,0.0,-0.0,-0.0,-0.0,0.0,-0.0,0.0,-0.0,-0.0,-0.0,0.0,-0.0,-0.0,-0.0,-0.0,-0.0,-0.0,-0.0,-0.0,-0.0,-0.0,-0.0,-0.0,-0.0,-0.0,-0.0,-0.0,-0.0,-0.0,0.0,-0.0,-0.0,-0.0,-0.0,-0.0,-0.0,-0.0,-0.0,-0.0,-0.0,-0.0,0.0,0.0,0.0,0.0,0.0,0.0,0.0,0.0,0.0,0.0,0.0,0.0,0.0,0.0,0.0,0.0,0.0,0.0,0.0,0.0,0.0,0.0,0.0,0.0,0.0,0.0,0.0,0.0,0.0,0.0,0.0,0.0,0.0,0.0,0.0,0.0,0.0,0.0,0.0,0.0,0.0,0.0,0.0,0.0,0.0,0.0,0.0,0.0,0.0,0.0,-0.0,-0.0,-0.0,-0.0,-0.0,-0.0,-0.0,-0.0,-0.0,-0.0,-0.0,-0.0,-0.0,-0.0,-0.0,-0.0,-0.0,-0.0,0.0,-0.0,-0.0,-0.0,-0.0,-0.0,0.0,-0.0,-0.0,-0.0,-0.0,-0.0,-0.0,-0.0,-0.0,-0.0,-0.0,-0.0,-0.0,-0.0,-0.0,-0.0,-0.0,-0.0,-0.0,-0.0,-0.0,-0.0,-0.0,-0.0,-0.0,-0.0,-0.0,-0.0,-0.0,-0.0,-0.0,-0.0,-0.0,-0.0,-0.0,-0.0,-0.0,-0.0,-0.0,-0.0,-0.0,-0.0,0.0,0.0,0.0,0.0,0.0,0.0,0.0,0.0,0.0,0.0,0.0,0.0,0.0,0.0,0.0,0.0,0.0,0.0,0.0,0.0,0.0,0.0,0.0,0.0,0.0,0.0,0.0,0.0,0.0,0.0,0.0,0.0,0.0,0.0,0.0,0.0,0.0,0.0,0.0,0.0,0.0,0.0,0.0,0.0,0.0,0.0,0.0,0.0,0.0,0.0,-0.0,-0.0,-0.0,-0.0,-0.0,-0.0,-0.0,-0.0,-0.0,-0.0,-0.0,-0.0,-0.0,-0.0,-0.0,-0.0,0.0,0.0,-0.0,-0.0,-0.0,-0.0,-0.0,-0.0,-0.0,-0.0,-0.0,-0.0,-0.0,0.0,-0.0,-0.0,-0.0,-0.0,0.0,0.0,-0.0,-0.0,-0.0,-0.0,-0.0,-0.0,-0.0,-0.0,-0.0,-0.0,-0.0,-0.0,-0.0,-0.0,-0.0,-0.0,-0.0,-0.0,-0.0,0.0,-0.0,-0.0,-0.0,-0.0,-0.0,-0.0,-0.0,-0.0,-0.0,-0.0,0.0,0.0,0.0,0.0,0.0,0.0,0.0,0.0,0.0,0.0,0.0,0.0,0.0,0.0,0.0,0.0,0.0,0.0,0.0,0.0,0.0,0.0,0.0,0.0,0.0,0.0,0.0,0.0,0.0,0.0,0.0,0.0,0.0,0.0,0.0,0.0,0.0,0.0,0.0,0.0,0.0,0.0,0.0,0.0,0.0,0.0,0.0,0.0,0.0,0.0,-0.0,-0.0,-0.0,-0.0,-0.0,-0.0,-0.0,-0.0,-0.0,-0.0,-0.0,-0.0,-0.0,-0.0,-0.0,0.0,0.0,-0.0,-0.0,-0.0,-0.0,-0.0,0.0,-0.0,-0.0,-0.0,-0.0,-0.0,0.0,-0.0,-0.0,-0.0,0.0,-0.0,-0.0,-0.0,-0.0,-0.0,-0.0,-0.0,-0.0,-0.0,-0.0,-0.0,-0.0,-0.0,-0.0,-0.0,-0.0,-0.0,-0.0,-0.0,-0.0,-0.0,-0.0,-0.0,-0.0,-0.0,-0.0,-0.0,-0.0,-0.0,-0.0,-0.0,-0.0,-0.0,0.0,0.0,0.0,0.0,0.0,0.0,0.0,0.0,0.0,0.0,0.0,0.0,0.0,0.0,0.0,0.0,0.0,0.0,0.0,0.0,0.0,0.0,0.0,0.0,0.0,0.0,0.0,-0.3997,0.0,0.0,0.0,0.0,0.0,0.0,0.0,0.0,0.0,0.0,0.0,0.0,0.0,0.0,0.0,0.0,0.0,0.0,0.0,0.0,0.0,0.0,-0.0,-0.0,-0.0,-0.0,-0.0,-0.0,-0.0,-0.0,-0.0,-0.0,-0.0,-0.0,-0.0,-0.0,-0.0,-0.0,-0.0,-0.0,-0.0,-0.0,-0.0,0.0,-0.0,0.0,-0.0,-0.0,-0.0,-0.0,-0.0,0.0,-0.0,0.0,-0.0,-0.0,0.0,-0.0,-0.0,-0.0,-0.0,-0.0,-0.0,-0.0,-0.0,-0.0,-0.0,-0.0,-0.0,-0.0,-0.0,-0.0,-0.0,-0.0,-0.0,-0.0,-0.0,-0.0,-0.0,-0.0,-0.0,-0.0,-0.0,-0.0,-0.0,-0.0,-0.0,-0.0,0.0,0.0,0.0,0.0,0.0,0.0,0.0,0.0,0.0,0.0,0.0,0.0,0.0,0.0,0.0,0.0,0.0,0.0,0.0,0.0,0.0,0.0,0.0,0.0,0.0,0.0,0.0,-0.4475,-0.3336,0.0,0.0,0.0,0.0,0.0,0.0,-0.0,0.0,0.0,0.0,0.0,0.0,0.0,0.0,0.0,0.0,0.0,0.0,0.0,0.0,0.0,0.0,-0.0,-0.0,-0.0,-0.0,-0.0,0.0,0.0,-0.0,-0.0,-0.0,-0.0,-0.0,-0.0,-0.0,-0.0,-0.0,-0.0,-0.0,-0.0,-0.0,-0.0,-0.0,0.0,0.0,-0.0,-0.0,-0.0,-0.0,-0.0,0.0,0.0,-0.0,-0.0,-0.0,-0.0,-0.0,-0.0,-0.0,-0.0,-0.0,-0.0,-0.0,-0.0,-0.0,-0.0,-0.0,-0.0,-0.0,-0.0,-0.0,-0.0,-0.0,-0.0,-0.0,-0.0,0.0,-0.0,-0.0,-0.0,-0.0,-0.0,-0.0,-0.0,-0.0,-0.0,0.0,0.0,0.0,0.0,0.0,0.0,0.0,0.0,0.0,0.0,0.0,0.0,0.0,0.0,0.0,0.0,0.0,0.0,0.0,0.0,0.0,0.0,0.0,0.0,0.0,0.0,0.0,-0.4461,-0.3406,0.0,0.0,0.0,0.0,0.0,0.0,-0.0,-0.0,0.0,0.0,0.0,0.0,0.0,0.0,0.0,0.0,0.0,0.0,0.0,0.0,0.0,0.0,0.0,-0.0,-0.0,0.0,0.0,-0.0,-0.0,-0.0,-0.0,-0.0,-0.0,-0.0,-0.0,-0.0,-0.0,-0.0,-0.0,-0.0,-0.0,-0.0,-0.0,-0.0,0.0,0.0,0.0,-0.0,-0.0,-0.0,-0.0,-0.0,0.0,0.0,0.0,-0.0,-0.0,-0.0,-0.0,-0.0,-0.0,-0.0,-0.0,-0.0,-0.0,-0.0,-0.0,-0.0,-0.0,-0.0,-0.0,-0.0,-0.0,-0.0,-0.0,-0.0,-0.0,0.0,-0.0,-0.0,-0.0,-0.0,-0.0,-0.0,-0.0,-0.0,-0.0,0.0,0.0,0.0,0.0,0.0,0.0,0.0,0.0,0.0,0.0,0.0,0.0,0.0,0.0,0.0,0.0,0.0,0.0,0.0,0.0,0.0,0.0,0.0,0.0,0.0,0.0,0.0,0.0,0.0,-0.2856,0.0,0.0,-0.0531,-0.0,0.0,0.0,0.0,0.0,0.0,0.0,0.0,0.0,0.0,0.0,0.0,0.0,0.0,0.0,0.0,0.0,0.0,0.0,0.0,0.0,0.0,0.0,-0.0,-0.0,-0.0,-0.0,-0.0,-0.0,-0.0,-0.0,0.0,0.0,-0.0,-0.0,-0.0,-0.0,-0.0,-0.0,-0.0,0.0,0.0,-0.0,-0.0,-0.0,-0.0,0.0,0.0,-0.0,0.0,-0.0,-0.0,-0.0,-0.0,-0.0,-0.0,-0.0,-0.0,-0.0,-0.0,-0.0,-0.0,-0.0,-0.0,-0.0,-0.0,-0.0,-0.0,-0.0,-0.0,-0.0,-0.0,-0.0,0.0,-0.0,-0.0,-0.0,-0.0,-0.0,-0.0,-0.0,-0.0,-0.0,0.0,0.0,0.0,0.0,0.0,0.0,0.0,0.0,0.0,0.0,0.0,0.0,0.0,0.0,0.0,0.0,0.0,0.0,0.0,0.0,0.0,0.0,0.0,0.0,0.0,0.0,0.0,0.0,0.0,0.0,0.0,-0.1884,-0.0897,-0.0,0.0,0.0,0.0,0.0,0.0,0.0,0.0,0.0,0.0,0.0,0.0,0.0,0.0,0.0,0.0,0.0,0.0,0.0,0.0,0.0,0.0,0.0,-0.0,-0.0,-0.0,-0.0,-0.0,-0.0,-0.0,-0.0,0.0,0.0,-0.0,-0.0,-0.0,-0.0,-0.0,-0.0,-0.0,-0.0,-0.0,0.0,-0.0,-0.0,-0.0,0.0,0.0,-0.0,-0.0,-0.0,-0.0,-0.0,-0.0,0.0,-0.0,-0.0,-0.0,-0.0,-0.0,-0.0,-0.0,-0.0,-0.0,-0.0,-0.0,-0.0,-0.0,-0.0,-0.0,-0.0,-0.0,-0.0,0.0,-0.0,-0.0,-0.0,-0.0,-0.0,-0.0,-0.0,-0.0,-0.0,0.0,0.0,0.0,0.0,0.0,0.0,0.0,0.0,0.0,0.0,0.0,0.0,0.0,0.0,0.0,0.0,0.0,0.0,0.0,0.0,0.0,0.0,0.0,0.0,0.0,0.0,0.0,0.0,0.0,0.0,0.0,0.0,0.0,-0.0,-0.0,-0.0,0.0,0.0,0.0,0.0,0.0,0.0,0.0,0.0,0.0,0.0,0.0,0.0,0.0,0.0,0.0,0.0,0.0,0.0,0.0,0.0,0.0,0.0,-0.0,-0.0,-0.0,-0.0,-0.0,-0.0,-0.0,0.0,-0.0,-0.0,-0.0,-0.0,-0.0,-0.0,-0.0,-0.0,-0.0,0.0,0.0,0.0,0.0,-0.0,-0.0,-0.0,0.0,0.0,-0.0,-0.0,-0.0,-0.0,-0.0,-0.0,-0.0,-0.0,-0.0,-0.0,-0.0,-0.0,-0.0,-0.0,-0.0,-0.0,-0.0,-0.0,-0.0,-0.0,-0.0,-0.0,-0.0,-0.0,-0.0,-0.0,-0.0,-0.0,-0.0,-0.0,-0.0,-0.0,0.0,0.0,0.0,0.0,0.0,0.0,0.0,0.0,0.0,0.0,0.0,0.0,0.0,0.0,0.0,0.0,0.0,0.0,0.0,0.0,0.0,0.0,0.0,0.0,0.0,0.0,0.0,0.0,0.0,0.0,0.0,0.0,0.0,0.0,0.0,0.0,0.0,0.0,0.0,0.0,0.0,0.0,-0.0,0.0,0.0,0.0,0.0,0.0,0.0,0.0,0.0,0.0,0.0,0.0,0.0,0.0,-0.0,0.0,0.0,-0.0,-0.0,-0.0,-0.0,0.0,0.0,0.0,0.0,0.0,-0.0,-0.0,-0.0,-0.0,-0.0,-0.0,-0.0,-0.0,0.0,0.0,0.0,-0.0,0.0,0.0,0.0,-0.0,-0.0,-0.0,-0.0,-0.0,-0.0,-0.0,-0.0,-0.0,-0.0,-0.0,-0.0,-0.0,-0.0,-0.0,-0.0,-0.0,-0.0,-0.0,-0.0,-0.0,-0.0,-0.0,0.0,-0.0,-0.0,-0.0,-0.0,-0.0,-0.0,-0.0,-0.0,-0.0,0.0,0.0,0.0,0.0,0.0,0.0,0.0,0.0,0.0,0.0,0.0,0.0,0.0,0.0,0.0,0.0,0.0,0.0,0.0,0.0,0.0,0.0,0.0,0.0,0.0,0.0,0.0,0.0,-0.2323,-0.2021,-0.1256,0.0,0.0,0.0,0.0,0.0,0.0,0.0,0.0,0.0,0.0,0.0,0.0,0.0,0.0,0.0,0.0,0.0,0.0,0.0,0.0,0.0,0.0,0.0,0.0,0.0,0.0,0.0,0.0,0.0,0.0,0.0,0.0,0.0,0.0,0.0,0.0,0.0,0.0,0.0,0.0,-0.0,-0.0,-0.0,-0.0,-0.0,0.0,-0.0,0.0,0.0,-0.0,0.0,-0.0,-0.0,-0.0,-0.0,-0.0,-0.0,-0.0,-0.0,-0.0,-0.0,-0.0,-0.0,-0.0,-0.0,-0.0,-0.0,-0.0,-0.0,-0.0,-0.0,-0.0,0.0,-0.0,-0.0,-0.0,-0.0,-0.0,-0.0,-0.0,-0.0,-0.0,-0.0,-0.0,-0.0,0.0,0.0,0.0,0.0,0.0,0.0,0.0,0.0,0.0,0.0,0.0,0.0,0.0,0.0,0.0,0.0,0.0,0.0,0.0,0.0,0.0,0.0,0.0,0.0,0.0,0.0,0.0,-0.2444,-0.1895,-0.1144,-0.0359,-0.009,0.0,0.0,0.0,0.0,0.0,0.0,0.0,0.0,0.0,0.0,0.0,0.0,0.0,0.0,-0.0,-0.0,0.0,0.0,0.0,0.0,0.0,0.0,0.0,0.0,-0.0,-0.0,-0.0,0.0,-0.0,-0.0,-0.0,-0.0,0.0,0.0,0.0,0.0,0.0,0.0,0.0,0.0,0.0,-0.0,-0.0,-0.0,-0.0,0.0,0.0,-0.0,-0.0,-0.0,-0.0,-0.0,-0.0,-0.0,-0.0,-0.0,-0.0,-0.0,-0.0,-0.0,-0.0,-0.0,-0.0,-0.0,-0.0,-0.0,-0.0,-0.0,-0.0,-0.0,-0.0,-0.0,-0.0,-0.0,-0.0,-0.0,-0.0,-0.0,-0.0,-0.0,-0.0,-0.0,-0.0,-0.0,0.0,0.0,0.0,0.0,0.0,0.0,0.0,0.0,0.0,0.0,0.0,0.0,0.0,0.0,0.0,0.0,0.0,0.0,0.0,0.0,0.0,0.0,0.0,0.0,0.0,0.0,0.0,0.0,0.0,-0.0444,0.0,0.0,0.0,0.0,0.0,0.0,0.0,0.0,0.0,0.0,-0.0,0.0,0.0,0.0,0.0,0.0,-0.0,-0.0,0.0,-0.0,-0.0,-0.0,0.0,0.0,0.0,0.0,-0.0,-0.0,-0.0,-0.0,-0.0,-0.0,-0.0,-0.0,0.0,0.0,0.0,0.0,0.0,0.0,0.0,0.0,0.0,0.0,-0.0,0.0,0.0,0.0,-0.0,-0.0,-0.0,-0.0,0.0,-0.0,-0.0,-0.0,-0.0,-0.0,-0.0,-0.0,-0.0,-0.0,-0.0,-0.0,-0.0,-0.0,-0.0,-0.0,-0.0,-0.0,-0.0,-0.0,-0.0,-0.0,-0.0,-0.0,-0.0,-0.0,-0.0,-0.0,-0.0,-0.0,-0.0,-0.0,-0.0,-0.0,0.0,0.0,0.0,0.0,0.0,0.0,0.0,0.0,0.0,0.0,0.0,0.0,0.0,0.0,0.0,0.0,0.0,0.0,0.0,0.0,0.0,0.0,0.0,0.0,0.0,0.0,0.0,0.0,0.0,0.0,0.0,0.0,0.0,0.0,0.0,0.0,0.0,0.0,0.0,0.0,-0.0,0.0,0.0,0.0,0.0,0.0,0.0,0.0,0.0,-0.0,-0.0,-0.0,-0.0,0.0,0.0,0.0,0.0,0.0,-0.0,-0.0,-0.0,-0.0,-0.0,-0.0,0.0,0.0,0.0,0.0,0.0,0.0,0.0,0.0,0.0,0.0,0.0,0.0,-0.0,-0.0,-0.0,-0.0,-0.0,0.0,-0.0,-0.0,-0.0,-0.0,-0.0,-0.0,-0.0,-0.0,-0.0,-0.0,-0.0,-0.0,-0.0,-0.0,-0.0,-0.0,-0.0,-0.0,-0.0,-0.0,-0.0,-0.0,0.0,0.0,-0.0,-0.0,-0.0,-0.0,-0.0,-0.0,-0.0,-0.0,-0.0,-0.0,0.0,0.0,0.0,0.0,0.0,0.0,0.0,0.0,0.0,0.0,0.0,0.0,0.0,0.0,0.0,0.0,0.0,0.0,0.0,0.0,0.0,0.0,0.0,0.0,0.0,0.0,0.0,0.0,0.0,0.0,-0.0,-0.0,-0.0,0.0,0.0,0.0,0.0,-0.0,-0.0,-0.0,-0.0,0.0,0.0,0.0,0.0,0.0,0.0,0.0,0.0,-0.0,-0.0,-0.0,-0.0,0.0,0.0,0.0,0.0,0.0,-0.0,-0.0,-0.0,-0.0,-0.0,-0.0,0.0,0.0,0.0,0.0,0.0,0.0,0.0,0.0,0.0,0.0,0.0,-0.0,0.0,0.0,-0.0,-0.0,0.0,-0.0,-0.0,-0.0,-0.0,-0.0,-0.0,-0.0,-0.0,-0.0,-0.0,-0.0,-0.0,-0.0,-0.0,-0.0,-0.0,-0.0,-0.0,-0.0,-0.0,-0.0,-0.0,-0.0,0.0,-0.0,-0.0,-0.0,-0.0,-0.0,-0.0,-0.0,-0.0,-0.0,-0.0,-0.0,0.0,0.0,0.0,0.0,0.0,0.0,0.0,0.0,0.0,0.0,0.0,0.0,0.0,0.0,0.0,0.0,0.0,0.0,0.0,0.0,0.0,0.0,0.0,0.0,0.0,0.0,0.0,0.0,0.0,-0.0,-0.0,-0.0,-0.0,-0.0,0.0,0.0,0.0,-0.0,-0.0,-0.0,0.0,0.0,0.0,0.0,0.0,0.0,0.0,0.0,0.0,0.0,-0.0,-0.0,-0.0,0.0,0.0,0.0,0.0,0.0,-0.0,-0.0,-0.0,-0.0,-0.0,-0.0,0.0,0.0,0.0,0.0,0.0,0.0,0.0,0.0,0.0,0.0,0.0,-0.0,-0.0,-0.0,-0.0,0.0,0.0,-0.0,-0.0,-0.0,-0.0,-0.0,-0.0,-0.0,-0.0,-0.0,-0.0,-0.0,-0.0,-0.0,-0.0,-0.0,-0.0,-0.0,-0.0,-0.0,-0.0,-0.0,-0.0,-0.0,0.0,-0.0,-0.0,-0.0,-0.0,-0.0,-0.0,-0.0,-0.0,-0.0,-0.0,-0.0,0.0,0.0,0.0,0.0,0.0,0.0,0.0,0.0,0.0,0.0,0.0,0.0,0.0,0.0,0.0,0.0,0.0,0.0,0.0,0.0,0.0,0.0,0.0,0.0,0.0,0.0,0.0,-0.0,-0.0,-0.0,-0.0,-0.0,-0.0,0.0,0.0,0.0,0.0,-0.0,-0.0,-0.0,0.0,0.0,0.0,0.0,0.0,0.0,0.0,0.0,0.0,0.0,0.0,0.0,0.0,0.0,0.0,-0.0,-0.0,-0.0,-0.0,-0.0,-0.0,-0.0,0.0,-0.0,0.0,0.0,0.0,0.0,0.0,0.0,0.0,0.0,0.0,-0.0,-0.0,-0.0,-0.0,-0.0,-0.0,-0.0,-0.0,-0.0,-0.0,-0.0,-0.0,-0.0,-0.0,-0.0,-0.0,-0.0,-0.0,-0.0,-0.0,-0.0,-0.0,-0.0,-0.0,-0.0,-0.0,-0.0,-0.0,-0.0,-0.0,-0.0,-0.0,-0.0,-0.0,-0.0,-0.0,-0.0,-0.0,-0.0,-0.0,-0.0,-0.0,-0.0,0.0,0.0,0.0,0.0,0.0,0.0,0.0,0.0,0.0,0.0,0.0,0.0,0.0,0.0,0.0,0.0,0.0,0.0,0.0,0.0,0.0,0.0,0.0,0.0,0.0,-0.1911,-0.085,-0.0,-0.0,-0.0,-0.0,-0.0,-0.0,-0.0,0.0,0.0,0.0,-0.0,-0.0,-0.0,-0.0,0.0,0.0,0.0,0.0,0.0,0.0,0.0,0.0,0.0,0.0,0.0,0.0,0.0,-0.0,-0.0,-0.0,-0.0,-0.0,-0.0,-0.0,-0.0,0.0,0.0,0.0,0.0,0.0,0.0,0.0,0.0,0.0,0.0,-0.0,-0.0,-0.0,-0.0,-0.0,0.0,-0.0,-0.0,-0.0,-0.0,-0.0,-0.0,-0.0,-0.0,-0.0,-0.0,-0.0,-0.0,-0.0,-0.0,-0.0,-0.0,-0.0,-0.0,-0.0,-0.0,-0.0,-0.0,-0.0,-0.0,-0.0,-0.0,-0.0,-0.0,-0.0,-0.0,-0.0,-0.0,-0.0,-0.0,-0.0,-0.0,-0.0,-0.0,0.0,0.0,0.0,0.0,0.0,0.0,0.0,0.0,0.0,0.0,0.0,0.0,0.0,0.0,0.0,0.0,0.0,0.0,0.0,0.0,0.0,0.0,0.0,-0.4162,-0.2818,-0.184,-0.0856,-0.0,-0.0,-0.0,-0.0,-0.0,0.0,0.0,0.0,0.0,0.0,-0.0,-0.0,-0.0,-0.0,-0.0,0.0,0.0,0.0,0.0,0.0,0.0,0.0,0.0,-0.0,-0.0,0.0,-0.0,-0.0,-0.0,-0.0,-0.0,-0.0,-0.0,-0.0,-0.0,0.0,0.0,0.0,0.0,0.0,0.0,0.0,0.0,0.0,0.0,-0.0,-0.0,-0.0,-0.0,-0.0,-0.0,-0.0,-0.0,-0.0,-0.0,-0.0,-0.0,-0.0,-0.0,-0.0,-0.0,-0.0,-0.0,-0.0,-0.0,-0.0,-0.0,-0.0,-0.0,-0.0,-0.0,-0.0,-0.0,-0.0,-0.0,-0.0,-0.0,-0.0,-0.0,-0.0,-0.0,-0.0,-0.0,-0.0,-0.0,-0.0,-0.0,-0.0,0.0617,0.0,0.0,0.0,0.0,0.0,0.0,0.0,0.0,0.0,0.0,0.0,0.0,0.0,0.0,0.0,0.0,0.0,0.0,0.0,0.0,0.0,0.0,0.0,-0.4258,-0.2851,-0.203,-0.1211,-0.0448,-0.018,-0.0,-0.0,0.0,0.0,0.0,0.0,0.0,0.0,0.0,-0.0,-0.0,-0.0,-0.0,0.0,0.0,0.0,0.0,0.0,0.0,0.0,0.0,0.0,0.0,0.0,0.0,0.0,0.0,-0.0,-0.0,-0.0,-0.0,-0.0,0.0,0.0,0.0,0.0,0.0,0.0,0.0,0.0,0.0,0.0,0.0,0.0,0.0,-0.0,-0.0,-0.0,-0.0,-0.0,-0.0,-0.0,-0.0,-0.0,-0.0,-0.0,-0.0,-0.0,-0.0,-0.0,-0.0,-0.0,-0.0,-0.0,-0.0,-0.0,-0.0,-0.0,-0.0,-0.0,-0.0,-0.0,-0.0,-0.0,-0.0,-0.0,-0.0,-0.0,-0.0,-0.0,-0.0,-0.0,-0.0,0.0243,0.2337,0.3087,0.3581,0.0,0.0,0.0,0.0,0.0,0.0,0.0,0.0,0.0,0.0,0.0,0.0,0.0,0.0,0.0,0.0,0.0,0.0,0.0,0.0,0.0,0.0,0.0,-0.434,-0.3357,-0.2664,-0.2021,-0.1436,-0.0449,-0.0,-0.0,0.0,0.0,0.0,0.0,0.0,0.0,0.0,0.0,-0.0,-0.0,-0.0,-0.0,0.0,0.0,0.0,0.0,0.0,0.0,0.0,-0.0,0.0,0.0,0.0,0.0,0.0,-0.0,-0.0,-0.0,-0.0,0.0,0.0,0.0,0.0,0.0,0.0,0.0,0.0,0.0,0.0,0.0,0.0,0.0,-0.0,-0.0,-0.0,-0.0,-0.0,-0.0,-0.0,-0.0,-0.0,-0.0,-0.0,-0.0,-0.0,-0.0,-0.0,-0.0,-0.0,-0.0,-0.0,-0.0,-0.0,-0.0,-0.0,-0.0,-0.0,-0.0,-0.0,-0.0,-0.0,-0.0,-0.0,-0.0,-0.0,-0.0,0.012,0.0121,0.0121,-0.0,-0.0,0.0864,0.7308,0.9818,0.9309,0.0,0.0,0.0,0.0,0.0,0.0,0.0,0.0,0.0,0.0,0.0,0.0,0.0,0.0,0.0,0.0,0.0,0.0,0.0,0.0,0.0,0.0,0.0,0.0,0.0,0.0,-0.1426,-0.0897,-0.0269,-0.0,0.0,0.0,0.0,-0.0,0.0,0.0,0.0,0.0,0.0,-0.0,-0.0,-0.0,-0.0,0.0,0.0,0.0,0.0,0.0,0.0,0.0,0.0,0.0,0.0,0.0,0.0,-0.0,-0.0,-0.0,-0.0,-0.0,0.0,0.0,0.0,0.0,0.0,0.0,0.0,0.0,0.0,0.0,0.0,0.0,0.0,-0.0,-0.0,-0.0,-0.0,-0.0,-0.0,-0.0,-0.0,-0.0,-0.0,-0.0,-0.0,-0.0,-0.0,-0.0,-0.0,-0.0,-0.0,-0.0,-0.0,-0.0,-0.0,-0.0,-0.0,-0.0,-0.0,-0.0,-0.0,-0.0,-0.0,-0.0,-0.0,-0.0,0.036,0.5,0.6884,0.6639,0.4304,0.3445,0.369,0.5665,0.7782,0.9661,0.0,0.0,0.0,0.0,0.0,0.0,0.0,0.0,0.0,0.0,0.0,0.0,0.0,0.0,0.0,0.0,0.0,0.0,0.0,0.0,0.0,0.0,0.0,0.0,0.0,-0.2301,-0.1345,0.0,0.0,0.0,0.0,0.0,0.0,-0.0,0.0,-0.0,0.0,0.0,0.0,-0.0,-0.0,-0.0,-0.0,0.0,0.0,0.0,0.0,0.0,0.0,0.0,0.0,0.0,0.0,0.0,0.0,-0.0,-0.0,-0.0,-0.0,0.0,0.0,0.0,0.0,0.0,0.0,0.0,0.0,0.0,0.0,0.0,-0.0,-0.0,0.0,-0.0,-0.0,-0.0,-0.0,-0.0,-0.0,-0.0,-0.0,-0.0,-0.0,-0.0,-0.0,-0.0,-0.0,-0.0,-0.0,0.2299,0.3485,0.3536,0.1199,-0.0,-0.0,-0.0,0.1208,0.3482,0.3831,0.3214,0.1771,0.0589,-0.0,0.0118,0.2713,0.3924,0.4108,0.6754,0.8667,0.9552,0.7651,0.69,0.6898,0.6888,0.813,0.9761,0.0,0.0,0.0,0.0,0.0,0.0,0.0,0.0,0.0,0.0,0.0,0.0,0.0,0.0,0.0,0.0,0.0,0.0,0.0,0.0,0.0,0.0,0.0,0.0,0.0,0.0,0.0,0.0,0.0,0.0,0.0,0.0,-0.0,-0.0,0.0,-0.0,0.0,0.0,0.0,-0.0,-0.0,-0.0,-0.0,-0.0,0.0,0.0,0.0,0.0,0.0,0.0,0.0,0.0,0.0,0.0,0.0,-0.0,-0.0,-0.0,0.0,0.0,0.0,0.0,0.0,0.0,0.0,0.0,0.0,0.0,0.0,-0.0,-0.0,-0.0,-0.0,-0.0,-0.0,-0.0,-0.0,-0.0,-0.0,-0.0,-0.0,-0.0,-0.0,-0.0,0.0241,0.0722,0.0842,0.0721,0.048,0.5582,0.8626,0.8845,0.3638,0.0704,0.0468,0.0353,0.3155,0.8453,0.9282,0.8067,0.4809,0.1747,0.0466,0.0688,0.6796,0.9561,0.958,0.6609,0.7146,0.9777,0.9777,0.9774,0.9771,0.9741,0.9852,0.9849,0.0,0.0,0.0,0.0,0.0,0.0,0.0,0.0,0.0,0.0,0.0,0.0,0.0,0.0,0.0,0.0,0.0,0.0,0.0,0.0,0.0,0.0,0.0,0.0,0.0,0.0,0.0,0.0,0.0,0.0,0.0,0.0,0.0,-0.0,0.0,-0.0,0.0,0.0,0.0,-0.0,-0.0,-0.0,-0.0,-0.0,-0.0,0.0,0.0,0.0,0.0,0.0,0.0,0.0,0.0,-0.0,-0.0,-0.0,-0.0,-0.0,0.0,0.0,0.0,0.0,0.0,0.0,0.0,0.0,0.0,0.0,0.0,-0.0,-0.0,-0.0,-0.0,-0.0,-0.0,-0.0,-0.0,-0.0,-0.0,-0.0,-0.0,-0.0,-0.0,-0.0,0.1894,0.6646,0.7005,0.6007,0.3706,0.4787,0.6512,0.8771,0.7679,0.5839,0.3565,0.3495,0.4217,0.549,0.7901,0.8787,0.8283,0.506,0.3537,0.3604,0.5221,0.7434,0.9769,0.9023,0.9114,0.9741,0.9846,0.9839,0.9839,0.9832,0.9829,0.9829,0.0,0.0,0.0,0.0,0.0,0.0,0.0,0.0,0.0,0.0,0.0,0.0,0.0,0.0,0.0,0.0,0.0,0.0,0.0,0.0,0.0,0.0,0.0,0.0,0.0,0.0,0.0,0.0,0.0,0.0,0.0,0.0,0.0,-0.0,0.0,-0.0,0.0,0.0,0.0,0.0,-0.0,-0.0,-0.0,-0.0,-0.0,-0.0,-0.0,0.0,0.0,0.0,0.0,0.0,0.0,0.0,-0.0,-0.0,-0.0,-0.0,0.0,0.0,0.0,0.0,0.0,0.0,0.0,0.0,0.0,0.0,-0.0,-0.0,-0.0,-0.0,-0.0,-0.0,-0.0,-0.0,-0.0,-0.0,-0.0,-0.0,0.25,0.4246,0.4246,0.3037,0.3483,0.652,0.8052,0.8253,0.6657,0.649,0.7236,0.888,0.8953,0.8182,0.6569,0.6633,0.6662,0.6655,0.8274,0.9084,0.9188,0.7401,0.6551,0.6624,0.6893,0.7939,0.969,0.9656,0.9778,0.9839,0.9825,0.9822,0.9822,0.9822,0.9822,0.9822,0.0,0.0,0.0,0.0,0.0,0.0,0.0,0.0,0.0,0.0,0.0,0.0,0.0,0.0,0.0,0.0,0.0,0.0,0.0,0.0,0.0,0.0,0.0,0.0,0.0,0.0,0.0,0.0,0.0,0.0,0.0,0.0,0.0,-0.0,0.0,0.0,0.0,0.0,0.0,0.0,0.0,0.0,0.0,-0.0,-0.0,-0.0,-0.0,-0.0,-0.0,-0.0,0.0,0.0,0.0,0.0,-0.0,-0.0,-0.0,-0.0,0.0,0.0,0.0,0.0,0.0,0.0,0.0,0.0,0.0,0.0,-0.0,-0.0,-0.0,-0.0,-0.0,-0.0,-0.0,0.0352,0.1413,0.1531,0.1295,0.0824,0.5109,0.8311,0.8895,0.6628,0.5223,0.5221,0.7381,0.8752,0.8861,0.862,0.8645,0.8773,0.8879,0.8872,0.8776,0.8796,0.8796,0.8779,0.9035,0.9106,0.9113,0.9032,0.8883,0.889,0.9127,0.9252,0.9501,0.9517,0.9639,0.9747,0.9774,0.9785,0.9788,0.9812,0.9822,0.9822,0.0,0.0,0.0,0.0,0.0,0.0,0.0,0.0,0.0,0.0,0.0,0.0,0.0,0.0,0.0,0.0,0.0,0.0,-0.6338,0.0,0.0,-0.6099,0.0,0.0,0.0,0.0,0.0,0.0,0.0,0.0,0.0,0.0,0.0,-0.0,0.0,0.0,0.0,0.0,0.0,0.0,0.0,0.0,0.0,-0.0,-0.0,-0.0,-0.0,-0.0,-0.0,-0.0,-0.0,0.0,0.0,0.0,-0.0,-0.0,-0.0,-0.0,0.0,0.0,0.0,0.0,0.0,0.0,0.0,0.0,0.0,0.0,-0.0,-0.0,-0.0,-0.0,-0.0,-0.0,-0.0,0.1854,0.6957,0.7685,0.6723,0.4223,0.4625,0.6077,0.8641,0.8307,0.8044,0.8025,0.8243,0.8385,0.8581,0.854,0.8526,0.8547,0.8526,0.8526,0.8547,0.855,0.855,0.855,0.8703,0.8842,0.8967,0.8954,0.8947,0.8957,0.9096,0.9167,0.9201,0.9351,0.9422,0.9452,0.9588,0.9639,0.9652,0.9774,0.9822,0.9822,0.0,0.0,0.0,0.0,0.0,0.0,0.0,0.0,0.0,0.0,0.0,0.0,0.0,0.0,0.0,-0.6338,-0.6338,-0.6338,-0.6338,-0.618,-0.6165,-0.6308,-0.6231,0.0,0.0,0.0,0.0,0.0,0.0,0.0,0.0,-0.018,-0.0,0.0,0.0,0.0,0.0,0.0,0.0,0.0,0.0,0.0,0.0,0.0,-0.0,-0.0,-0.0,-0.0,-0.0,-0.0,-0.0,-0.0,-0.0,0.0,0.0,0.0,-0.0,0.0,0.0,0.0,0.0,0.0,0.0,0.0,0.0,0.0,0.0,-0.0,-0.0,-0.0,-0.0,-0.0,0.0984,0.3967,0.4526,0.4867,0.6012,0.7774,0.8364,0.6914,0.6795,0.7224,0.8497,0.8477,0.8498,0.8491,0.8428,0.8489,0.8482,0.8408,0.8397,0.8479,0.8404,0.8401,0.8482,0.8482,0.8482,0.8482,0.855,0.8662,0.8808,0.8723,0.8777,0.8944,0.9005,0.9079,0.9157,0.9225,0.9303,0.9388,0.9456,0.9483,0.95,0.9649,0.9703,0.9713,0.0,0.0,0.0,0.0,0.0,0.0,0.0,0.0,0.0,0.0,0.0,0.0,0.0,0.0,0.0,0.0,-0.6338,-0.6338,-0.6338,-0.6338,-0.6308,-0.6413,-0.642,-0.6311,0.0,0.0,0.0,0.0,0.0,0.0,-0.0807,-0.0359,-0.009,0.0,-0.0,0.0,0.0,0.0,0.0,0.0,0.0,0.0,0.0,0.0,0.0,0.0,-0.0,-0.0,-0.0,-0.0,-0.0,-0.0,-0.0,-0.0,0.0,0.0,0.0,0.0,0.0,0.0,0.0,0.0,0.0,0.0,0.0,0.0,-0.0,0.0,0.1123,0.207,0.1993,0.2014,0.3306,0.739,0.8033,0.7369,0.5415,0.7214,0.8669,0.8547,0.8511,0.8521,0.8407,0.8459,0.8428,0.8428,0.8391,0.8367,0.8367,0.8269,0.8258,0.8367,0.8265,0.8262,0.8367,0.8367,0.8391,0.8428,0.8428,0.8506,0.8648,0.8533,0.8608,0.8825,0.8862,0.894,0.9042,0.9083,0.9167,0.9273,0.931,0.9323,0.9344,0.9496,0.9551,0.9571,0.0,0.0,0.0,0.0,0.0,0.0,0.0,0.0,0.0,0.0,0.0,0.0,0.0,-0.6338,-0.6338,-0.6338,-0.6338,-0.6338,-0.6338,-0.6338,-0.6264,-0.6271,-0.6271,0.0,-0.5883,0.0,0.0,0.0,0.0,0.0,-0.0987,-0.0807,-0.0448,-0.0,-0.0,-0.0,-0.0,0.0,0.0,0.0,0.0,0.0,0.0,0.0,0.0,0.0,0.0,-0.0,-0.0,-0.0,-0.0,-0.0,-0.0,-0.0,-0.0,0.0,0.0,0.0,0.0,0.0,0.0,0.0,0.0,0.0,0.0,0.0,0.0,-0.0,0.4045,0.7626,0.7633,0.7541,0.7715,0.793,0.8021,0.8002,0.8088,0.82,0.8407,0.8489,0.8489,0.8492,0.8482,0.836,0.8282,0.8282,0.8147,0.8062,0.8062,0.8055,0.8055,0.8062,0.8055,0.8055,0.8062,0.8062,0.8136,0.8282,0.8282,0.8357,0.8492,0.8486,0.8489,0.8513,0.8659,0.8726,0.8743,0.8889,0.8954,0.8977,0.9113,0.9164,0.9184,0.9337,0.9395,0.9415,0.0,0.0,0.0,0.0,0.0,0.0,0.0,0.0,0.0,0.0,0.0,0.0,0.0,-0.6338,-0.6338,-0.6338,-0.6338,-0.6338,-0.6338,-0.6338,-0.6338,-0.6338,-0.6338,-0.618,-0.5941,0.0,0.0,0.0,0.0,-0.3134,-0.224,-0.1524,-0.1076,-0.0897,-0.0269,-0.0,-0.0,-0.0,0.0,0.0,0.0,0.0,0.0,0.0,0.0,0.0,0.0,-0.0,-0.0,-0.0,-0.0,-0.0,-0.0,-0.0,-0.0,-0.0,-0.0,-0.0,0.0,0.0,0.0,0.0,0.0,0.0,0.0,-0.0,0.0404,0.1819,0.4145,0.6382,0.7717,0.6644,0.5965,0.7734,0.8041,0.8028,0.8109,0.819,0.8316,0.8211,0.8286,0.8306,0.8208,0.815,0.8123,0.8123,0.8072,0.8038,0.8038,0.8038,0.8038,0.8038,0.8038,0.8038,0.8038,0.8038,0.8069,0.8123,0.8123,0.8201,0.8343,0.8241,0.8252,0.835,0.8404,0.8537,0.8713,0.8771,0.8852,0.8944,0.8994,0.9015,0.9032,0.9181,0.9235,0.9269,0.0,0.0,0.0,0.0,0.0,0.0,0.0,0.0,0.0,0.0,0.0,0.0,0.0,0.0,-0.6338,-0.6338,-0.6338,-0.6338,-0.6338,-0.6338,-0.6338,-0.6338,-0.6338,-0.6203,-0.6087,0.0,0.0,0.0,0.0,0.0,0.0,-0.2331,-0.1704,-0.1345,-0.0628,-0.0179,0.0,0.0,0.0,-0.0,0.0,0.0,-0.0,0.0,0.0,0.0,-0.0,-0.0,-0.0,-0.0,-0.0,-0.0,-0.0,-0.0,-0.0,-0.0,-0.0,-0.0,-0.0,0.0,0.0,0.0,0.0,0.0,0.0,0.0,0.06,0.2804,0.4225,0.5557,0.719,0.6348,0.5929,0.7666,0.7965,0.7955,0.8041,0.813,0.8153,0.8052,0.813,0.8153,0.8052,0.8038,0.8038,0.8038,0.8038,0.0,0.8038,0.8038,0.8038,0.8038,0.8038,0.8038,0.8038,0.8038,0.8038,0.8038,0.8038,0.8092,0.8187,0.8085,0.8096,0.8194,0.8194,0.8333,0.8567,0.8615,0.8693,0.8791,0.8842,0.8862,0.8879,0.9025,0.9083,0.9117,0.0,0.0,0.0,0.0,0.0,0.0,0.0,0.0,0.0,0.0,0.0,0.0,0.0,0.0,0.0,-0.6338,-0.6338,-0.6338,-0.6338,-0.6338,-0.6338,-0.6338,-0.6342,-0.6332,-0.6468,0.0,0.0,0.0,0.0,0.0,0.0,0.0,-0.2419,-0.1433,-0.0896,-0.0448,-0.0,0.0,-0.0,-0.0,0.0,-0.0,-0.0,0.0,0.0,-0.0,-0.0,-0.0,-0.0,-0.0,-0.0,-0.0,-0.0,-0.0,-0.0,-0.0,-0.0,-0.0,0.0,0.0,0.0,0.0,0.0,0.0,-0.0,0.0,0.0589,0.2654,0.4478,0.5734,0.6342,0.7241,0.7945,0.7962,0.7952,0.8038,0.8038,0.8038,0.8038,0.8038,0.8038,0.8038,0.8038,0.8038,0.8038,0.8038,0.8038,0.8038,0.8038,0.8038,0.8038,0.8038,0.8038,0.8038,0.8038,0.8038,0.8038,0.8038,0.8038,0.8038,0.8038,0.8038,0.8038,0.8038,0.8038,0.8126,0.8275,0.8418,0.8479,0.8499,0.8652,0.871,0.873,0.8882,0.894,0.896,0.0,0.0,0.0,0.0,0.0,0.0,0.0,0.0,0.0,0.0,0.0,0.0,0.0,0.0,-0.6338,-0.6338,-0.6338,-0.6338,-0.6338,-0.6338,-0.6338,-0.6338,-0.6359,-0.643,-0.6471,0.0,0.0,0.0,0.0,0.0,0.0,0.0,0.0,0.0,-0.1069,-0.0445,-0.0,-0.0,0.0,-0.0,-0.0,-0.0,0.0,0.0,0.0,-0.0,-0.0,-0.0,-0.0,-0.0,-0.0,-0.0,-0.0,-0.0,-0.0,-0.0,-0.0,-0.0,-0.0,0.0,0.0,0.0,0.0,0.0,0.0,0.0,0.0193,0.0783,0.3448,0.5736,0.6129,0.6883,0.7505,0.7801,0.797,0.8038,0.8038,0.8038,0.8038,0.8038,0.8038,0.8038,0.8038,0.8038,0.8038,0.0,0.8038,0.8038,0.8038,0.8038,0.8038,0.8038,0.8038,0.8038,0.8038,0.8038,0.8038,0.8038,0.8038,0.8038,0.8038,0.8038,0.8038,0.8038,0.8038,0.8065,0.8116,0.8265,0.8387,0.8499,0.8652,0.871,0.873,0.8882,0.894,0.896,0.0,0.0,0.0,0.0,0.0,0.0,0.0,0.0,0.0,0.0,0.0,0.0,0.0,0.0,-0.6338,-0.6338,-0.6338,-0.6338,-0.6338,-0.6338,-0.6338,-0.6338,-0.6396,-0.6502,-0.6566,0.0,0.0,0.0,0.0,0.0,0.0,0.0,0.0,0.0,0.0,0.0,0.0,0.0,0.0,0.0,-0.0,0.0,0.0,-0.0,-0.0,0.0,-0.0,-0.0,-0.0,-0.0,-0.0,-0.0,-0.0,-0.0,-0.0,-0.0,-0.0,-0.0,-0.0,-0.0,-0.0,-0.0,0.0,0.0,-0.0,-0.0,-0.0,0.0,0.2022,0.4357,0.5815,0.654,0.7061,0.7717,0.7885,0.7967,0.8031,0.8038,0.8038,0.8038,0.8038,0.8038,0.8038,0.8038,0.8038,0.8038,0.8038,0.8038,0.8038,0.8038,0.8038,0.8038,0.8038,0.8038,0.8038,0.8038,0.8038,0.8038,0.8038,0.8038,0.8038,0.8038,0.8038,0.8038,0.8038,0.8038,0.8045,0.8136,0.8221,0.8319,0.8533,0.8615,0.8642,0.8859,0.894,0.895,0.0,0.0,0.0,0.0,0.0,0.0,0.0,0.0,0.0,0.0,0.0,0.0,0.0,0.0,0.0,0.0,-0.6349,-0.6338,-0.6338,-0.6338,-0.6345,-0.6285,-0.642,-0.6569,-0.6722,-0.679,0.0,0.0,0.0,0.0,0.0,0.0,0.0,0.0,0.0,0.0,0.0,0.0,0.0,-0.0,-0.0,-0.0,0.0,0.0,-0.0,-0.0,-0.0,-0.0,-0.0,-0.0,-0.0,-0.0,-0.0,-0.0,-0.0,-0.0,-0.0,-0.0,-0.0,-0.0,-0.0,-0.0,-0.0,0.0,-0.0,-0.0,-0.0,0.0,0.0749,0.2177,0.5124,0.6078,0.6676,0.7452,0.7691,0.7768,0.8018,0.8038,0.8038,0.8038,0.8038,0.8038,0.8038,0.8038,0.8038,0.8038,0.8038,0.8038,0.8038,0.8038,0.8038,0.8038,0.8038,0.8038,0.8038,0.8038,0.8038,0.8038,0.8038,0.8038,0.8038,0.8038,0.8038,0.8038,0.8038,0.8038,0.8038,0.8038,0.8038,0.8069,0.835,0.8469,0.8516,0.8808,0.8923,0.894,-0.7139,0.0,0.0,0.0,0.0,0.0,0.0,0.0,0.0,0.0,0.0,0.0,0.0,0.0,0.0,0.0,-0.6325,-0.6338,-0.6338,-0.6338,-0.6312,-0.6427,-0.6576,-0.6725,-0.6881,-0.6857,0.0,0.0,0.0,0.0,0.0,0.0,0.0,0.0,0.0,0.0,0.0,0.0,0.0,-0.0,-0.0,-0.0,-0.0,-0.0,-0.0,-0.0,-0.0,-0.0,-0.0,-0.0,-0.0,-0.0,-0.0,-0.0,-0.0,-0.0,-0.0,-0.0,-0.0,-0.0,-0.0,-0.0,-0.0,0.0,-0.0,-0.0,-0.0,0.0,0.0463,0.13,0.2693,0.4418,0.5769,0.598,0.6703,0.7375,0.7918,0.8038,0.8038,0.8038,0.8038,0.8038,0.8038,0.8038,0.8038,0.8038,0.8038,0.8038,0.8038,0.8038,0.8038,0.8038,0.8038,0.8038,0.8038,0.8038,0.8038,0.8038,0.8038,0.8038,0.8038,0.8038,0.8038,0.8038,0.8038,0.8038,0.8038,0.8038,0.8038,0.8058,0.8241,0.8381,0.8506,0.8686,0.8832,0.894,-0.7139,0.0,0.0,0.0,0.0,0.0,0.0,0.0,0.0,0.0,0.0,0.0,0.0,0.0,0.0,0.0,-0.6407,-0.6335,-0.6268,-0.6329,-0.6396,-0.6468,-0.6692,-0.6851,-0.6926,-0.6809,-0.6689,0.0,0.0,0.0,0.0,0.0,0.0,0.0,0.0,0.0,0.0,0.0,-0.0,-0.0,-0.0,0.0,-0.0,-0.0,-0.0,-0.0,-0.0,-0.0,-0.0,-0.0,-0.0,-0.0,-0.0,-0.0,-0.0,-0.0,-0.0,-0.0,-0.0,-0.0,-0.0,-0.0,-0.0,0.0,0.0,-0.0,-0.0,-0.0,0.0182,0.0637,0.1637,0.284,0.4057,0.5257,0.5996,0.6688,0.7411,0.775,0.8011,0.7933,0.7994,0.8011,0.7933,0.7994,0.8038,0.8038,0.8038,0.8038,0.8038,0.8038,0.8038,0.8038,0.8038,0.8038,0.8038,0.8038,0.8038,0.8038,0.8038,0.8038,0.8038,0.8038,0.8038,0.8038,0.8038,0.8038,0.8038,0.8038,0.8038,0.8055,0.8211,0.8316,0.8404,0.8628,0.876,0.8835,-0.7139,0.0,0.0,0.0,0.0,0.0,0.0,0.0,0.0,0.0,0.0,0.0,0.0,0.0,0.0,-0.6607,-0.6522,-0.6451,-0.6393,-0.6468,-0.6529,-0.6559,-0.6797,-0.6943,-0.697,-0.6822,-0.6492,-0.6074,0.0,0.0,0.0,0.0,0.0,0.0,0.0,0.0,0.0,0.0,0.0,-0.0,0.0,-0.0,-0.0,-0.0,-0.0,-0.0,-0.0,-0.0,-0.0,-0.0,-0.0,-0.0,-0.0,-0.0,-0.0,-0.0,-0.0,-0.0,-0.0,-0.0,-0.0,-0.0,-0.0,-0.0,0.0,0.0,0.0,-0.0,0.0,0.0,0.0986,0.0,0.0,0.43,0.0,0.0,0.0,0.7298,0.0,0.7824,0.7896,0.7929,0.7862,0.7967,0.8038,0.8038,0.8038,0.8038,0.8038,0.8038,0.8038,0.8038,0.8038,0.8038,0.8038,0.8038,0.8038,0.8038,0.8038,0.8038,0.8038,0.8038,0.8038,0.8038,0.8038,0.8038,0.8038,0.8038,0.8038,0.8052,0.8177,0.8245,0.8303,0.8567,0.8686,0.873,-0.7139,-0.7139,0.0,0.0,0.0,0.0,0.0,0.0,0.0,0.0,0.0,0.0,0.0,-0.6858,-0.68,-0.7044,-0.6702,-0.658,-0.6834,-0.6742,-0.6736,-0.6871,-0.6909,-0.6987,-0.7112,-0.6688,-0.6271,-0.5952,0.0,0.0,0.0,0.0,0.0,0.0,-0.1787,0.0,0.0,0.0,-0.0,0.0,-0.0,-0.0,0.0,-0.0,-0.0,-0.0,-0.0,-0.0,-0.0,-0.0,-0.0,-0.0,-0.0,-0.0,-0.0,-0.0,-0.0,-0.0,-0.0,-0.0,-0.0,-0.0,-0.0,-0.0,-0.0,0.0,-0.0,-0.0,0.0,-0.0,0.018,0.0,0.0,0.0,0.0,0.0,0.5639,0.6315,0.692,0.7701,0.7716,0.7746,0.7991,0.8028,0.8038,0.8038,0.8038,0.8038,0.8038,0.8038,0.8038,0.8038,0.8038,0.8038,0.8038,0.8038,0.8038,0.8038,0.8038,0.8038,0.8038,0.8038,0.8038,0.8038,0.8038,0.8038,0.8038,0.8038,0.8038,0.8041,0.8058,0.815,0.8289,0.8448,0.8594,0.873,-0.7139,-0.7139,0.0,0.0,0.0,0.0,0.0,0.0,0.0,0.0,0.0,0.0,-0.7258,-0.7163,-0.7102,-0.7136,-0.6966,-0.6841,-0.68,-0.682,-0.6861,-0.6926,-0.7007,-0.7078,-0.7139,-0.6789,-0.637,-0.5723,-0.4901,0.0,0.0,0.0,0.0,0.0,-0.1606,0.0,-0.0,0.0,-0.0,0.0,0.0,-0.0,0.0,-0.0,-0.0,-0.0,-0.0,-0.0,-0.0,0.0,-0.0,-0.0,-0.0,-0.0,-0.0,-0.0,-0.0,-0.0,-0.0,-0.0,-0.0,-0.0,-0.0,-0.0,-0.0,-0.0,-0.0,-0.0,0.0,0.0,0.0,0.0,0.0,0.0,0.2345,0.3353,0.0,0.0,0.6009,0.7166,0.0,0.0,0.8021,0.8038,0.8038,0.8038,0.8038,0.8038,0.8038,0.8038,0.8038,0.8038,0.8038,0.8038,0.8038,0.8038,0.8038,0.8038,0.8038,0.8038,0.8038,0.8038,0.8038,0.8038,0.8038,0.8038,0.8038,0.8038,0.8038,0.8038,0.8038,0.8079,0.8153,0.8303,0.8452,0.8601,-0.7139,-0.7139,-0.7139,0.0,0.0,0.0,0.0,0.0,0.0,0.0,0.0,0.0,-0.7353,-0.7333,-0.7312,-0.7322,-0.7251,-0.7129,-0.6959,-0.7014,-0.7031,-0.699,-0.7085,-0.7139,-0.7139,-0.6881,-0.6392,-0.56,-0.4901,0.0,0.0,0.0,0.0,0.0,0.0,-0.0628,-0.0,0.0,-0.0,-0.0,-0.0,-0.0,-0.0,-0.0,-0.0,-0.0,-0.0,-0.0,-0.0,-0.0,-0.0,0.0,-0.0,-0.0,-0.0,-0.0,-0.0,-0.0,-0.0,-0.0,-0.0,-0.0,-0.0,-0.0,-0.0,-0.0,-0.0,-0.0,-0.0,0.0,0.0,0.0,0.0181,0.0905,0.0,0.2149,0.0,0.4028,0.0,0.0,0.0,0.0,0.0,0.7919,0.7936,0.7974,0.794,0.7936,0.7974,0.7977,0.7994,0.8038,0.8038,0.8038,0.8038,0.8038,0.8038,0.8038,0.7997,0.7997,0.8038,0.7994,0.7997,0.8038,0.8038,0.8038,0.8038,0.8038,0.8038,0.8038,0.8038,0.8038,0.8058,0.8214,0.836,0.8503,-0.7139,-0.7139,-0.7139,0.0,0.0,0.0,0.0,0.0,0.0,0.0,0.0,-0.72,-0.7353,-0.7238,-0.7319,-0.7753,-0.7529,-0.7421,-0.756,-0.7438,-0.7288,-0.7139,-0.7139,-0.7139,-0.7139,-0.6881,-0.6435,-0.5714,-0.4739,0.0,0.0,0.0,0.0,0.0,0.0,-0.0,-0.0,-0.0,-0.0,-0.0,-0.0,-0.0,-0.0,0.0,-0.0,-0.0,-0.0,0.0,0.0,-0.0,-0.0,0.0,0.0,0.0,0.0,-0.0,-0.0,-0.0,-0.0,-0.0,-0.0,-0.0,-0.0,-0.0,-0.0,-0.0,-0.0,-0.0,-0.0,-0.0,-0.0,-0.0,-0.0,-0.0,0.0818,0.0,0.0,0.2776,0.397,0.5705,0.6662,0.0,0.0,0.7614,0.7672,0.7807,0.7692,0.7675,0.7811,0.7818,0.7885,0.8035,0.8038,0.8038,0.8038,0.8038,0.8038,0.8038,0.7889,0.7896,0.8035,0.7885,0.7899,0.8038,0.8038,0.8038,0.8038,0.8038,0.8038,0.8038,0.8038,0.8038,0.8058,0.8214,0.836,0.8503,0.0,-0.7139,-0.7139,0.0,0.0,0.0,0.0,-0.7292,0.0,-0.756,-0.7584,-0.7682,-0.794,-0.7828,-0.7797,-0.795,-0.7777,-0.7645,-0.7604,-0.7455,-0.735,-0.7295,-0.7193,-0.7139,-0.7139,-0.7054,-0.6609,-0.5719,-0.5099,0.0,0.0,0.0,0.0,0.0,0.0,-0.0,0.0,0.0,0.0,0.0,0.0,-0.0,-0.0,0.0,-0.0,-0.0,-0.0,-0.0,0.0,-0.0,-0.0,-0.0,-0.0,-0.0,-0.0,-0.0,-0.0,-0.0,0.0,0.0,-0.0,-0.0,0.0,-0.0,-0.0,-0.0,-0.0,-0.0,-0.0,-0.0,-0.0,-0.0,-0.0,-0.0,0.0552,0.1002,0.0,0.224,0.3502,0.4701,0.607,0.7018,0.0,0.0,0.7617,0.7668,0.7628,0.7662,0.7804,0.7811,0.7882,0.8035,0.8038,0.8038,0.8038,0.794,0.7889,0.7885,0.774,0.7699,0.775,0.779,0.7838,0.7892,0.7994,0.8038,0.8038,0.8038,0.8038,0.8038,0.8038,0.8038,0.8045,0.8099,0.8214,0.8377,-0.7149,-0.7139,0.0,0.0,0.0,0.0,0.0,0.0,-0.7597,-0.7787,-0.7858,-0.7991,-0.8241,-0.818,-0.8143,-0.8191,-0.8058,-0.7913,-0.7767,-0.7611,-0.7506,-0.7455,-0.7305,-0.7221,-0.7221,-0.7081,-0.6609,-0.5719,-0.5097,-0.4387,0.0,0.0,0.0,0.0,0.0,-0.0,-0.0,-0.0,-0.0,0.0,0.0,-0.0,0.0,0.0,-0.0,-0.0,0.0,-0.0,-0.0,-0.0,-0.0,-0.0,-0.0,-0.0,-0.0,-0.0,-0.0,-0.0,-0.0,-0.0,0.0,-0.0,-0.0,0.0,-0.0,-0.0,-0.0,-0.0,-0.0,-0.0,-0.0,-0.0,-0.0,-0.0,0.0279,0.0551,0.0,0.1792,0.2688,0.3673,0.525,0.6436,0.6938,0.7188,0.7369,0.7516,0.7468,0.7522,0.0,0.7736,0.7828,0.8031,0.8038,0.8038,0.8038,0.7889,0.7811,0.7811,0.7611,0.7546,0.7604,0.7695,0.7763,0.7821,0.7974,0.8038,0.8038,0.8038,0.8038,0.8038,0.8038,0.8038,0.8038,0.8038,0.8136,0.8306,0.0,0.0,0.0,0.0,-0.7278,0.0,0.0,0.0,-0.7831,-0.7855,-0.7987,-0.8143,-0.8296,-0.8299,-0.8347,-0.8482,-0.8357,-0.8208,-0.8062,-0.7899,-0.775,-0.7614,-0.7465,-0.7383,-0.7383,-0.7055,-0.6447,-0.573,0.0,0.0,0.0,0.0,0.0,0.0,-0.0,0.0,-0.0,-0.0,-0.0,-0.0,-0.0,-0.0,-0.0,-0.0,-0.0,-0.0,-0.0,-0.0,-0.0,-0.0,-0.0,-0.0,-0.0,-0.0,-0.0,-0.0,-0.0,-0.0,-0.0,-0.0,-0.0,-0.0,-0.0,0.0,0.0,0.0,-0.0,-0.0,-0.0,-0.0,-0.0,-0.0,-0.0,-0.0,-0.0,0.0276,0.1169,0.1345,0.1793,0.2688,0.4297,0.5592,0.6524,0.6693,0.6939,0.735,0.7224,0.7275,0.0,0.76,0.7736,0.8031,0.8038,0.8038,0.8038,0.7882,0.7801,0.7797,0.7502,0.7438,0.7577,0.7594,0.7675,0.7811,0.797,0.8038,0.8038,0.8038,0.8038,0.8038,0.8038,0.8038,0.8038,0.8038,0.8136,0.8289,-0.7319,-0.7312,-0.7346,0.0,-0.7421,-0.7444,0.0,0.0,0.0,-0.8435,-0.8611,-0.8764,-0.891,-0.873,-0.8611,-0.8648,-0.8418,-0.8255,-0.8214,-0.796,-0.7794,-0.7756,-0.7617,-0.7543,-0.7543,-0.7394,-0.6956,-0.633,-0.5141,0.0,-0.4045,0.0,0.0,0.0,0.0,0.0,-0.0,-0.0,-0.0,-0.0,-0.0,-0.0,-0.0,0.0,-0.0,-0.0,-0.0,-0.0,-0.0,-0.0,-0.0,-0.0,-0.0,-0.0,-0.0,-0.0,-0.0,-0.0,-0.0,-0.0,-0.0,-0.0,-0.0,-0.0,0.0,0.0,0.0,0.0,-0.0,-0.0,-0.0,-0.0,-0.0,-0.0,-0.0,0.0092,0.036,0.0987,0.1524,0.1793,0.2867,0.4127,0.5589,0.61,0.6361,0.6659,0.6811,0.7005,0.7292,0.0,0.7736,0.8031,0.8038,0.8038,0.8038,0.7784,0.7655,0.7651,0.7346,0.7221,0.7265,0.7495,0.7617,0.7668,0.7926,0.8038,0.8038,0.8038,0.8038,0.8038,0.8038,0.8038,0.8038,0.8038,0.8136,0.8275,-0.7485,0.0,0.0,-0.7678,0.0,0.0,-0.7987,-0.8136,0.0,-0.8669,-0.8784,-0.8869,-0.895,-0.8872,-0.8811,-0.8811,-0.8537,-0.8364,-0.8364,-0.8079,-0.7913,-0.7913,-0.777,-0.7692,-0.7692,-0.7396,-0.7021,-0.648,-0.4795,0.0,-0.423,0.0,0.0,0.0,0.0,-0.0,-0.0,-0.0,-0.0,-0.0,-0.0,-0.0,0.0,-0.0,-0.0,-0.0,-0.0,-0.0,-0.0,-0.0,-0.0,-0.0,-0.0,-0.0,-0.0,-0.0,-0.0,-0.0,-0.0,-0.0,-0.0,-0.0,-0.0,-0.0,-0.0,-0.0,-0.0,0.0,-0.0,-0.0,0.0,-0.0,-0.0,-0.0,-0.0,-0.0,-0.0,0.0461,0.0919,0.1366,0.1909,0.2714,0.3941,0.5099,0.5905,0.6257,0.6615,0.0,0.0,0.0,0.7702,0.7933,0.8004,0.8038,0.8038,0.7807,0.7662,0.7597,0.7356,0.7207,0.7149,0.739,0.7536,0.7611,0.7841,0.7977,0.8038,0.8038,0.8038,0.8038,0.8038,0.8038,0.8038,0.8038,0.8096,0.817,-0.7651,0.0,0.0,0.0,0.0,0.0,0.0,-0.8492,0.0,-0.8777,0.0,-0.8798,-0.8798,-0.8882,-0.894,-0.894,-0.8676,-0.8503,-0.8482,-0.8225,-0.8062,-0.8038,-0.7913,-0.7841,-0.7841,-0.7379,-0.6777,-0.6129,-0.408,-0.323,0.0,0.0,0.0,0.0,0.0,0.0,0.0,-0.0,-0.0,-0.0,-0.0,-0.0,-0.0,-0.0,-0.0,-0.0,-0.0,-0.0,-0.0,-0.0,-0.0,-0.0,-0.0,-0.0,-0.0,-0.0,-0.0,-0.0,-0.0,-0.0,-0.0,-0.0,-0.0,-0.0,-0.0,-0.0,-0.0,-0.0,-0.0,-0.0,-0.0,-0.0,-0.0,-0.0,-0.0,-0.0,-0.0,-0.0,0.0284,0.1117,0.1298,0.0,0.2253,0.4036,0.5371,0.5816,0.626,0.0,0.0,0.0,0.7452,0.7707,0.7841,0.7918,0.7939,0.7788,0.7558,0.7435,0.7362,0.7212,0.7084,0.7309,0.7455,0.7607,0.775,0.7896,0.8038,0.8038,0.8038,0.8038,0.8038,0.8038,0.8038,0.8038,0.8038,0.8038,0.0,0.0,0.0,0.0,0.0,-0.8716,-0.896,-0.9018,-0.9089,-0.9242,-0.9262,-0.9262,-0.9262,-0.9069,-0.894,-0.894,-0.8774,-0.8618,-0.8489,-0.8323,-0.8174,-0.8045,-0.8014,-0.7997,-0.7997,-0.7726,-0.6529,-0.4442,-0.3832,-0.2511,-0.0719,0.0,0.0,0.0,0.0,0.0,-0.0,-0.0,0.0,-0.0,-0.0,-0.0,-0.0,-0.0,-0.0,-0.0,-0.0,-0.0,-0.0,-0.0,-0.0,-0.0,-0.0,-0.0,-0.0,-0.0,-0.0,-0.0,-0.0,-0.0,-0.0,-0.0,-0.0,-0.0,-0.0,-0.0,-0.0,-0.0,-0.0,-0.0,-0.0,0.0,-0.0,-0.0,-0.0,-0.0,-0.0,-0.0,0.0095,0.019,0.0935,0.1478,0.1565,0.2988,0.4123,0.4567,0.501,0.0,0.0,0.0,0.6502,0.0,0.7252,0.0,0.0,0.0,0.6927,0.6426,0.6662,0.6715,0.669,0.7177,0.7455,0.7607,0.775,0.7896,0.8038,0.8038,0.8038,0.8038,0.8038,0.8038,0.8038,0.8038,0.8038,0.8038,0.0,0.0,0.0,0.0,0.0,0.0,0.0,-0.9218,-0.9269,-0.9262,-0.913,-0.9032,-0.9032,-0.8977,-0.894,-0.894,-0.8726,-0.856,-0.8486,-0.8272,-0.8116,-0.8041,-0.8038,-0.8045,-0.7955,-0.788,-0.7292,-0.6104,-0.3129,-0.1173,-0.0,0.0,0.0,0.0,0.0,-0.0,0.0,0.0,0.0,-0.0,-0.0,-0.0,-0.0,-0.0,-0.0,-0.0,-0.0,-0.0,-0.0,-0.0,-0.0,-0.0,-0.0,-0.0,-0.0,-0.0,-0.0,-0.0,-0.0,-0.0,-0.0,-0.0,-0.0,-0.0,-0.0,-0.0,-0.0,-0.0,-0.0,-0.0,-0.0,-0.0,0.0,0.0,-0.0,-0.0,-0.0,-0.0,-0.0,-0.0,0.038,0.0842,0.1389,0.1815,0.2598,0.3674,0.4297,0.0,0.0,0.0,0.5704,0.0,0.0,0.0,0.6745,0.0,0.6524,0.6274,0.6443,0.6638,0.6852,0.7152,0.724,0.7353,0.7634,0.7855,0.7965,0.7965,0.7965,0.7965,0.7959,0.7955,0.7955,0.8045,0.8038,0.8038,0.0,-0.8089,0.0,0.0,-0.8608,-0.8893,-0.9161,-0.9334,-0.9388,-0.9266,-0.8991,-0.8804,-0.8804,-0.8886,-0.894,-0.894,-0.8689,-0.8516,-0.8482,-0.8235,-0.8075,-0.8048,-0.8045,-0.7955,-0.7975,-0.8032,-0.7955,-0.7955,-0.2598,-0.0,-0.0,-0.0,0.0,0.0,0.0,0.0,0.0,0.0,-0.0,-0.0,-0.0,-0.0,-0.0,-0.0,-0.0,-0.0,-0.0,-0.0,-0.0,-0.0,-0.0,-0.0,-0.0,-0.0,-0.0,-0.0,-0.0,-0.0,-0.0,-0.0,-0.0,-0.0,-0.0,-0.0,-0.0,-0.0,-0.0,-0.0,-0.0,-0.0,-0.0,-0.0,0.0,0.0,-0.0,-0.0,-0.0,-0.0,-0.0,-0.0,-0.0,0.0284,0.1026,0.0819,0.1345,0.278,0.3585,0.0,0.4474,0.0,0.0,0.0,0.0,0.5532,0.625,0.0,0.5805,0.5527,0.5503,0.5741,0.6138,0.6298,0.6364,0.6377,0.6669,0.6952,0.7166,0.7166,0.7166,0.7166,0.7156,0.7463,0.7975,0.7955,0.8048,0.8048,0.0,0.0,0.0,0.0,0.0,-0.9167,-0.9334,-0.949,-0.9585,-0.9568,-0.93,-0.9113,-0.9113,-0.9008,-0.894,-0.894,-0.8784,-0.8628,-0.8489,-0.8336,-0.8194,-0.7975,-0.7969,-0.7975,-0.7989,-0.7953,-0.8018,-0.8002,-0.2615,-0.0,-0.0,-0.0,-0.0,0.0,0.0,0.0,0.0,-0.0,-0.0,-0.0,-0.0,-0.0,-0.0,-0.0,-0.0,-0.0,-0.0,-0.0,-0.0,-0.0,-0.0,-0.0,-0.0,-0.0,-0.0,-0.0,-0.0,-0.0,-0.0,-0.0,-0.0,-0.0,-0.0,-0.0,-0.0,-0.0,-0.0,-0.0,-0.0,-0.0,-0.0,-0.0,-0.0,0.0,-0.0,-0.0,-0.0,-0.0,-0.0,-0.0,-0.0,-0.0,0.0095,0.0459,0.0987,0.1524,0.2512,0.0,0.0,0.0,0.0,0.3801,0.3878,0.4552,0.5658,0.4742,0.3728,0.2816,0.2765,0.2835,0.2828,0.3631,0.3929,0.391,0.4001,0.4143,0.442,0.442,0.442,0.442,0.4418,0.5839,0.7989,0.7985,0.7985,0.7985,0.0,0.0,0.0,0.0,0.0,0.0,0.0,-0.9415,-0.9367,-0.9459,-0.9286,-0.912,-0.9032,-0.8974,-0.8903,-0.8811,-0.8662,-0.8513,-0.8364,-0.8228,-0.813,-0.7975,-0.6442,-0.635,-0.8009,-0.7974,-0.6415,-0.3162,-0.1053,-0.0,-0.0,-0.0,-0.0,0.0,0.0,-0.0,-0.0,-0.0,-0.0,-0.0,-0.0,-0.0,-0.0,-0.0,-0.0,-0.0,-0.0,-0.0,-0.0,-0.0,-0.0,-0.0,-0.0,-0.0,-0.0,-0.0,-0.0,-0.0,-0.0,-0.0,-0.0,-0.0,-0.0,-0.0,-0.0,-0.0,-0.0,-0.0,-0.0,-0.0,-0.0,-0.0,-0.0,-0.0,0.0,-0.0,-0.0,-0.0,-0.0,-0.0,-0.0,-0.0,-0.0,0.0184,0.0359,0.0539,0.0,0.0,0.0,0.0,0.0,0.2285,0.0,0.2971,0.4144,0.3739,0.2625,0.1009,0.1001,0.0997,0.0997,0.127,0.1458,0.147,0.1487,0.15,0.1611,0.1611,0.1611,0.1611,0.1608,0.2211,0.3419,0.5031,0.5634,0.5839,-0.8598,0.0,-0.8838,0.0,-0.9191,-0.9344,-0.9517,-0.9398,-0.9293,-0.931,-0.9218,-0.9096,-0.8954,-0.894,-0.8876,-0.8723,-0.8577,-0.8431,-0.8286,-0.8153,-0.7982,-0.7989,-0.615,-0.5345,-0.5667,-0.5695,-0.3778,-0.0,-0.0,-0.0,-0.0,-0.0,0.0,0.0,-0.0,-0.0,-0.0,-0.0,-0.0,-0.0,-0.0,-0.0,-0.0,-0.0,-0.0,-0.0,-0.0,-0.0,-0.0,-0.0,-0.0,-0.0,-0.0,-0.0,-0.0,-0.0,-0.0,-0.0,-0.0,-0.0,-0.0,-0.0,-0.0,-0.0,-0.0,-0.0,-0.0,-0.0,-0.0,-0.0,-0.0,-0.0,-0.0,-0.0,0.0,-0.0,-0.0,-0.0,-0.0,-0.0,-0.0,-0.0,-0.0,-0.0,-0.0,0.0,0.0,0.0,0.0,0.0,0.0,0.0,0.0,0.0,0.2224,0.2224,0.1516,-0.0,-0.0,-0.0,-0.0,-0.0,-0.0,-0.0,-0.0,-0.0,-0.0,-0.0,-0.0,-0.0,-0.0,-0.0,0.0201,0.2111,0.3318,0.4431,-0.8872,-0.8933,-0.9028,-0.9323,-0.9503,-0.9554,-0.9405,-0.951,-0.9496,-0.9195,-0.9154,-0.9096,-0.8954,-0.894,-0.8876,-0.8723,-0.8591,-0.8556,-0.8299,-0.8062,-0.8002,0.0,0.0,-0.5464,-0.0202,-0.0101,-0.01,-0.0,-0.0,-0.0,-0.0,-0.0,-0.0,-0.0,-0.0,-0.0,-0.0,-0.0,-0.0,-0.0,-0.0,-0.0,-0.0,-0.0,-0.0,-0.0,-0.0,-0.0,-0.0,-0.0,-0.0,-0.0,-0.0,-0.0,-0.0,-0.0,-0.0,-0.0,-0.0,-0.0,-0.0,-0.0,-0.0,-0.0,-0.0,-0.0,-0.0,-0.0,-0.0,-0.0,-0.0,-0.0,-0.0,-0.0,0.0,0.0,-0.0,-0.0,-0.0,-0.0,-0.0,-0.0,-0.0,-0.0,-0.0,0.0,0.0,0.0,0.0,0.0,0.0,-0.0,-0.0,0.0,-0.0,-0.0,-0.0,-0.0,-0.0,-0.0,-0.0,-0.0,-0.0,-0.0,-0.0,-0.0,-0.0,-0.0,-0.0,-0.0,-0.0,-0.0,-0.0,-0.0,0.1718,0.4356,-0.892,-0.9103,-0.9269,-0.9364,-0.9588,-0.9703,-0.9557,-0.949,-0.9381,-0.9178,-0.9079,-0.9011,-0.8856,-0.8853,-0.8859,0.0,-0.8557,-0.7679,0.0,-0.6997,-0.8019,-0.8026,-0.4448,-0.1716,-0.0,-0.0,-0.0,-0.0,0.0,0.0,0.0,-0.0,-0.0,-0.0,-0.0,-0.0,-0.0,-0.0,-0.0,-0.0,-0.0,-0.0,-0.0,-0.0,-0.0,-0.0,-0.0,-0.0,-0.0,-0.0,-0.0,-0.0,-0.0,-0.0,-0.0,-0.0,-0.0,-0.0,-0.0,-0.0,-0.0,-0.0,-0.0,-0.0,-0.0,-0.0,-0.0,-0.0,-0.0,-0.0,-0.0,-0.0,-0.0,-0.0,-0.0,0.0,-0.0,-0.0,-0.0,-0.0,-0.0,-0.0,-0.0,-0.0,-0.0,0.0,0.0,0.0,0.0,0.0,0.0,0.0,-0.0,0.0,-0.0,-0.0,-0.0,-0.0,-0.0,-0.0,-0.0,-0.0,-0.0,-0.0,-0.0,-0.0,-0.0,-0.0,-0.0,-0.0,-0.0,-0.0,-0.0,-0.0,0.0505,0.1415,-0.9008,-0.9215,-0.9398,-0.9456,-0.9618,-0.9693,-0.9547,-0.9401,-0.9256,-0.9106,-0.9025,-0.8507,-0.7326,-0.8229,0.0,-0.714,-0.8008,-0.7789,-0.5658,-0.5151,-0.4956,-0.4956,-0.1817,-0.0,-0.0,-0.0,0.0,-0.0,-0.0,-0.0,-0.0,-0.0,-0.0,-0.0,-0.0,-0.0,-0.0,-0.0,-0.0,-0.0,-0.0,-0.0,-0.0,-0.0,-0.0,-0.0,-0.0,-0.0,-0.0,-0.0,-0.0,-0.0,-0.0,-0.0,-0.0,-0.0,-0.0,-0.0,-0.0,-0.0,-0.0,-0.0,-0.0,-0.0,-0.0,-0.0,-0.0,-0.0,-0.0,-0.0,-0.0,-0.0,-0.0,-0.0,-0.0,-0.0,-0.0,-0.0,-0.0,-0.0,-0.0,-0.0,0.0,-0.0,-0.0,0.0,0.0,0.0,0.0,0.0,-0.0,-0.0,-0.0,-0.0,-0.0,-0.0,-0.0,-0.0,-0.0,-0.0,-0.0,-0.0,-0.0,-0.0,-0.0,-0.0,-0.0,-0.0,-0.0,-0.0,-0.0,-0.0,-0.0,-0.0,-0.0,-0.0,-0.9113,-0.9269,-0.9425,0.0,-0.9602,-0.9557,-0.9408,-0.9273,-0.902,-0.8651,-0.8768,-0.782,-0.5144,-0.7245,-0.7747,-0.5002,0.0,0.0,-0.7525,-0.2726,-0.0,-0.0,-0.0,-0.0,-0.0,-0.0,-0.0,-0.0,-0.0,-0.0,-0.0,-0.0,-0.0,-0.0,-0.0,-0.0,-0.0,-0.0,-0.0,-0.0,-0.0,-0.0,-0.0,-0.0,-0.0,-0.0,-0.0,-0.0,-0.0,-0.0,-0.0,-0.0,-0.0,-0.0,-0.0,-0.0,-0.0,-0.0,-0.0,-0.0,-0.0,-0.0,-0.0,-0.0,-0.0,-0.0,-0.0,-0.0,-0.0,-0.0,-0.0,-0.0,-0.0,-0.0,-0.0,-0.0,-0.0,-0.0,-0.0,-0.0,0.0,0.0,-0.0,-0.0,-0.0,0.0,0.0,0.0,0.0,0.0,-0.0,-0.0,-0.0,-0.0,-0.0,-0.0,-0.0,-0.0,-0.0,-0.0,-0.0,-0.0,-0.0,-0.0,-0.0,-0.0,-0.0,-0.0,-0.0,-0.0,-0.0,-0.0,-0.0,-0.0,-0.0,-0.0,0.0,0.0,-0.9395,-0.9429,-0.9534,-0.9564,-0.9545,-0.9283,-0.8329,-0.5828,-0.7524,-0.8664,-0.7946,-0.8443,-0.8665,-0.7959,-0.4325,-0.2069,-0.1921,-0.0707,-0.0,-0.0,-0.0,-0.0,-0.0,-0.0,-0.0,-0.0,-0.0,-0.0,-0.0,-0.0,-0.0,-0.0,-0.0,-0.0,-0.0,-0.0,-0.0,-0.0,-0.0,-0.0,-0.0,-0.0,-0.0,-0.0,-0.0,-0.0,-0.0,-0.0,-0.0,-0.0,-0.0,-0.0,-0.0,-0.0,-0.0,-0.0,-0.0,-0.0,-0.0,-0.0,-0.0,-0.0,-0.0,-0.0,-0.0,-0.0,-0.0,-0.0,-0.0,-0.0,-0.0,-0.0,-0.0,-0.0,-0.0,-0.0,-0.0,0.0,-0.0,-0.0,-0.0,-0.0,-0.0,0.0,0.0,-0.0,-0.0,-0.0,-0.0,-0.0,-0.0,-0.0,-0.0,-0.0,-0.0,-0.0,-0.0,-0.0,-0.0,-0.0,-0.0,-0.0,-0.0,-0.0,-0.0,-0.0,-0.0,-0.0,-0.0,-0.0,-0.0,-0.0,-0.0,-0.0,-0.9025,-0.9222,-0.9384,-0.9395,-0.9466,-0.9479,-0.9466,-0.9208,-0.8398,-0.674,-0.7949,-0.8947,-0.8947,-0.6436,-0.4809,-0.4869,-0.1881,-0.0,-0.0,-0.0,-0.0,-0.0,-0.0,-0.0,-0.0,-0.0,-0.0,-0.0,-0.0,-0.0,-0.0,-0.0,-0.0,-0.0,-0.0,-0.0,-0.0,-0.0,-0.0,-0.0,-0.0,-0.0,-0.0,-0.0,-0.0,-0.0,-0.0,-0.0,-0.0,-0.0,-0.0,-0.0,-0.0,-0.0,-0.0,-0.0,-0.0,-0.0,-0.0,-0.0,-0.0,-0.0,-0.0,-0.0,-0.0,-0.0,-0.0,-0.0,-0.0,-0.0,-0.0,-0.0,-0.0,-0.0,0.2019,0.2827,0.0303,-0.0,-0.0,-0.0,-0.0,-0.0,-0.0,-0.0,-0.0,-0.0,-0.0,0.0,-0.0,-0.0,-0.0,-0.0,-0.0,-0.0,-0.0,-0.0,-0.0,-0.0,-0.0,-0.0,-0.0,-0.0,-0.0,-0.0,-0.0,-0.0,-0.0,-0.0,-0.0,-0.0,-0.0,-0.0,-0.0,-0.0,-0.0,-0.0,-0.9096,-0.9242,-0.9354,-0.9494,-0.9501,-0.9466,-0.9478,-0.9117,-0.8562,-0.7633,-0.7569,-0.7515,-0.7589,-0.3083,-0.0,-0.0,-0.0,-0.0,-0.0,-0.0,-0.0,-0.0,-0.0,-0.0,-0.0,-0.0,-0.0,-0.0,-0.0,-0.0,-0.0,-0.0,-0.0,-0.0,-0.0,-0.0,-0.0,-0.0,-0.0,-0.0,-0.0,-0.0,-0.0,-0.0,-0.0,-0.0,-0.0,-0.0,-0.0,-0.0,-0.0,-0.0,-0.0,-0.0,-0.0,-0.0,-0.0,-0.0,-0.0,-0.0,-0.0,-0.0,-0.0,-0.0,-0.0,-0.0,-0.0,-0.0,-0.0,-0.0,-0.0,-0.0,-0.0,-0.0,0.4144,0.5871,0.1817,0.0,0.0503,-0.0,-0.0,-0.0,-0.0,-0.0,-0.0,-0.0,-0.0,-0.0,-0.0,-0.0,-0.0,-0.0,-0.0,-0.0,-0.0,-0.0,-0.0,-0.0,-0.0,-0.0,-0.0,-0.0,-0.0,-0.0,-0.0,-0.0,-0.0,-0.0,-0.0,-0.0,-0.0,-0.0,-0.0,-0.0,-0.0,-0.0,-0.8967,-0.9089,-0.9195,-0.9218,-0.9222,-0.9346,-0.972,-0.9243,-0.7054,-0.2091,-0.1332,-0.1327,-0.1397,-0.0533,-0.0,-0.0,-0.0,-0.0,-0.0,-0.0,-0.0,-0.0,-0.0,-0.0,-0.0,-0.0,-0.0,-0.0,-0.0,-0.0,-0.0,-0.0,-0.0,-0.0,-0.0,-0.0,-0.0,-0.0,-0.0,-0.0,-0.0,-0.0,-0.0,-0.0,-0.0,-0.0,-0.0,-0.0,-0.0,-0.0,-0.0,-0.0,-0.0,-0.0,-0.0,-0.0,-0.0,-0.0,-0.0,-0.0,-0.0,-0.0,-0.0,-0.0,-0.0,-0.0,-0.0,-0.0,-0.0,-0.0,-0.0,-0.0,-0.0,-0.0,0.2223,0.4554,0.6486,0.0,0.2517,0.0302,-0.0,-0.0,-0.0,-0.0,-0.0,-0.0,-0.0,-0.0,-0.0,-0.0,-0.0,-0.0,-0.0,-0.0,-0.0,-0.0,-0.0,-0.0,-0.0,-0.0,-0.0,-0.0,-0.0,-0.0,-0.0,-0.0,-0.0,-0.0,-0.0,-0.0,-0.0,-0.0,-0.0,-0.0,-0.0,-0.0,-0.9039,-0.9117,-0.9178,-0.9319,-0.945,-0.8388,-0.5002,-0.4284,-0.3131,-0.0333,-0.0,-0.0,-0.0,-0.0,-0.0,-0.0,-0.0,-0.0,-0.0,-0.0,-0.0,-0.0,-0.0,-0.0,-0.0,-0.0,-0.0,-0.0,-0.0,-0.0,-0.0,-0.0,-0.0,-0.0,-0.0,-0.0,-0.0,-0.0,-0.0,-0.0,-0.0,-0.0,-0.0,-0.0,-0.0,-0.0,-0.0,-0.0,-0.0,-0.0,-0.0,-0.0,-0.0,-0.0,-0.0,-0.0,-0.0,-0.0,-0.0,-0.0,-0.0,-0.0,-0.0,-0.0,-0.0,-0.0,-0.0,-0.0,-0.0,-0.0,-0.0,-0.0,-0.0,-0.0,0.0807,0.2422,0.5061,0.5871,0.566,0.4438,0.1713,-0.0,-0.0,-0.0,-0.0,-0.0,-0.0,-0.0,-0.0,-0.0,-0.0,-0.0,-0.0,-0.0,-0.0,-0.0,-0.0,-0.0,-0.0,-0.0,-0.0,-0.0,-0.0,-0.0,-0.0,-0.0,-0.0,-0.0,-0.0,-0.0,-0.0,-0.0,-0.0,-0.0,-0.0,-0.0,-0.9083,-0.9123,-0.8911,-0.8354,-0.8957,-0.7425,-0.1011,-0.0,-0.0,-0.0,-0.0,-0.0,-0.0,-0.0,-0.0,-0.0,-0.0,-0.0,-0.0,-0.0,-0.0,-0.0,-0.0,-0.0,-0.0,-0.0,-0.0,-0.0,-0.0,-0.0,-0.0,-0.0,-0.0,-0.0,-0.0,-0.0,-0.0,-0.0,-0.0,-0.0,-0.0,-0.0,-0.0,-0.0,-0.0,-0.0,-0.0,-0.0,-0.0,-0.0,-0.0,-0.0,-0.0,-0.0,-0.0,-0.0,-0.0,-0.0,-0.0,-0.0,-0.0,-0.0,-0.0,-0.0,-0.0,-0.0,-0.0,-0.0,-0.0,-0.0,-0.0,-0.0,-0.0,-0.0,0.0,0.0604,0.2221,0.475,0.6888,0.7922,0.4345,0.1412,0.0101,-0.0,-0.0,-0.0,-0.0,-0.0,-0.0,-0.0,-0.0,-0.0,-0.0,-0.0,-0.0,-0.0,-0.0,-0.0,-0.0,-0.0,-0.0,-0.0,-0.0,-0.0,-0.0,-0.0,-0.0,-0.0,-0.0,-0.0,-0.0,-0.0,-0.0,-0.0,-0.0,-0.0,-0.8954,-0.8974,-0.8081,-0.5377,-0.7089,-0.6985,-0.0897,-0.0,-0.0,-0.0,-0.0,-0.0,-0.0,-0.0,-0.0,-0.0,-0.0,-0.0,-0.0,-0.0,-0.0,-0.0,-0.0,-0.0,-0.0,-0.0,-0.0,-0.0,-0.0,-0.0,-0.0,-0.0,-0.0,-0.0,-0.0,-0.0,-0.0,-0.0,-0.0,-0.0,-0.0,-0.0,-0.0,-0.0,-0.0,-0.0,-0.0,-0.0,-0.0,-0.0,-0.0,-0.0,-0.0,-0.0,-0.0,-0.0,-0.0,-0.0,-0.0,-0.0,-0.0,-0.0,-0.0,-0.0,-0.0,-0.0,-0.0,-0.0,-0.0,-0.0,-0.0,-0.0,-0.0,-0.0,0.0,0.0,0.0201,0.1308,0.3527,0.751,0.7613,0.5464,0.0505,-0.0,-0.0,-0.0,-0.0,-0.0,-0.0,-0.0,-0.0,-0.0,-0.0,-0.0,-0.0,-0.0,-0.0,-0.0,-0.0,-0.0,-0.0,-0.0,-0.0,-0.0,-0.0,-0.0,-0.0,-0.0,-0.0,-0.0,-0.0,-0.0,-0.0,-0.0,-0.0,-0.0,-0.8693,-0.8849,-0.852,-0.7433,-0.5086,-0.2661,-0.0336,-0.0,-0.0,-0.0,-0.0,-0.0,-0.0,-0.0,-0.0,-0.0,-0.0,-0.0,-0.0,-0.0,-0.0,-0.0,-0.0,-0.0,-0.0,-0.0,-0.0,-0.0,-0.0,-0.0,-0.0,-0.0,-0.0,-0.0,-0.0,-0.0,-0.0,-0.0,-0.0,-0.0,-0.0,-0.0,-0.0,-0.0,-0.0,-0.0,-0.0,-0.0,-0.0,-0.0,-0.0,-0.0,-0.0,-0.0,-0.0,-0.0,-0.0,-0.0,-0.0,-0.0,-0.0,-0.0,-0.0,-0.0,-0.0,-0.0,-0.0,-0.0,-0.0,-0.0,-0.0,-0.0,-0.0,-0.0,0.0,-0.0,-0.0,0.0303,0.121,0.282,0.3026,0.3536,0.4853,0.1918,-0.0,-0.0,-0.0,-0.0,-0.0,-0.0,-0.0,-0.0,-0.0,-0.0,-0.0,-0.0,-0.0,-0.0,-0.0,-0.0,-0.0,-0.0,-0.0,-0.0,-0.0,-0.0,-0.0,-0.0,-0.0,-0.0,-0.0,-0.0,-0.0,-0.0,-0.0,-0.0,-0.8598,-0.7998,-0.7793,-0.8773,-0.3974,-0.0,-0.0,-0.0,-0.0,-0.0,-0.0,-0.0,-0.0,-0.0,-0.0,-0.0,-0.0,-0.0,-0.0,-0.0,-0.0,-0.0,-0.0,-0.0,-0.0,-0.0,-0.0,-0.0,-0.0,-0.0,-0.0,-0.0,-0.0,-0.0,-0.0,-0.0,-0.0,-0.0,-0.0,-0.0,-0.0,-0.0,-0.0,-0.0,-0.0,-0.0,-0.0,-0.0,-0.0,-0.0,-0.0,-0.0,-0.0,-0.0,-0.0,-0.0,-0.0,-0.0,-0.0,-0.0,-0.0,-0.0,-0.0,-0.0,-0.0,-0.0,-0.0,-0.0,-0.0,-0.0,-0.0,-0.0,-0.0,-0.0,-0.0,-0.0,-0.0,-0.0,-0.0,-0.0,-0.0,0.1426,0.5101,0.2139,-0.0,-0.0,-0.0,-0.0,-0.0,-0.0,-0.0,-0.0,-0.0,-0.0,-0.0,-0.0,-0.0,-0.0,-0.0,-0.0,-0.0,-0.0,-0.0,-0.0,-0.0,-0.0,-0.0,-0.0,-0.0,-0.0,-0.0,-0.0,-0.0,-0.0,-0.0,0.0207,-0.8595,-0.6433,-0.5377,-0.831,-0.3924,-0.0,-0.0,-0.0,-0.0,-0.0,-0.0,-0.0,-0.0,-0.0,-0.0,-0.0,-0.0,-0.0,-0.0,-0.0,-0.0,-0.0,-0.0,-0.0,-0.0,-0.0,-0.0,-0.0,-0.0,-0.0,-0.0,-0.0,-0.0,-0.0,-0.0,-0.0,-0.0,-0.0,-0.0,-0.0,-0.0,-0.0,-0.0,-0.0,-0.0,-0.0,-0.0,-0.0,-0.0,-0.0,-0.0,-0.0,-0.0,-0.0,-0.0,-0.0,-0.0,-0.0,-0.0,-0.0,-0.0,-0.0,-0.0,-0.0,-0.0,-0.0,-0.0,-0.0,-0.0,-0.0,-0.0,-0.0,-0.0,-0.0,-0.0,-0.0,-0.0,-0.0,-0.0,-0.0,-0.0,-0.0,-0.0,-0.0,-0.0,-0.0,-0.0,-0.0,0.0104,0.0104,0.0104,-0.0,-0.0,-0.0,-0.0,-0.0,-0.0,-0.0,-0.0,-0.0,-0.0,-0.0,-0.0,-0.0,-0.0,-0.0,-0.0,-0.0,-0.0,-0.0,-0.0,0.0101,0.0101,-0.0,-0.0,0.0828,-0.8219,-0.6224,-0.4134,-0.2817,-0.1203,-0.0,-0.0,-0.0,-0.0,-0.0,-0.0,-0.0,-0.0,-0.0,-0.0,-0.0,-0.0,-0.0,-0.0,-0.0,-0.0,-0.0,-0.0,-0.0,-0.0,-0.0,-0.0,-0.0,-0.0,-0.0,-0.0,-0.0,-0.0,-0.0,-0.0,-0.0,-0.0,-0.0,-0.0,-0.0,-0.0,-0.0,-0.0,-0.0,-0.0,-0.0,-0.0,-0.0,-0.0,-0.0,-0.0,-0.0,-0.0,-0.0,-0.0,-0.0,-0.0,-0.0,-0.0,-0.0,-0.0,-0.0,-0.0,-0.0,-0.0,-0.0,-0.0,-0.0,-0.0,-0.0,-0.0,-0.0,-0.0,-0.0,-0.0,-0.0,-0.0,-0.0,-0.0,-0.0,-0.0,-0.0,-0.0,-0.0,-0.0,-0.0,-0.0,0.1628,0.5413,0.5578,0.4767,0.2843,0.2772,0.2766,0.2815,0.0931,-0.0,-0.0,-0.0,-0.0,-0.0,-0.0,-0.0,-0.0,-0.0,-0.0,-0.0,-0.0,-0.0,0.0404,0.4144,0.5567,0.5361,0.3524,0.2975,0.3357,-0.7988,-0.6865,-0.4598,-0.064,-0.0,-0.0,-0.0,-0.0,-0.0,-0.0,-0.0,-0.0,-0.0,-0.0,-0.0,-0.0,-0.0,-0.0,-0.0,-0.0,-0.0,-0.0,-0.0,-0.0,-0.0,-0.0,-0.0,-0.0,-0.0,-0.0,-0.0,-0.0,-0.0,-0.0,-0.0,-0.0,-0.0,-0.0,-0.0,-0.0,-0.0,-0.0,-0.0,-0.0,-0.0,-0.0,-0.0,-0.0,-0.0,-0.0,-0.0,-0.0,-0.0,-0.0,-0.0,-0.0,-0.0,-0.0,-0.0,-0.0,-0.0,-0.0,-0.0,-0.0,-0.0,-0.0,-0.0,-0.0,-0.0,-0.0,-0.0,-0.0,0.0707,0.2827,0.1414,0.0404,0.1411,0.2537,0.2341,0.0202,0.0913,0.2038,0.3063,0.2242,0.1541,0.1577,0.162,0.3035,0.6235,0.7375,0.7299,0.5604,0.5555,0.566,0.5802,0.412,0.2211,-0.0,0.1121,0.1019,-0.0,-0.0,0.1109,0.3131,0.3131,0.2522,0.1611,0.1611,0.1611,0.1913,0.5144,0.7083,0.7802,0.615,0.5772,0.6032,-0.7657,-0.7811,-0.6279,-0.0955,-0.0,-0.0,-0.0,-0.0,-0.0,-0.0,-0.0,-0.0,-0.0,-0.0,-0.0,-0.0,-0.0,-0.0,-0.0,-0.0,-0.0,-0.0,-0.0,-0.0,-0.0,-0.0,-0.0,-0.0,-0.0,-0.0,-0.0,-0.0,-0.0,-0.0,-0.0,-0.0,-0.0,-0.0,-0.0,-0.0,-0.0,-0.0,-0.0,-0.0,-0.0,-0.0,-0.0,-0.0,-0.0,-0.0,-0.0,-0.0,-0.0,-0.0,-0.0,-0.0,-0.0,-0.0,-0.0,-0.0,-0.0,-0.0,-0.0,-0.0,-0.0,-0.0,0.0101,0.0606,0.0303,-0.0,-0.0,-0.0,0.1615,0.6486,0.3636,0.1613,0.4021,0.646,0.6185,0.131,0.265,0.5058,0.7695,0.5798,0.4337,0.4337,0.4306,0.4316,0.4341,0.6643,0.8007,0.7981,0.7994,0.821,0.8529,0.8485,0.5843,0.0808,0.3033,0.2832,0.0708,0.0504,0.3025,0.761,0.7918,0.657,0.432,0.432,0.432,0.432,0.4318,0.5839,0.7989,0.7985,0.8176,0.8506,-0.5255,-0.6543,-0.6357,-0.0939,-0.0,-0.0,-0.0,-0.0,-0.0,-0.0,-0.0,-0.0,-0.0,-0.0,-0.0,-0.0,-0.0,-0.0,-0.0,-0.0,-0.0,-0.0,-0.0,-0.0,-0.0,-0.0,-0.0,-0.0,-0.0,-0.0,-0.0,-0.0,-0.0,-0.0,-0.0,-0.0,-0.0,-0.0,-0.0,-0.0,-0.0,-0.0,-0.0,-0.0,-0.0,-0.0,-0.0,-0.0,-0.0,-0.0,-0.0,-0.0,-0.0,-0.0,-0.0,-0.0,-0.0,-0.0,-0.0,-0.0,-0.0,-0.0,-0.0,-0.0,-0.0,-0.0,0.1212,0.5363,0.2929,-0.0,-0.0,-0.0,0.0404,0.1515,0.4244,0.648,0.7089,0.762,0.7519,0.6358,0.4945,0.5058,0.7733,0.7521,0.7159,0.7159,0.7174,0.7083,0.7156,0.7878,0.8147,0.8006,0.8116,0.8282,0.8388,0.8347,0.7764,0.6637,0.5112,0.5073,0.6187,0.4109,0.3769,0.5031,0.7071,0.7685,0.7166,0.7166,0.7166,0.7166,0.7156,0.7463,0.7975,0.7955,0.8241,0.8523,-0.4577,-0.4089,-0.3279,-0.0512,-0.0,-0.0,-0.0,-0.0,-0.0,-0.0,-0.0,-0.0,-0.0,-0.0,-0.0,-0.0,-0.0,-0.0,-0.0,-0.0,-0.0,-0.0,-0.0,-0.0,-0.0,-0.0,-0.0,-0.0,-0.0,-0.0,-0.0,-0.0,-0.0,-0.0,-0.0,-0.0,-0.0,-0.0,-0.0,-0.0,-0.0,-0.0,-0.0,-0.0,-0.0,-0.0,-0.0,-0.0,-0.0,-0.0,-0.0,-0.0,-0.0,-0.0,-0.0,-0.0,-0.0,-0.0,-0.0,-0.0,-0.0,-0.0,-0.0,-0.0,-0.0,0.2019,0.4649,0.7406,0.5763,0.3425,0.211,0.191,0.2315,0.3626,0.5142,0.6561,0.7779,0.7982,0.7982,0.7982,0.6742,0.6456,0.7965,0.8079,0.8037,0.8176,0.8196,0.8193,0.828,0.8351,0.8317,0.8255,0.833,0.8408,0.8479,0.8479,0.8567,0.8629,0.713,0.7012,0.8217,0.6684,0.6012,0.6111,0.756,0.818,0.817,0.7995,0.7965,0.7965,0.7959,0.7955,0.7965,0.8126,0.8292,0.8526,-0.452,-0.1812,-0.0,-0.0,-0.0,-0.0,-0.0,-0.0,-0.0,-0.0,-0.0,-0.0,-0.0,-0.0,-0.0,-0.0,-0.0,-0.0,-0.0,-0.0,-0.0,-0.0,-0.0,-0.0,-0.0,-0.0,-0.0,-0.0,-0.0,-0.0,-0.0,-0.0,-0.0,-0.0,-0.0,-0.0,-0.0,-0.0,-0.0,-0.0,-0.0,-0.0,-0.0,-0.0,-0.0,-0.0,-0.0,-0.0,-0.0,-0.0,-0.0,-0.0,-0.0,-0.0,-0.0,-0.0,-0.0,-0.0,-0.0,-0.0,-0.0,-0.0,-0.0,-0.0,-0.0,0.3433,0.6894,0.7815,0.8009,0.7275,0.5127,0.4722,0.5429,0.7669,0.6137,0.5425,0.7643,0.7959,0.7969,0.7969,0.7952,0.8099,0.8255,0.813,0.8153,0.8425,0.8336,0.8309,0.8401,0.8479,0.8499,0.8445,0.8492,0.8581,0.871,0.871,0.8788,0.8933,0.8679,0.8604,0.8498,0.8364,0.832,0.8282,0.8258,0.8241,0.8221,0.8092,0.8038,0.8038,0.8038,0.8055,0.8099,0.8282,0.8421,0.856,-0.452,-0.1812,-0.0,-0.0,-0.0,-0.0,-0.0,-0.0,-0.0,-0.0,-0.0,-0.0,-0.0,-0.0,-0.0,-0.0,-0.0,-0.0,-0.0,-0.0,-0.0,-0.0,-0.0,-0.0,-0.0,-0.0,-0.0,-0.0,-0.0,-0.0,-0.0,-0.0,-0.0,-0.0,-0.0,-0.0,-0.0,-0.0,-0.0,-0.0,-0.0,-0.0,-0.0,-0.0,-0.0,-0.0,-0.0,-0.0,-0.0,-0.0,-0.0,-0.0,-0.0,-0.0,-0.0,-0.0,-0.0,-0.0,-0.0,-0.0,-0.0,-0.0,-0.0,-0.0,-0.0,0.0606,0.2422,0.7074,0.8009,0.7908,0.7569,0.7469,0.7578,0.7985,0.7672,0.7563,0.7969,0.7955,0.8045,0.8045,0.8041,0.8099,0.8255,0.813,0.8113,0.8286,0.8282,0.8221,0.8106,0.8469,0.8564,0.8306,0.8547,0.8689,0.871,0.871,0.8788,0.894,0.8896,0.8801,0.8655,0.854,0.8408,0.8265,0.8133,0.8072,0.8069,0.8048,0.8038,0.8038,0.8038,0.8123,0.8272,0.8547,0.8662,0.8706,-0.452,-0.1812,-0.0,-0.0,-0.0,-0.0,-0.0,-0.0,-0.0,-0.0,-0.0,-0.0,-0.0,-0.0,-0.0,-0.0,-0.0,-0.0,-0.0,-0.0,-0.0,-0.0,-0.0,-0.0,-0.0,-0.0,-0.0,-0.0,-0.0,-0.0,-0.0,-0.0,-0.0,-0.0,-0.0,-0.0,-0.0,-0.0,-0.0,-0.0,-0.0,-0.0,-0.0,-0.0,-0.0,-0.0,-0.0,-0.0,-0.0,-0.0,-0.0,-0.0,-0.0,-0.0,-0.0,-0.0,-0.0,-0.0,-0.0,-0.0,-0.0,-0.0,-0.0,0.0808,0.3739,0.4448,0.4746,0.5539,0.6956,0.7972,0.7955,0.7959,0.7962,0.7962,0.7959,0.7955,0.7955,0.8045,0.8038,0.8038,0.8116,0.8225,0.8374,0.8326,0.835,0.8506,0.8516,0.8448,0.8296,0.8638,0.8737,0.8523,0.8726,0.8838,0.8838,0.8838,0.8872,0.894,0.894,0.8859,0.871,0.8638,0.853,0.8381,0.8231,0.817,0.8163,0.8075,0.8038,0.8038,0.8038,0.8184,0.8404,0.8533,0.8693,0.8849]},{"header":{"parameterUnit":"m.s-1","parameterCategory":1,"la1":30.6,"la2":28.766,"lo1":-90.7593,"lo2":-88.6598,"dy":0.0162,"dx":0.0183,"nx":116,"ny":114,"refTime":"2023-06-25T12:00:00:Z","depth":0,"parameterNumber":3,"parameterNumberName":"V-component_of_WINDS"},"data":[0.0,0.0,0.0,0.0,0.0,0.0,0.0,0.0,0.0,0.0,0.0,0.0,0.0,0.0,0.0,0.0,0.0,0.0,0.0,0.0,0.0,0.0,0.0,0.0,0.0,0.0,0.0,0.0,0.0,0.0,0.0,0.0,0.0,0.0,0.0,0.0,0.0,0.0,0.0,0.0,0.0,0.0,0.0,0.0,0.0,0.0,0.0,0.0,0.0,0.0,0.0,0.0,0.0,0.0,0.0,0.0,0.0,0.0,0.0,0.0,0.0,0.0,0.0,0.0,0.0,0.0,0.0,0.0,0.0,0.0,0.0,0.0,0.0,0.0,0.0,0.0,0.0,0.0,0.0,0.0,0.0,0.0,0.0,0.0,0.0,0.0,0.0,0.0,0.0,0.0,0.0,0.0,0.0,0.0,0.0,0.0,0.0,0.0,0.0,0.0,0.0,0.0,0.0,0.0,0.0,0.0,0.0,0.0,0.0,0.0,0.0,0.0,0.0,0.0,0.0,0.0,0.0,0.0,0.0,0.0,0.0,0.0,0.0,0.0,0.0,0.0,0.0,0.0,0.0,0.0,0.0,0.0,0.0,0.0,0.0,0.0,0.0,0.0,0.0,0.0,0.0,0.0,0.0,0.0,0.0,0.0,0.0,0.0,0.0,0.0,0.0,0.0,0.0,0.0,0.0,0.0,0.0,0.0,0.0,0.0,0.0,0.0,0.0,0.0,0.0,0.0,0.0,0.0,0.0,0.0,0.0,0.0,0.0,0.0,0.0,0.0,0.0,0.0,0.0,0.0,0.0,0.0,0.0,0.0,0.0,0.0,0.0,0.0,0.0,0.0,0.0,0.0,0.0,0.0,0.0,0.0,0.0,0.0,0.0,0.0,0.0,0.0,0.0,0.0,0.0,0.0,0.0,0.0,0.0,0.0,0.0,0.0,0.0,0.0,0.0,0.0,0.0,0.0,0.0,0.0,0.0,0.0,0.0,0.0,0.0,0.0,0.0,0.0,0.0,0.0,0.0,0.0,0.0,0.0,0.0,0.0,0.0,0.0,0.0,0.0,0.0,0.0,0.0,0.0,0.0,0.0,0.0,0.0,0.0,0.0,0.0,0.0,0.0,0.0,0.0,0.0,0.0,0.0,0.0,0.0,0.0,0.0,0.0,0.0,0.0,0.0,0.0,0.0,0.0,0.0,0.0,0.0,0.0,0.0,0.0,0.0,0.0,0.0,0.0,0.0,0.0,0.0,0.0,0.0,0.0,0.0,0.0,0.0,0.0,0.0,0.0,0.0,0.0,0.0,0.0,0.0,0.0,0.0,0.0,0.0,0.0,0.0,0.0,0.0,0.0,0.0,0.0,0.0,0.0,0.0,0.0,0.0,0.0,0.0,0.0,0.0,0.0,0.0,0.0,0.0,0.0,0.0,0.0,0.0,0.0,0.0,0.0,0.0,0.0,0.0,0.0,0.0,0.0,0.0,0.0,0.0,0.0,0.0,0.0,0.0,0.0,0.0,0.0,0.0,0.0,0.0,0.0,0.0,0.0,0.0,0.0,0.0,0.0,0.0,0.0,0.0,0.0,0.0,0.0,0.0,0.0,0.0,0.0,0.0,0.0,0.0,0.0,0.0,0.0,0.0,0.0,0.0,0.0,0.0,0.0,0.0,0.0,0.0,0.0,0.0,0.0,0.0,0.0,0.0,0.0,0.0,0.0,0.0,0.0,0.0,0.0,0.0,0.0,0.0,0.0,0.0,0.0,0.0,0.0,0.0,0.0,0.0,0.0,0.0,0.0,0.0,0.0,0.0,0.0,0.0,0.0,0.0,0.0,0.0,0.0,0.0,0.0,0.0,0.0,0.0,0.0,0.0,0.0,0.0,0.0,0.0,0.0,0.0,0.0,0.0,0.0,0.0,0.0,0.0,0.0,0.0,0.0,0.0,0.0,0.0,0.0,0.0,0.0,0.0,0.0,0.0,0.0,0.0,0.0,0.0,0.0,0.0,0.0,0.0,0.0,0.0,0.0,0.0,0.0,0.0,0.0,0.0,0.0,0.0,0.0,0.0,0.0,0.0,0.0,0.0,0.0,0.0,0.0,0.0,0.0,0.0,0.0,0.0,0.0,0.0,0.0,0.0,0.0,0.0,0.0,0.0,0.0,0.0,0.0,0.0,0.0,0.0,0.0,0.0,0.0,0.0,0.0,0.0,0.0,0.0,0.0,0.0,0.0,0.0,0.0,0.0,0.0,0.0,0.0,0.0,0.0,0.0,0.0,0.0,0.0,0.0,0.0,0.0,0.0,0.0,0.0,0.0,0.0,0.0,0.0,0.0,0.0,0.0,0.0,0.0,0.0,0.0,0.0,0.0,0.0,0.0,0.0,0.0,0.0,0.0,0.0,0.0,0.0,0.0,0.0,0.0,0.0,0.0,0.0,0.0,0.0,0.0,0.0,0.0,0.0,0.0,0.0,0.0,0.0,0.0,0.0,0.0,0.0,0.0,0.0,0.0,0.0,0.0,0.0,0.0,0.0,0.0,0.0,0.0,0.0,0.0,0.0,0.0,0.0,0.0,0.0,0.0,0.0,0.0,0.0,0.0,0.0,0.0,0.0,0.0,0.0,0.0,0.0,0.0,0.0,0.0,0.0,0.0,0.0,0.0,0.0,0.0,0.0,0.0,0.0,0.0,0.0,0.0,0.0,0.0,0.0,0.0,0.0,0.0,0.0,0.0,0.0,0.0,0.0,0.0,0.0,0.0,0.0,0.0,0.0,0.0,0.0,0.0,0.0,0.0,0.0,0.0,0.0,0.0,0.0,0.0,0.0,0.0,0.0,0.0,0.0,0.0,0.0,0.0,0.0,0.0,0.0,0.0,0.0,0.0,0.0,0.0,0.0,0.0,0.0,0.0,0.0,0.0,0.0,0.0,0.0,0.0,0.0,0.0,0.0,0.0,0.0,0.0,0.0,0.0,0.0,0.0,0.0,0.0,0.0,0.0,0.0,0.0,0.0,0.0,0.0,0.0,0.0,0.0,0.0,0.0,0.0,0.0,0.0,0.0,0.0,0.0,0.0,0.0,0.0,0.0,0.0,0.0,0.0,0.0,0.0,0.0,0.0,0.0,0.0,0.0,0.0,0.0,0.0,0.0,0.0,0.0,0.0,0.0,0.0,0.0,0.0,0.0,0.0,0.0,0.0,0.0,0.0,0.0,0.0,0.0,0.0,0.0,0.0,0.0,0.0,0.0,0.0,0.0,0.0,0.0,0.0,0.0,0.0,0.0,0.0,0.0,0.0,0.0,0.0,0.0,0.0,0.0,0.0,0.0,0.0,0.0,0.0,0.0,0.0,0.0,0.0,0.0,0.0,0.0,0.0,0.0,0.0,0.0,0.0,0.0,0.0,0.0,0.0,0.0,0.0,0.0,0.0,0.0,0.0,0.0,0.0,0.0,0.0,0.0,0.0,0.0,0.0,0.0,0.0,0.0,0.0,0.0,0.0,0.0,0.0,0.0,0.0,0.0,0.0,0.0,0.0,0.0,0.0,0.0,0.0,0.0,0.0,0.0,0.0,0.0,0.0,0.0,0.0,0.0,0.0,0.0,0.0,0.0,0.0,0.0,0.0,0.0,0.0,0.0,0.0,0.0,0.0,0.0,0.0,0.0,0.0,0.0,0.0,0.0,0.0,0.0,0.0,0.0,0.0,0.0,0.0,0.0,0.0,0.0,0.0,0.0,0.0,0.0,0.0,0.0,0.0,0.0,0.0,0.0,0.0,0.0,0.0,0.0,0.0,0.0,0.0,0.0,0.0,0.0,0.0,0.0,0.0,0.0,0.0,0.0,0.0,0.0,0.0,0.0,0.0,0.0,0.0,0.0,0.0,0.0,0.0,0.0,0.0,0.0,0.0,0.0,0.0,0.0,0.0,0.0,0.0,0.0,0.0,0.0,0.0,0.0,0.0,0.0,0.0,0.0,0.0,0.0,0.0,0.0,0.0,0.0,0.0,0.0,0.0,0.0,0.0,0.0,0.0,0.0,0.0,0.0,0.0,0.0,0.0,0.0,0.0,0.0,0.0,0.0,0.0,0.0,0.0,0.0,0.0,0.0,0.0,0.0,0.0,0.0,0.0,0.0,0.0,0.0,0.0,0.0,0.0,0.0,0.0,0.0,0.0,0.0,0.0,0.0,0.0,0.0,0.0,0.0,0.0,0.0,0.0,0.0,0.0,0.0,0.0,0.0,0.0,0.0,0.0,0.0,0.0,0.0,0.0,0.0,0.0,0.0,0.0,0.0,0.0,0.0,0.0,0.0,0.0,0.0,0.0,0.0,0.0,0.0,0.0,0.0,0.0,0.0,0.0,0.0,0.0,0.0,0.0,0.0,0.0,0.0,0.0,0.0,0.0,0.0,0.0,0.0,0.0,0.0,0.0,0.0,0.0,0.0,0.0,0.0,0.0,0.0,0.0,0.0,0.0,0.0,0.0,0.0,0.0,0.0,0.0,0.0,0.0,0.0,0.0,0.0,0.0,0.0,0.0,0.0,0.0,0.0,0.0,0.0,0.0,0.0,0.0,0.0,0.0,0.0,0.0,0.0,0.0,0.0,0.0,0.0,0.0,0.0,0.0,0.0,0.0,0.0,0.0,0.0,0.0,0.0,0.0,0.0,0.0,0.0,0.0,0.0,0.0,0.0,0.0,0.0,0.0,0.0,0.0,0.0,0.0,0.0,0.0,0.0,0.0,0.0,0.0,0.0,0.0,0.0,0.0,0.0,0.0,0.0,0.0,0.0,0.0,0.0,0.0,0.0,0.0,0.0,0.0,0.0,0.0,0.0,0.0,0.0,0.0,0.0,0.0,0.0,0.0,0.0,0.0,0.0,0.0,0.0,0.0,0.0,0.0,0.0,0.0,0.0,0.0,0.0,0.0,0.0,0.0,0.0,0.0,0.0,0.0,0.0,0.0,0.0,0.0,0.0,0.0,0.0,0.0,0.0,0.0,0.0,0.0,0.0,0.0,0.0,0.0,0.0,0.0,0.0,0.0,0.0,0.0,0.0,0.0,0.0,0.0,0.0,0.0,0.0,0.0,0.0,0.0,0.0,0.0,0.0,0.0,0.0,0.0,0.0,0.0,0.0,0.0,0.0,0.0,0.0,0.0,0.0,0.0,0.0,0.0,0.0,0.0,0.0,0.0,0.0,0.0,0.0,0.0,0.0,0.0,0.0,0.0,0.0,0.0,0.0,0.0,0.0,0.0,0.0,0.0,0.0,0.0,0.0,0.0,0.0,0.0,0.0,0.0,0.0,0.0,0.0,0.0,0.0,0.0,0.0,0.0,0.0,0.0,0.0,0.0,0.0,0.0,0.0,0.0,0.0,0.0,0.0,0.0,0.0,0.0,0.0,0.0,0.0,0.0,0.0,0.0,0.0,0.0,0.0,0.0,0.0,0.0,0.0,0.0,0.0,0.0,0.0,0.0,0.0,0.0,0.0,0.0,0.0,0.0,0.0,0.0,0.0,0.0,0.0,0.0,0.0,0.0,0.0,0.0,0.0,0.0,0.0,0.0,0.0,0.0,0.0,0.0,0.0,0.0,0.0,0.0,0.0,0.0,0.0,0.0,0.0,0.0,0.0,0.0,0.0,0.0,0.0,0.0,0.0,0.0,0.0,0.0,0.0,0.0,0.0,0.0,0.0,0.0,0.0,0.0,0.0,0.0,0.0,0.0,0.0,0.0,0.0,0.0,0.0,0.0,0.0,0.0,0.0,0.0,0.0,0.0,0.0,0.0,0.0,0.0,0.0,0.0,0.0,0.0,0.0,0.0,0.0,0.0,0.0,0.0,0.0,0.0,0.0,0.0,0.0,0.0,0.0,0.0,0.0,0.0,0.0,0.0,0.0,0.0,0.0,0.0,0.0,0.0,0.0,0.0,0.0,0.0,0.0,0.0,0.0,0.0,0.0,0.0,0.0,0.0,0.0,0.0,0.0,0.0,0.0,0.0,0.0,0.0,0.0,0.0,0.0,0.0,0.0,0.0,0.0,0.0,0.0,0.0,0.0,0.0,0.0,0.0,0.0,0.0,0.0,0.0,0.0,0.0,0.0,0.0,0.0,0.0,0.0,-3.9258,0.0,0.0,0.0,0.0,0.0,0.0,0.0,0.0,0.0,0.0,0.0,0.0,0.0,0.0,0.0,0.0,0.0,0.0,0.0,0.0,0.0,0.0,0.0,0.0,0.0,0.0,0.0,0.0,0.0,0.0,0.0,0.0,0.0,0.0,0.0,0.0,0.0,0.0,0.0,0.0,0.0,0.0,0.0,0.0,0.0,0.0,0.0,0.0,0.0,0.0,0.0,0.0,0.0,0.0,0.0,0.0,0.0,0.0,0.0,0.0,0.0,0.0,0.0,0.0,0.0,0.0,0.0,0.0,0.0,0.0,0.0,0.0,0.0,0.0,0.0,0.0,0.0,0.0,0.0,0.0,0.0,0.0,0.0,0.0,0.0,0.0,0.0,0.0,0.0,0.0,0.0,0.0,0.0,0.0,0.0,0.0,0.0,0.0,0.0,0.0,0.0,0.0,0.0,0.0,0.0,0.0,0.0,0.0,0.0,0.0,0.0,0.0,0.0,0.0,0.0,0.0,-4.0351,0.0,0.0,0.0,0.0,0.0,0.0,0.0,0.0,0.0,0.0,0.0,0.0,0.0,0.0,0.0,0.0,0.0,0.0,0.0,0.0,0.0,0.0,0.0,0.0,0.0,0.0,0.0,0.0,0.0,0.0,0.0,0.0,0.0,0.0,0.0,0.0,0.0,0.0,0.0,0.0,0.0,0.0,0.0,0.0,0.0,0.0,0.0,0.0,0.0,0.0,0.0,0.0,0.0,0.0,0.0,0.0,0.0,0.0,0.0,0.0,0.0,0.0,0.0,0.0,0.0,0.0,0.0,0.0,0.0,0.0,0.0,0.0,0.0,0.0,0.0,0.0,0.0,0.0,0.0,0.0,0.0,0.0,0.0,0.0,0.0,0.0,0.0,0.0,0.0,0.0,0.0,0.0,0.0,0.0,0.0,0.0,0.0,0.0,0.0,0.0,0.0,0.0,0.0,0.0,0.0,0.0,0.0,0.0,-4.2422,-4.2578,-4.3086,-4.3086,-4.3164,-4.3223,-4.168,-4.1621,-4.2558,-4.1758,0.0,0.0,0.0,0.0,0.0,0.0,0.0,0.0,0.0,0.0,0.0,0.0,0.0,0.0,0.0,0.0,0.0,0.0,0.0,0.0,0.0,0.0,0.0,0.0,0.0,0.0,0.0,0.0,0.0,0.0,0.0,0.0,0.0,0.0,0.0,0.0,0.0,0.0,0.0,0.0,0.0,0.0,0.0,0.0,0.0,0.0,0.0,0.0,0.0,0.0,0.0,0.0,0.0,0.0,0.0,0.0,0.0,0.0,0.0,0.0,0.0,0.0,0.0,0.0,0.0,0.0,0.0,0.0,0.0,0.0,0.0,0.0,0.0,0.0,0.0,0.0,0.0,0.0,0.0,0.0,0.0,0.0,0.0,0.0,0.0,0.0,-3.7129,-3.7129,0.0,0.0,0.0,0.0,0.0,0.0,0.0,0.0,0.0,0.0,0.0,0.0,0.0,-4.0156,-4.1016,-4.3223,-4.4062,-4.3555,-4.5723,-4.6426,-4.5781,-4.5781,-4.6191,-4.6855,-4.5879,0.0,-4.3457,-4.2598,0.0,0.0,0.0,0.0,0.0,0.0,0.0,0.0,0.0,0.0,0.0,0.0,0.0,0.0,0.0,0.0,0.0,0.0,0.0,0.0,0.0,0.0,0.0,0.0,0.0,0.0,0.0,0.0,0.0,0.0,0.0,0.0,0.0,0.0,0.0,0.0,0.0,0.0,0.0,0.0,0.0,0.0,0.0,0.0,0.0,0.0,0.0,0.0,0.0,0.0,0.0,0.0,0.0,0.0,0.0,0.0,0.0,0.0,0.0,0.0,0.0,0.0,0.0,0.0,0.0,0.0,0.0,0.0,0.0,0.0,0.0,0.0,0.0,0.0,0.0,0.0,0.0,0.0,0.0,0.0,0.0,0.0,0.0,0.0,0.0,-3.7891,-3.8574,-3.8086,-3.8457,-3.8418,0.0,0.0,0.0,0.0,0.0,0.0,0.0,0.0,0.0,-4.2012,-4.2519,-4.3418,-4.4785,-4.5898,-4.6523,-4.6641,-4.8281,-4.8867,-4.8516,-4.8965,-4.9121,-4.9043,-4.8652,-4.7773,-4.6484,-4.4629,-4.3808,-4.3652,0.0,0.0,0.0,0.0,-4.4004,-4.4433,0.0,0.0,0.0,0.0,0.0,0.0,0.0,0.0,0.0,0.0,0.0,0.0,0.0,0.0,0.0,0.0,0.0,0.0,0.0,0.0,0.0,0.0,0.0,0.0,0.0,0.0,0.0,0.0,0.0,0.0,0.0,0.0,0.0,0.0,0.0,0.0,0.0,0.0,0.0,0.0,0.0,0.0,0.0,0.0,0.0,0.0,0.0,0.0,0.0,0.0,0.0,0.0,0.0,0.0,0.0,0.0,0.0,0.0,0.0,0.0,0.0,0.0,0.0,0.0,0.0,0.0,0.0,0.0,0.0,0.0,0.0,0.0,0.0,0.0,0.0,0.0,0.0,-3.9414,-3.998,-3.9336,-4.0019,-4.0117,0.0,0.0,0.0,0.0,0.0,0.0,-4.2129,-4.2949,-4.3906,-4.5,-4.5664,-4.6836,-4.8555,-4.8789,-4.9238,-4.9883,-5.0762,-5.1172,-5.1191,-5.1797,-5.1738,-5.1172,-5.1172,-5.0547,-4.9336,-4.6738,-4.541,-4.5019,-4.4785,-4.4824,-4.5039,-4.5039,-4.5449,-4.5976,0.0,0.0,0.0,0.0,0.0,0.0,0.0,0.0,0.0,0.0,0.0,0.0,0.0,0.0,0.0,0.0,0.0,0.0,0.0,0.0,0.0,0.0,0.0,0.0,0.0,0.0,0.0,0.0,0.0,0.0,0.0,0.0,0.0,0.0,0.0,0.0,0.0,0.0,0.0,0.0,0.0,0.0,0.0,0.0,0.0,0.0,0.0,0.0,0.0,0.0,0.0,0.0,0.0,0.0,0.0,0.0,0.0,0.0,0.0,0.0,0.0,0.0,0.0,0.0,0.0,0.0,0.0,0.0,0.0,0.0,0.0,0.0,0.0,0.0,0.0,0.0,0.0,0.0,0.0,-4.1074,-4.1777,0.0,0.0,0.0,0.0,-4.2207,-4.3047,-4.3887,-4.4766,-4.5625,-4.6875,-4.8574,-4.8672,-4.9512,-5.1191,-5.2031,-5.2461,-5.2519,-5.3398,-5.3808,-5.3808,-5.3848,-5.3848,-5.3808,-5.3808,-5.2832,-5.1074,-4.8516,-4.793,-4.8555,-4.7734,-4.791,-4.8633,-4.8633,-4.8672,-4.8594,0.0,0.0,0.0,0.0,0.0,0.0,0.0,0.0,0.0,0.0,0.0,0.0,0.0,0.0,0.0,0.0,0.0,0.0,0.0,0.0,0.0,0.0,0.0,0.0,0.0,0.0,0.0,0.0,0.0,0.0,0.0,0.0,0.0,0.0,0.0,0.0,0.0,0.0,0.0,0.0,0.0,0.0,0.0,0.0,0.0,0.0,0.0,0.0,0.0,0.0,0.0,0.0,0.0,0.0,0.0,0.0,0.0,0.0,0.0,0.0,0.0,0.0,0.0,0.0,0.0,0.0,0.0,0.0,0.0,0.0,0.0,0.0,0.0,0.0,0.0,0.0,0.0,0.0,0.0,-4.4551,-4.5723,0.0,-4.5742,-4.5469,-4.5898,-4.7305,-4.7715,-4.8242,-4.9062,-4.9414,-5.0117,-5.1308,-5.1348,-5.1894,-5.3066,-5.3379,-5.3535,-5.3555,-5.4414,-5.4844,-5.4863,-5.543,-5.5371,-5.4844,-5.4844,-5.418,-5.3008,-5.209,-5.0605,-4.8867,-4.8555,-4.8633,-4.8906,-4.8906,-4.8906,-4.8867,0.0,0.0,0.0,0.0,0.0,0.0,0.0,0.0,0.0,0.0,0.0,0.0,0.0,0.0,0.0,0.0,0.0,0.0,0.0,0.0,0.0,0.0,0.0,0.0,0.0,0.0,0.0,0.0,0.0,0.0,0.0,0.0,0.0,0.0,0.0,0.0,0.0,0.0,0.0,0.0,0.0,0.0,-4.6009,0.0,0.0,0.0,0.0,0.0,0.0,0.0,0.0,0.0,0.0,0.0,0.0,0.0,0.0,0.0,0.0,0.0,0.0,0.0,0.0,0.0,0.0,0.0,0.0,0.0,0.0,0.0,0.0,0.0,0.0,0.0,0.0,0.0,0.0,0.0,-4.793,-4.7656,-4.8887,-4.9648,-4.9355,-4.9062,-4.9473,-5.0937,-5.1035,-5.1523,-5.2656,-5.2441,-5.2812,-5.3984,-5.373,-5.4004,-5.4863,-5.4883,-5.4883,-5.4883,-5.5469,-5.5742,-5.5762,-5.6348,-5.6289,-5.5742,-5.5742,-5.5234,-5.4433,-5.4433,-5.293,-5.0625,-5.0625,-5.0449,-5.0176,-5.0176,-5.0176,-5.0137,0.0,0.0,0.0,0.0,0.0,0.0,0.0,0.0,0.0,0.0,0.0,0.0,0.0,0.0,0.0,0.0,0.0,0.0,0.0,0.0,0.0,0.0,0.0,0.0,0.0,0.0,0.0,0.0,0.0,0.0,0.0,0.0,0.0,0.0,0.0,0.0,0.0,0.0,0.0,0.0,0.0,0.0,-4.6817,0.0,0.0,0.0,0.0,0.0,0.0,0.0,0.0,0.0,0.0,0.0,0.0,0.0,0.0,0.0,0.0,0.0,0.0,0.0,0.0,0.0,0.0,0.0,0.0,0.0,0.0,0.0,0.0,0.0,0.0,0.0,0.0,0.0,-4.7676,-4.8496,-4.9414,-5.0293,-5.1113,-5.1308,-5.0547,-5.1152,-5.1953,-5.2832,-5.2891,-5.3633,-5.5293,-5.4609,-5.4922,-5.6582,-5.5859,-5.582,-5.668,-5.664,-5.664,-5.664,-5.664,-5.6621,-5.6601,-5.6621,-5.6621,-5.6601,-5.6601,-5.6113,-5.5332,-5.5332,-5.4844,-5.4082,-5.4023,-5.3476,-5.2734,-5.2734,-5.2715,-5.2578,0.0,0.0,0.0,0.0,0.0,0.0,0.0,0.0,0.0,0.0,0.0,0.0,0.0,0.0,0.0,0.0,0.0,0.0,0.0,0.0,0.0,0.0,0.0,0.0,0.0,0.0,0.0,0.0,0.0,0.0,0.0,0.0,0.0,0.0,0.0,0.0,0.0,0.0,0.0,0.0,0.0,0.0,-4.6874,0.0,0.0,0.0,0.0,0.0,0.0,0.0,0.0,0.0,0.0,0.0,0.0,0.0,0.0,0.0,0.0,0.0,0.0,0.0,0.0,0.0,0.0,0.0,0.0,0.0,0.0,0.0,0.0,0.0,0.0,0.0,0.0,-5.0156,-4.957,-5.1836,-5.3867,-5.4746,-5.5586,-5.6269,-5.6699,-5.6348,-5.6465,-5.7344,-5.7402,-5.7344,-5.7187,-5.7558,-5.7695,-5.7558,-5.793,-5.8242,-5.8476,-5.7851,-5.7539,-5.7539,-5.7539,-5.7207,-5.6621,-5.7246,-5.7207,-5.6601,-5.6601,-5.6465,-5.623,-5.623,-5.6094,-5.5762,-5.4492,-5.3848,-5.3633,-5.3633,-5.3242,-5.2578,0.0,0.0,0.0,0.0,0.0,0.0,0.0,0.0,0.0,0.0,0.0,0.0,0.0,0.0,0.0,0.0,0.0,0.0,0.0,0.0,0.0,0.0,0.0,0.0,0.0,0.0,0.0,0.0,0.0,0.0,0.0,0.0,0.0,0.0,0.0,0.0,0.0,0.0,0.0,0.0,0.0,0.0,-4.8413,-4.7682,-4.7355,-4.7239,-4.6926,-4.6653,-4.6433,-4.656,0.0,0.0,0.0,0.0,0.0,0.0,0.0,0.0,0.0,0.0,0.0,0.0,0.0,0.0,0.0,0.0,0.0,0.0,0.0,0.0,0.0,0.0,0.0,0.0,-5.2226,-5.3672,-5.3926,-5.5371,-5.6719,-5.7598,-5.8144,-5.8633,-5.914,-5.873,-5.8652,-5.916,-5.9199,-5.9121,-5.8965,-5.9101,-5.9121,-5.8945,-5.9101,-5.9199,-5.9199,-5.834,-5.8086,-5.8437,-5.8066,-5.7832,-5.7715,-5.8203,-5.7969,-5.7148,-5.7148,-5.6933,-5.6601,-5.6601,-5.6601,0.0,0.0,0.0,0.0,0.0,-5.3984,-5.3164,0.0,0.0,0.0,0.0,0.0,0.0,0.0,0.0,0.0,0.0,0.0,0.0,0.0,0.0,0.0,0.0,0.0,0.0,0.0,0.0,0.0,0.0,0.0,0.0,0.0,0.0,0.0,0.0,0.0,0.0,0.0,0.0,0.0,0.0,0.0,0.0,0.0,0.0,0.0,0.0,0.0,0.0,-5.0548,-4.9009,-4.8856,-4.9374,-4.8671,-4.8015,-4.7475,-4.7534,0.0,0.0,0.0,0.0,0.0,0.0,0.0,0.0,0.0,0.0,0.0,0.0,0.0,0.0,0.0,0.0,0.0,0.0,0.0,0.0,0.0,0.0,0.0,0.0,-5.5547,-5.7773,-5.9531,-5.9023,-5.8769,-5.9531,-5.9531,-5.9512,-5.9629,-5.9531,-5.9473,-5.9473,-5.9473,-5.9746,-6.0371,0.0,0.0,0.0,0.0,-5.9433,-5.9336,-5.8574,-5.8515,-5.9199,-5.8515,-5.8535,-5.9199,-5.9199,-5.8711,-5.789,-5.7793,-5.7305,-5.6601,-5.6601,-5.6601,-5.6601,-5.6601,-5.6133,-5.543,-5.5332,-5.4805,-5.4121,0.0,0.0,0.0,0.0,0.0,0.0,0.0,0.0,0.0,0.0,0.0,0.0,0.0,0.0,0.0,0.0,0.0,0.0,0.0,0.0,0.0,0.0,0.0,0.0,0.0,0.0,0.0,0.0,0.0,0.0,0.0,0.0,0.0,0.0,0.0,0.0,0.0,0.0,0.0,0.0,0.0,0.0,-5.0856,-5.0606,-4.9779,-4.8698,-4.8541,-4.8457,-4.8436,-4.8437,-4.7942,-4.7335,-4.7334,0.0,0.0,0.0,0.0,0.0,0.0,0.0,0.0,0.0,0.0,0.0,0.0,0.0,0.0,0.0,0.0,0.0,0.0,0.0,0.0,-5.7558,-5.9492,-6.1328,-6.3066,-6.2558,-6.207,-6.2246,-6.164,-6.1484,-6.2207,-6.1621,-6.1211,-6.1211,-6.1211,-6.0976,-6.043,-6.0918,-6.0976,-6.043,-6.0937,-6.0879,-6.0176,-6.0,-5.9687,-5.9219,0.0,0.0,-5.9199,-5.9199,-5.8711,-5.7851,-5.7168,-5.6758,-5.6601,-5.6601,-5.6601,-5.6601,-5.6601,-5.6504,-5.6269,-5.5566,-5.5195,-5.4941,0.0,0.0,0.0,0.0,0.0,0.0,0.0,0.0,0.0,0.0,0.0,0.0,0.0,0.0,0.0,0.0,0.0,0.0,0.0,0.0,0.0,0.0,0.0,0.0,0.0,0.0,0.0,0.0,0.0,0.0,0.0,0.0,0.0,0.0,0.0,0.0,0.0,0.0,0.0,0.0,0.0,0.0,-5.3551,-5.2685,-5.186,-5.1144,-5.1149,-5.0666,-5.0049,-5.0059,-4.9246,-4.8242,-4.8257,-4.7649,-4.6948,0.0,0.0,0.0,0.0,0.0,0.0,0.0,0.0,0.0,0.0,0.0,0.0,0.0,0.0,-5.25,0.0,0.0,-5.8574,-6.0742,-6.2168,-6.3301,-6.418,-6.3926,-6.3496,-6.3047,-6.2226,-6.1875,-6.2305,-6.1953,-6.1699,-6.1699,-6.1699,-6.1504,-6.1074,-6.1465,-6.1504,-6.1055,-6.1465,-6.1484,-6.1055,-6.0625,-6.043,-6.0449,-6.043,-6.043,-6.0449,-6.0,-5.9336,-5.8496,-5.7637,-5.6992,-5.6601,-5.6601,-5.6601,-5.6601,-5.6601,-5.6601,-5.6543,-5.6113,-5.5957,-5.582,0.0,0.0,0.0,0.0,0.0,0.0,0.0,0.0,0.0,0.0,0.0,0.0,0.0,0.0,0.0,0.0,0.0,0.0,0.0,0.0,0.0,0.0,0.0,0.0,0.0,0.0,0.0,0.0,0.0,0.0,0.0,0.0,0.0,0.0,0.0,0.0,0.0,0.0,0.0,0.0,0.0,0.0,-5.6751,-5.5089,-5.4194,-5.3817,-5.3642,-5.2639,-5.1406,-5.1406,-5.0293,-4.8926,-4.9101,-4.8555,-4.7812,-4.7656,-4.7109,0.0,0.0,0.0,0.0,0.0,0.0,0.0,0.0,0.0,-5.0976,-5.2168,-5.3926,-5.5898,-5.8008,-6.0039,-6.1875,-6.3281,-6.4375,-6.5,-6.4824,-6.4668,-6.4297,-6.3594,-6.2598,-6.2012,-6.2187,-6.1894,-6.1699,-6.1699,-6.1699,-6.1699,-6.1699,-6.1699,-6.1699,-6.1699,-6.1699,-6.1621,-6.1445,-6.0918,-6.0918,-6.1445,-6.0918,-6.0937,-6.1426,-6.0566,-5.9726,-5.8906,-5.8027,-5.7246,-5.6601,-5.6601,-5.6601,-5.6601,-5.6601,-5.6601,-5.6601,-5.6601,-5.6601,-5.6504,0.0,0.0,0.0,0.0,0.0,0.0,0.0,0.0,0.0,0.0,0.0,0.0,0.0,0.0,0.0,0.0,0.0,0.0,0.0,0.0,0.0,0.0,0.0,0.0,0.0,0.0,0.0,0.0,0.0,0.0,0.0,0.0,0.0,0.0,0.0,0.0,0.0,0.0,0.0,0.0,0.0,0.0,-5.878,-5.7798,-5.5991,-5.3878,-5.3095,-5.2204,-5.1406,-5.1406,-5.0293,-4.9043,-4.9805,-4.9453,-4.8594,-4.7832,0.0,-4.7285,-4.6504,-4.75,-4.875,-4.875,-5.1113,-5.3398,0.0,0.0,-5.6738,-5.6133,-5.7969,-5.9765,-6.0078,-6.2793,-6.5078,-6.5273,-6.6699,-6.748,-6.6719,-6.5937,-6.543,-6.5312,-6.3867,-6.3164,-6.3926,-6.2617,-6.1699,-6.1699,-6.1699,-6.1699,-6.1699,-6.1699,-6.1699,-6.1699,-6.1699,-6.1328,-6.0547,-6.1211,-6.1211,-6.0547,-6.123,-6.1191,-6.0527,-5.9707,-5.8867,-5.8008,-5.7129,-5.6699,-5.6601,-5.6601,-5.6601,-5.6601,-5.6601,-5.6601,-5.6601,-5.6601,-5.6601,-5.6582,0.0,0.0,0.0,0.0,0.0,0.0,0.0,0.0,0.0,0.0,0.0,0.0,0.0,0.0,0.0,0.0,0.0,0.0,0.0,0.0,0.0,0.0,0.0,0.0,0.0,0.0,0.0,0.0,0.0,0.0,0.0,0.0,0.0,0.0,0.0,0.0,0.0,0.0,0.0,0.0,0.0,0.0,-5.9061,-5.7667,-5.582,-5.3945,-5.3594,-5.2891,0.0,0.0,-4.9902,-4.8965,-4.9336,-4.8848,-4.8066,-4.7715,-4.7246,0.0,-4.7012,-4.8672,-5.0351,0.0,-5.2578,-5.4883,-5.539,-5.6758,-5.8359,-5.998,-6.1582,-6.3125,-6.4668,-6.6133,-6.7285,0.0,-6.8066,-6.8066,-6.7715,-6.6465,-6.5605,-6.5605,-6.4062,-6.3144,-6.3515,-6.2422,-6.1699,-6.1699,-6.1699,-6.1699,-6.1699,-6.1699,-6.1699,-6.1699,-6.1699,-6.1523,-6.1152,-6.1523,-6.1523,-6.1152,-6.1015,-6.0742,-6.0351,-5.9043,-5.7969,-5.7129,-5.6758,-5.6601,-5.6601,-5.6601,-5.6601,-5.6601,-5.6601,-5.6601,-5.6601,-5.6601,-5.6601,-5.6601,0.0,0.0,0.0,0.0,0.0,0.0,0.0,0.0,0.0,0.0,0.0,0.0,0.0,0.0,0.0,0.0,0.0,0.0,0.0,0.0,0.0,0.0,0.0,0.0,0.0,0.0,0.0,0.0,0.0,0.0,0.0,0.0,0.0,0.0,0.0,0.0,0.0,0.0,0.0,0.0,0.0,0.0,-5.9316,-5.7344,-5.5664,-5.4258,-5.3535,-5.2422,0.0,0.0,-4.873,-4.7871,-4.8105,-4.791,-4.7558,-4.7305,-4.6797,-4.6543,-4.7656,-4.9648,0.0,-5.2305,-5.4433,-5.666,-5.7754,-5.9043,-6.0781,-6.3515,-6.4961,-6.623,-6.789,-6.8398,-6.8613,-6.8769,-6.8457,-6.8027,-6.7558,-6.6406,-6.543,-6.4941,-6.3555,-6.2637,-6.2637,-6.207,-6.1699,-6.1699,-6.1699,-6.1699,-6.1699,-6.1699,-6.1699,-6.1699,-6.1699,-6.1699,-6.1699,-6.1699,-6.1699,-6.1699,-6.082,-6.0273,-6.0019,-5.8301,-5.7207,-5.6601,-5.6601,-5.6601,-5.6601,-5.6601,-5.6601,-5.6601,-5.6601,-5.6601,-5.6601,-5.6601,-5.6601,-5.6601,0.0,0.0,0.0,0.0,0.0,0.0,0.0,0.0,0.0,0.0,0.0,0.0,0.0,0.0,0.0,0.0,0.0,0.0,0.0,0.0,0.0,0.0,0.0,0.0,0.0,0.0,0.0,0.0,0.0,0.0,0.0,0.0,0.0,0.0,0.0,0.0,0.0,0.0,0.0,0.0,0.0,0.0,-6.0098,-5.7558,-5.6035,-5.4922,-5.2383,0.0,0.0,0.0,-4.6543,-4.5273,-4.6113,-4.6933,0.0,-4.6582,-4.6328,-4.668,-4.8398,-5.0098,-5.2012,-5.4551,-5.7148,-5.9512,-6.1172,-6.3535,-6.5644,-6.6582,-6.8144,-6.9101,-6.834,-6.8887,-6.8926,-6.7246,-6.7676,-6.7617,-6.5918,-6.5625,-6.4961,-6.3281,-6.2285,-6.1738,0.0,-6.1719,-6.1699,-6.1699,-6.1699,-6.1699,-6.1699,-6.1699,-6.1699,-6.1699,-6.1699,-6.1699,-6.1699,-6.1699,-6.1699,-6.1699,-6.082,-5.998,-5.918,-5.7422,-5.6621,-5.6601,-5.6601,-5.6601,-5.6601,-5.6601,-5.6601,-5.6601,-5.6601,-5.6601,-5.6601,-5.6601,-5.6601,-5.6601,0.0,0.0,0.0,0.0,0.0,0.0,0.0,0.0,0.0,0.0,0.0,0.0,0.0,0.0,0.0,0.0,0.0,0.0,0.0,0.0,0.0,0.0,0.0,0.0,0.0,0.0,0.0,0.0,0.0,0.0,0.0,0.0,0.0,0.0,0.0,0.0,0.0,0.0,0.0,0.0,0.0,0.0,-6.0,-5.6289,-5.3633,-5.1562,0.0,0.0,0.0,0.0,0.0,0.0,-4.4473,0.0,0.0,-4.6211,-4.7129,-4.8281,-4.9453,-5.1836,-5.4473,-5.6523,-5.8965,-6.1308,-6.3027,-6.5,-6.6719,-6.7578,-6.8222,-6.8555,-6.8242,-6.7969,-6.7773,-6.7754,-6.7519,-6.7129,-6.6543,-6.5469,-6.4082,-6.2344,-6.1875,0.0,0.0,0.0,0.0,-6.166,-6.1699,-6.1699,-6.1699,-6.1699,-6.1699,-6.1699,-6.1699,-6.1699,-6.1699,-6.1699,-6.1699,-6.168,-6.0273,-5.8867,-5.7461,-5.6875,-5.6601,-5.6601,-5.6601,-5.6601,-5.6601,-5.6601,-5.6601,-5.6601,-5.6601,-5.6601,-5.6601,-5.6601,-5.6601,-5.6601,0.0,0.0,0.0,0.0,0.0,0.0,0.0,0.0,0.0,0.0,0.0,0.0,0.0,0.0,0.0,0.0,0.0,0.0,0.0,0.0,0.0,0.0,0.0,0.0,0.0,0.0,0.0,0.0,0.0,0.0,0.0,0.0,0.0,0.0,0.0,0.0,0.0,0.0,0.0,0.0,0.0,0.0,-5.7734,-5.4355,-5.168,0.0,0.0,0.0,0.0,0.0,0.0,0.0,0.0,-4.4043,-4.5293,-4.6797,-4.8242,-4.9746,-5.1543,-5.4082,-5.664,-5.8359,-6.0488,-6.2539,-6.3965,-6.5644,-6.7051,-6.7617,-6.7734,-6.7558,-6.6914,-6.584,-6.5117,-6.5371,-6.4433,-6.3887,-6.4492,-6.3379,-6.2168,-6.1328,-6.123,-6.0801,0.0,0.0,0.0,-6.1172,-6.1523,-6.1699,-6.1699,-6.1699,-6.1699,-6.1699,-6.1699,-6.1699,-6.1699,-6.1699,-6.1406,-6.0781,-5.9394,-5.7988,-5.6601,-5.6601,-5.6601,-5.6601,-5.6601,-5.6601,-5.6601,-5.6601,-5.6601,-5.6601,-5.6601,-5.6601,-5.6601,-5.6601,-5.6601,-5.6601,0.0,0.0,0.0,0.0,0.0,0.0,0.0,0.0,0.0,0.0,0.0,0.0,0.0,0.0,0.0,0.0,0.0,0.0,0.0,0.0,0.0,0.0,0.0,0.0,0.0,0.0,0.0,0.0,0.0,0.0,0.0,0.0,0.0,0.0,0.0,0.0,0.0,0.0,0.0,0.0,0.0,0.0,-5.3808,-5.1973,0.0,0.0,0.0,0.0,0.0,0.0,0.0,0.0,0.0,-4.3828,-4.5703,-4.832,-4.9746,-5.1191,-5.4531,-5.6699,-5.8437,-6.0117,-6.1777,-6.3223,-6.4101,-6.5605,-6.6797,-6.666,-6.6621,-6.6094,0.0,0.0,-6.125,-6.0469,-5.9082,-5.8652,-6.0234,-5.9844,-5.9648,0.0,0.0,0.0,0.0,0.0,0.0,-6.0351,0.0,-6.164,-6.1699,-6.1699,-6.1699,-6.1699,-6.1699,-6.1699,-6.1699,-6.166,-6.0781,-5.9121,-5.8301,-5.7441,-5.6601,-5.6601,-5.6601,-5.6601,-5.6601,-5.6601,-5.6601,-5.6601,-5.6601,-5.6601,-5.6601,-5.6601,-5.6601,-5.6601,-5.6601,-5.6601,0.0,0.0,0.0,0.0,0.0,0.0,0.0,0.0,0.0,0.0,0.0,0.0,0.0,0.0,0.0,0.0,0.0,0.0,0.0,0.0,0.0,0.0,0.0,0.0,0.0,0.0,0.0,0.0,0.0,0.0,0.0,0.0,0.0,0.0,0.0,0.0,0.0,0.0,0.0,0.0,0.0,0.0,-5.3672,0.0,0.0,0.0,0.0,0.0,0.0,0.0,0.0,0.0,0.0,-4.7012,-4.8418,-5.0976,-5.2812,-5.4473,-5.664,-5.8476,-6.0176,-6.1914,-6.2676,-6.3223,-6.4101,-6.5156,-6.5371,-6.3437,-6.3027,-6.2305,0.0,0.0,0.0,-5.9433,-6.0195,0.0,-6.1308,-6.1758,0.0,-6.0527,0.0,-6.0879,-5.9629,-6.0449,0.0,0.0,-6.0605,-6.1015,-6.168,-6.1699,-6.1699,-6.1699,-6.1699,-6.1699,-6.1699,-6.1055,-5.9883,-5.8223,-5.8008,-5.7441,-5.6601,-5.6601,-5.6601,-5.6601,-5.6601,-5.6601,-5.6601,-5.6601,-5.6601,-5.6601,-5.6601,-5.6601,-5.6601,-5.6601,-5.6601,-5.6601,0.0,0.0,0.0,0.0,0.0,0.0,0.0,0.0,0.0,0.0,0.0,0.0,0.0,0.0,0.0,0.0,0.0,0.0,0.0,0.0,0.0,0.0,0.0,0.0,0.0,0.0,0.0,0.0,0.0,0.0,0.0,0.0,0.0,0.0,0.0,0.0,0.0,0.0,0.0,0.0,0.0,0.0,0.0,0.0,0.0,0.0,0.0,0.0,0.0,0.0,0.0,-4.6387,-4.7734,-4.9277,-5.0996,-5.3203,0.0,-5.6816,-5.8535,-5.9961,-6.1211,-6.2187,-6.2715,-6.3027,-6.3125,-6.3535,-6.3262,-6.1055,-5.9687,0.0,-5.7012,-5.6133,0.0,0.0,0.0,0.0,-6.039,-6.0683,-6.0801,0.0,-6.1406,0.0,-6.039,-6.0801,-6.1094,0.0,-6.0976,-6.1172,-6.168,-6.1699,-6.1699,-6.1699,-6.1699,-6.1523,-6.1133,-6.0293,-5.9219,-5.789,-5.7519,-5.707,-5.6601,-5.6601,-5.6601,-5.6601,0.0,-5.6601,-5.6601,-5.6601,-5.6601,-5.6601,-5.6601,-5.6601,-5.6601,-5.6601,-5.6601,-5.6601,0.0,0.0,0.0,0.0,0.0,0.0,0.0,0.0,0.0,0.0,0.0,0.0,0.0,0.0,0.0,0.0,0.0,0.0,0.0,0.0,0.0,0.0,0.0,0.0,0.0,0.0,0.0,0.0,0.0,0.0,0.0,0.0,0.0,0.0,0.0,0.0,0.0,0.0,0.0,0.0,0.0,0.0,0.0,0.0,0.0,0.0,0.0,0.0,0.0,0.0,-4.8027,-4.8301,-4.9394,-5.1348,-5.3574,-5.543,-5.7051,-5.8574,-6.0156,-6.1113,-6.1738,-6.1836,-6.2265,-6.2461,-6.1699,-6.1269,-6.0508,-5.8711,0.0,-5.4707,-5.4492,-5.3301,-5.2949,-5.4668,0.0,-5.5351,-5.873,-5.8633,-5.9082,-6.1426,-6.1699,-6.1699,-6.1699,-6.1015,-6.0898,-6.164,-6.1699,-6.1699,-6.1699,-6.1699,-6.1699,-6.1699,-6.1699,-6.123,-6.0254,-5.9551,-5.8691,-5.7715,-5.6953,-5.6601,-5.6601,-5.6601,-5.6601,-5.6601,-5.6601,-5.6601,-5.6601,-5.6601,-5.6601,-5.6601,-5.6601,-5.6601,-5.6601,-5.6601,-5.6601,-5.6601,0.0,0.0,0.0,0.0,0.0,0.0,0.0,0.0,0.0,0.0,0.0,0.0,0.0,0.0,0.0,0.0,0.0,0.0,0.0,0.0,0.0,0.0,0.0,0.0,0.0,0.0,0.0,0.0,0.0,0.0,0.0,0.0,0.0,0.0,0.0,0.0,0.0,0.0,0.0,0.0,0.0,0.0,0.0,0.0,0.0,0.0,0.0,0.0,0.0,0.0,-5.0195,-5.1133,-5.3457,-5.498,-5.6406,-5.8808,-5.9726,-6.0195,-6.1191,-6.1582,-6.1875,-6.2598,-6.1797,-6.0801,-6.0664,-5.9004,0.0,0.0,-5.2891,-5.1641,-5.0273,-5.0351,-5.1191,-5.2871,-5.4238,-5.6035,-5.8808,-5.9648,-6.039,0.0,-6.1699,-6.1699,-6.1699,-6.1562,0.0,0.0,-6.1699,-6.1699,-6.1699,-6.1699,-6.1699,-6.1699,-6.1699,-6.0957,-5.9414,-5.9277,-5.8398,-5.6816,-5.668,-5.6601,-5.6601,-5.6601,-5.6601,-5.6601,-5.6601,0.0,-5.6601,-5.6601,-5.6601,-5.6601,-5.6601,-5.6601,-5.6601,-5.6601,-5.6601,-5.6601,0.0,0.0,0.0,0.0,0.0,0.0,0.0,0.0,0.0,0.0,0.0,0.0,0.0,0.0,0.0,0.0,0.0,0.0,0.0,0.0,0.0,0.0,0.0,0.0,0.0,0.0,0.0,0.0,0.0,0.0,0.0,0.0,0.0,0.0,0.0,0.0,0.0,0.0,0.0,0.0,0.0,0.0,0.0,0.0,0.0,0.0,0.0,0.0,0.0,0.0,-5.0723,-5.1855,-5.4473,-5.6211,-5.7617,-5.9277,-6.0078,-6.0586,-6.1465,-6.1699,-6.1699,-6.166,-6.0703,-5.9414,-5.8066,0.0,0.0,-5.1836,-5.0332,-4.9316,-4.8965,-4.9238,0.0,-5.2344,-5.416,-5.6211,-5.8828,-5.9883,0.0,-6.1601,-6.1699,-6.1699,0.0,-6.1699,-6.1699,-6.1699,-6.1699,-6.1699,-6.1699,-6.1699,-6.1699,-6.1699,-6.1699,-6.0898,-5.9219,-5.9199,-5.832,-5.6601,-5.6601,-5.6601,-5.6601,-5.6601,-5.6601,-5.6601,-5.6601,-5.6601,-5.6601,-5.6601,-5.6601,-5.6601,-5.6601,-5.6601,-5.6601,-5.6601,-5.6601,-5.6601,0.0,0.0,0.0,0.0,0.0,0.0,0.0,0.0,0.0,0.0,0.0,0.0,0.0,0.0,0.0,0.0,0.0,0.0,0.0,0.0,0.0,0.0,0.0,0.0,0.0,0.0,0.0,-3.8033,0.0,0.0,0.0,0.0,0.0,0.0,0.0,0.0,0.0,0.0,0.0,0.0,0.0,0.0,0.0,0.0,0.0,0.0,0.0,0.0,0.0,0.0,-5.0332,-5.1289,-5.3691,-5.5781,-5.7558,-5.8613,-5.9492,-6.0332,-6.1191,-6.1562,-6.1484,-6.0625,-5.9648,-5.8242,-5.5625,-5.3535,-5.168,-4.998,-4.8398,-4.7539,-4.8223,0.0,-4.9121,0.0,-5.3183,-5.5176,-5.7969,-5.9238,-6.0254,0.0,-6.1582,0.0,-6.1699,-6.1699,0.0,-6.1699,-6.1699,-6.1699,-6.1699,-6.1699,-6.1699,-6.1699,-6.1699,-6.0898,-5.9219,-5.9199,-5.832,-5.6601,-5.6601,-5.6601,-5.6601,-5.6601,-5.6601,-5.6601,-5.6601,-5.6601,-5.6601,-5.6601,-5.6601,-5.6601,-5.6601,-5.6601,-5.6601,-5.6601,-5.6601,-5.6601,0.0,0.0,0.0,0.0,0.0,0.0,0.0,0.0,0.0,0.0,0.0,0.0,0.0,0.0,0.0,0.0,0.0,0.0,0.0,0.0,0.0,0.0,0.0,0.0,0.0,0.0,0.0,-3.7114,-3.7194,0.0,0.0,0.0,0.0,0.0,0.0,-4.1191,0.0,0.0,0.0,0.0,0.0,0.0,0.0,0.0,0.0,0.0,0.0,0.0,0.0,0.0,0.0,-4.9433,-5.1191,-5.3496,-5.5879,-5.7539,0.0,0.0,-6.0293,-6.1094,-6.1484,-6.0625,-5.9199,-5.7324,-5.4726,-5.2207,-4.9941,-4.8203,-4.707,-4.6445,-4.6523,-4.6543,-4.7129,0.0,0.0,-5.1836,-5.5195,-5.707,-5.8711,-6.0332,0.0,0.0,-6.1699,-6.1699,-6.1699,-6.1699,-6.1699,-6.1699,-6.1699,-6.1699,-6.1699,-6.1699,-6.1699,-6.0898,-5.9219,-5.9199,-5.832,-5.6601,-5.6601,-5.6601,-5.6601,-5.6601,-5.6601,-5.6601,-5.6601,-5.6601,0.0,-5.6601,-5.6601,-5.6601,-5.6601,-5.6601,-5.6601,-5.6601,-5.6601,-5.6601,0.0,0.0,0.0,0.0,0.0,0.0,0.0,0.0,0.0,0.0,0.0,0.0,0.0,0.0,0.0,0.0,0.0,0.0,0.0,0.0,0.0,0.0,0.0,0.0,0.0,0.0,0.0,-3.6998,-3.707,0.0,0.0,0.0,0.0,0.0,0.0,-4.1191,-4.1191,0.0,0.0,0.0,0.0,0.0,0.0,0.0,0.0,0.0,0.0,0.0,0.0,0.0,0.0,0.0,-4.9512,-5.0605,0.0,0.0,-5.6953,-5.8047,-5.9902,-6.0644,-6.0723,-5.9883,-5.7988,-5.5644,-5.3027,-5.0469,-4.8281,-4.707,-4.6543,-4.6308,-4.6308,-4.6308,-4.6699,0.0,0.0,0.0,-5.2617,-5.4453,-5.6387,-5.8633,-5.9668,0.0,0.0,0.0,-6.1699,-6.1699,-6.1699,-6.1699,-6.1699,-6.1699,-6.1465,-6.0937,-6.0918,-6.0117,-5.8437,-5.8418,-5.7812,-5.6601,-5.6601,-5.6601,-5.6601,-5.6601,-5.6601,-5.6601,-5.6601,-5.6601,0.0,-5.6601,-5.6601,-5.6601,-5.6601,-5.6601,-5.6601,-5.6601,-5.6601,-5.6601,0.0,0.0,0.0,0.0,0.0,0.0,0.0,0.0,0.0,0.0,0.0,0.0,0.0,0.0,0.0,0.0,0.0,0.0,0.0,0.0,0.0,0.0,0.0,0.0,0.0,0.0,0.0,0.0,0.0,-3.8429,0.0,0.0,-4.0582,-4.1191,0.0,0.0,0.0,0.0,0.0,0.0,0.0,0.0,0.0,0.0,0.0,0.0,0.0,0.0,0.0,0.0,0.0,0.0,0.0,0.0,0.0,0.0,-5.4765,-5.6289,-5.832,-5.9453,-5.9785,-5.8691,-5.666,-5.4238,0.0,0.0,-4.7344,-4.6484,-4.6308,-4.6308,-4.6308,-4.6308,-4.6504,0.0,0.0,-4.9101,-5.0801,-5.2539,-5.459,0.0,0.0,-5.9199,0.0,-6.1543,-6.1699,-6.1699,-6.1699,-6.1582,-6.1328,-6.1328,-6.1035,-6.043,-6.039,-5.9609,-5.793,-5.789,-5.7461,-5.6601,-5.6601,-5.6601,-5.6601,-5.6601,-5.6601,-5.6601,-5.6601,-5.6601,0.0,-5.6601,-5.6601,-5.6601,-5.6601,-5.6601,-5.6601,-5.6601,-5.6601,-5.6601,0.0,0.0,0.0,0.0,0.0,0.0,0.0,0.0,0.0,0.0,0.0,0.0,0.0,0.0,0.0,0.0,0.0,0.0,0.0,0.0,0.0,0.0,0.0,0.0,0.0,0.0,0.0,0.0,0.0,0.0,0.0,-4.109,-4.1123,-4.1191,0.0,0.0,0.0,0.0,0.0,0.0,0.0,0.0,0.0,0.0,0.0,0.0,0.0,0.0,0.0,0.0,0.0,0.0,0.0,0.0,0.0,0.0,-5.2031,-5.4219,-5.5117,-5.7246,-5.8808,-5.7051,-5.5312,-5.3359,0.0,0.0,-4.7344,-4.6484,-4.6308,-4.6308,-4.6308,-4.6308,-4.6308,-4.6308,-4.7031,0.0,-4.9961,-5.166,-5.3672,0.0,0.0,-5.7617,-6.0176,-6.1191,-6.1699,-6.1699,-6.1699,0.0,-6.0469,-6.041,-6.041,-6.039,-6.039,-5.9609,-5.793,-5.789,-5.7461,-5.6601,-5.6601,-5.6601,-5.6601,-5.6601,-5.6601,-5.6601,-5.6601,-5.6601,0.0,-5.6601,-5.6601,-5.6601,-5.6601,-5.6601,-5.6601,-5.6601,-5.6601,-5.6601,0.0,0.0,0.0,0.0,0.0,0.0,0.0,0.0,0.0,0.0,0.0,0.0,0.0,0.0,0.0,0.0,0.0,0.0,0.0,0.0,0.0,0.0,0.0,0.0,0.0,0.0,0.0,0.0,0.0,0.0,0.0,0.0,0.0,-4.1191,-4.1191,-4.1191,0.0,0.0,0.0,0.0,0.0,0.0,0.0,0.0,0.0,0.0,0.0,0.0,0.0,0.0,0.0,0.0,0.0,0.0,0.0,0.0,0.0,0.0,-5.3867,-5.5019,-5.5508,-5.4961,-5.3516,-5.1719,-4.9766,0.0,-4.6621,-4.6367,-4.6308,-4.6308,-4.6308,-4.6308,-4.6504,-4.709,-4.7422,0.0,0.0,0.0,0.0,-5.457,-5.7402,-5.9746,0.0,0.0,-6.1699,-6.1699,-6.1152,-6.0683,-6.041,-5.9883,-5.9316,-5.8711,-5.8691,-5.8144,-5.7012,-5.7012,-5.6875,-5.6601,-5.6601,-5.6601,-5.6601,-5.6601,-5.6601,-5.6601,-5.6601,-5.6601,-5.6601,-5.6601,-5.6601,-5.6601,-5.6601,-5.6601,-5.6601,-5.6601,-5.6601,-5.6601,0.0,0.0,0.0,0.0,0.0,0.0,0.0,0.0,0.0,0.0,0.0,0.0,0.0,0.0,0.0,0.0,0.0,0.0,0.0,0.0,0.0,0.0,0.0,0.0,0.0,0.0,0.0,0.0,0.0,0.0,0.0,0.0,0.0,0.0,0.0,0.0,0.0,0.0,0.0,0.0,0.0,0.0,-4.6308,0.0,0.0,0.0,0.0,0.0,0.0,0.0,0.0,0.0,0.0,0.0,0.0,0.0,-4.7441,0.0,0.0,-5.2539,-5.2949,-5.2637,-5.1504,0.0,0.0,0.0,0.0,0.0,-4.6308,-4.6308,-4.6308,-4.6308,-4.6484,-4.7012,-4.7109,-4.7637,0.0,0.0,0.0,-5.4219,0.0,0.0,0.0,-6.1328,-6.1699,-6.1699,-6.0898,-6.0273,-5.9961,-5.9473,-5.8652,-5.7441,-5.7734,-5.7637,-5.7109,-5.6758,-5.6601,-5.6601,-5.6601,-5.6601,-5.6601,-5.6601,-5.6601,-5.6601,-5.6601,-5.6601,0.0,-5.6601,-5.6601,-5.6601,-5.6601,-5.6601,-5.6601,-5.6601,-5.6601,-5.6601,0.0,0.0,0.0,0.0,0.0,0.0,0.0,0.0,0.0,0.0,0.0,0.0,0.0,0.0,0.0,0.0,0.0,0.0,0.0,0.0,0.0,0.0,0.0,0.0,0.0,0.0,0.0,0.0,-3.9385,-4.0242,-4.1114,0.0,0.0,0.0,0.0,0.0,0.0,0.0,0.0,0.0,0.0,0.0,0.0,0.0,0.0,0.0,0.0,0.0,0.0,0.0,0.0,0.0,0.0,0.0,0.0,0.0,0.0,0.0,0.0,0.0,0.0,0.0,0.0,0.0,0.0,0.0,0.0,0.0,0.0,0.0,0.0,-4.6308,-4.6328,-4.6387,-4.6445,-4.7344,0.0,-5.041,0.0,0.0,-5.8359,0.0,-5.9199,-6.0683,-6.168,-6.1601,-6.0801,-5.9961,-5.914,-5.9101,-5.8379,-5.6738,-5.748,-5.7871,-5.7812,-5.6992,-5.6601,-5.6601,-5.6601,-5.6601,-5.6601,-5.6601,-5.6601,0.0,-5.6601,-5.6601,-5.6601,-5.6601,-5.6601,-5.6601,-5.6601,-5.6601,-5.6601,-5.6601,-5.6601,-5.6601,0.0,0.0,0.0,0.0,0.0,0.0,0.0,0.0,0.0,0.0,0.0,0.0,0.0,0.0,0.0,0.0,0.0,0.0,0.0,0.0,0.0,0.0,0.0,0.0,0.0,0.0,0.0,-3.8575,-3.9447,-4.0316,-4.117,-4.1191,0.0,0.0,0.0,0.0,0.0,0.0,0.0,0.0,0.0,0.0,0.0,0.0,0.0,0.0,-4.6308,-4.6308,0.0,0.0,0.0,0.0,0.0,0.0,0.0,0.0,-4.5312,-4.5391,-4.5801,0.0,-4.8457,-4.8262,-4.8066,-4.7676,0.0,0.0,0.0,0.0,0.0,0.0,0.0,0.0,0.0,-4.7187,-4.7851,-4.873,-5.0019,0.0,0.0,-5.6113,-5.8711,-5.9824,-5.8359,-6.0312,-6.1426,-6.0762,-5.9941,-5.9101,-5.8242,-5.8203,-5.8027,-5.7617,-5.7793,-5.7578,-5.6914,-5.6699,-5.6601,-5.6601,-5.6601,-5.6601,-5.6601,-5.6601,-5.6601,-5.6601,-5.6601,-5.6601,-5.6601,-5.6601,-5.6601,-5.6601,-5.6601,-5.6601,-5.6601,-5.6601,-5.6601,-5.6601,0.0,0.0,0.0,0.0,0.0,0.0,0.0,0.0,0.0,0.0,0.0,0.0,0.0,0.0,0.0,0.0,0.0,0.0,0.0,0.0,0.0,0.0,0.0,0.0,0.0,0.0,0.0,0.0,0.0,-4.074,0.0,0.0,0.0,0.0,0.0,0.0,0.0,0.0,0.0,0.0,-4.5449,0.0,0.0,0.0,0.0,0.0,-4.6308,-4.6308,0.0,-4.6308,-4.6308,-4.6308,0.0,0.0,0.0,0.0,-4.4726,-4.4394,-4.4394,-4.5371,-4.6504,-4.6894,-4.6992,-4.6875,0.0,0.0,0.0,0.0,0.0,0.0,0.0,0.0,0.0,0.0,-4.8008,0.0,0.0,0.0,-5.6074,-5.6543,-5.8515,-5.9648,0.0,-6.0664,-6.1348,-6.0469,-5.9648,-5.8984,-5.8515,-5.8496,-5.8496,-5.8496,-5.8496,-5.8086,-5.7207,-5.6797,-5.6601,-5.6601,-5.6601,-5.6601,-5.6601,-5.6601,-5.6601,-5.6601,-5.6601,-5.6601,-5.6601,-5.6601,-5.6601,-5.6601,-5.6601,-5.6601,-5.6601,-5.6601,-5.6601,-5.6601,0.0,0.0,0.0,0.0,0.0,0.0,0.0,0.0,0.0,0.0,0.0,0.0,0.0,0.0,0.0,0.0,0.0,0.0,0.0,0.0,0.0,0.0,0.0,0.0,0.0,0.0,0.0,0.0,0.0,0.0,0.0,0.0,0.0,0.0,0.0,0.0,0.0,0.0,0.0,0.0,-4.5996,0.0,0.0,0.0,0.0,0.0,0.0,0.0,0.0,-4.6308,-4.6308,-4.6308,-4.6308,0.0,0.0,0.0,0.0,0.0,-4.3496,-4.4141,-4.5019,-4.5879,-4.6191,-4.6308,0.0,0.0,0.0,0.0,0.0,0.0,0.0,0.0,0.0,0.0,0.0,0.0,-5.1992,-5.5058,-5.6953,-5.6816,-5.8457,0.0,-5.998,-6.1035,-6.1289,-6.0293,-5.959,-5.914,-5.9004,-5.9121,-5.914,-5.9004,-5.9121,-5.8711,-5.7715,-5.6973,-5.6601,-5.6601,-5.6601,-5.6601,-5.6601,-5.6601,-5.6601,-5.6601,0.0,0.0,-5.6601,-5.6601,-5.6601,-5.6601,-5.6601,-5.6601,-5.6601,-5.6601,-5.6601,-5.6601,0.0,0.0,0.0,0.0,0.0,0.0,0.0,0.0,0.0,0.0,0.0,0.0,0.0,0.0,0.0,0.0,0.0,0.0,0.0,0.0,0.0,0.0,0.0,0.0,0.0,0.0,0.0,0.0,0.0,0.0,-4.1191,-4.1191,-4.1191,0.0,0.0,0.0,0.0,-4.457,-4.543,-4.6113,-4.625,0.0,0.0,0.0,0.0,0.0,0.0,0.0,0.0,-4.6308,-4.6308,-4.6308,-4.6308,0.0,0.0,0.0,0.0,0.0,-4.2598,-4.3242,-4.4101,-4.498,-4.5742,-4.6308,0.0,0.0,0.0,0.0,0.0,0.0,0.0,0.0,0.0,0.0,0.0,-5.2246,0.0,0.0,-5.8535,-5.7793,0.0,-6.0527,-5.8476,-6.0351,-6.1055,-5.9492,-5.9277,-5.8887,-5.8144,-5.8808,-5.8867,-5.8125,-5.8828,-5.8437,-5.6816,-5.668,-5.6601,-5.6601,-5.6601,-5.6601,-5.6601,-5.6601,-5.6601,-5.6601,0.0,-5.6601,-5.6601,-5.6601,-5.6601,-5.6601,-5.6601,-5.6601,-5.6601,-5.6601,-5.6601,-5.6601,0.0,0.0,0.0,0.0,0.0,0.0,0.0,0.0,0.0,0.0,0.0,0.0,0.0,0.0,0.0,0.0,0.0,0.0,0.0,0.0,0.0,0.0,0.0,0.0,0.0,0.0,0.0,0.0,0.0,-4.1191,-4.1191,-4.1191,-4.1191,-4.1269,0.0,0.0,0.0,-4.5137,-4.5937,-4.6308,0.0,0.0,0.0,0.0,0.0,0.0,0.0,0.0,0.0,0.0,-4.6308,-4.6308,-4.6308,0.0,0.0,0.0,0.0,0.0,-4.1758,-4.2715,-4.3808,-4.4199,-4.5312,-4.6308,0.0,0.0,0.0,0.0,0.0,0.0,0.0,0.0,0.0,0.0,0.0,-5.4902,-5.6914,-5.7949,-5.8359,0.0,0.0,-6.0058,-5.9316,-6.0742,-6.0996,-5.9336,-5.9199,-5.8828,-5.7949,-5.8281,-5.8535,-5.8594,-5.8535,-5.8105,-5.7305,-5.6836,-5.6601,-5.6601,-5.6601,-5.6601,-5.6601,-5.6601,-5.6601,-5.6601,0.0,-5.6601,-5.6601,-5.6601,-5.6328,-5.5898,-5.5898,-5.5898,-5.5957,-5.6426,-5.6601,-5.6601,0.0,0.0,0.0,0.0,0.0,0.0,0.0,0.0,0.0,0.0,0.0,0.0,0.0,0.0,0.0,0.0,0.0,0.0,0.0,0.0,0.0,0.0,0.0,0.0,0.0,0.0,0.0,-3.9902,-4.0762,-4.1191,-4.1191,-4.1191,-4.1191,0.0,0.0,0.0,0.0,-4.5332,-4.6113,-4.6308,0.0,0.0,0.0,0.0,0.0,0.0,0.0,0.0,0.0,0.0,0.0,0.0,0.0,0.0,0.0,-4.3691,-4.2519,-4.1191,-4.1191,-4.2422,-4.3691,-4.3691,0.0,-4.6308,0.0,0.0,0.0,0.0,0.0,0.0,0.0,0.0,0.0,-5.375,-5.5605,-5.6816,-5.7402,-5.8242,-5.8789,-5.8789,-5.9375,-6.0039,-6.0644,-6.1113,-6.0781,-5.9316,-5.9004,-5.8594,-5.7949,-5.789,-5.8203,-5.8867,-5.8242,-5.7793,-5.7598,-5.6933,-5.6601,-5.6601,-5.6601,-5.6601,-5.6601,-5.6601,-5.6601,-5.6601,-5.6601,-5.6484,-5.6308,-5.6308,-5.5898,-5.5293,-5.5293,-5.543,-5.5683,-5.6348,-5.6601,-5.6601,0.0,0.0,0.0,0.0,0.0,0.0,0.0,0.0,0.0,0.0,0.0,0.0,0.0,0.0,0.0,0.0,0.0,0.0,0.0,0.0,0.0,0.0,0.0,0.0,0.0,-3.8057,-3.8955,-3.9902,-4.0762,-4.1191,-4.1191,-4.1191,-4.1191,-4.123,0.0,0.0,0.0,-4.4707,-4.5566,-4.6308,-4.6308,0.0,0.0,0.0,0.0,0.0,0.0,0.0,0.0,0.0,0.0,0.0,0.0,0.0,-4.3691,-4.3691,-4.2519,-4.1191,-4.1191,-4.2422,-4.3691,-4.3691,0.0,0.0,0.0,0.0,0.0,0.0,0.0,0.0,0.0,0.0,-5.123,-5.4648,-5.5996,-5.7422,-5.9785,0.0,-6.1426,-6.1426,-6.1484,-6.1543,-6.1601,-6.0937,-6.0137,-5.9277,-5.8457,-5.7969,-5.789,-5.789,-5.793,-5.7988,-5.793,-5.7519,-5.6699,-5.6621,-5.6601,-5.6601,-5.6601,-5.6601,-5.6601,-5.6601,-5.6601,-5.6601,-5.6601,-5.6133,-5.539,-5.539,-5.5351,-5.5293,-5.5293,-5.5781,-5.6504,-5.6582,-5.6601,-5.6601,0.0,0.0,0.0,0.0,0.0,0.0,0.0,0.0,0.0,0.0,0.0,0.0,0.0,0.0,0.0,0.0,0.0,0.0,0.0,0.0,0.0,0.0,0.0,-3.7249,-3.7923,-3.8315,-3.9209,-4.0644,-4.1016,-4.1191,-4.1191,-4.1191,0.0,0.0,0.0,0.0,0.0,-4.4394,-4.5195,-4.5547,-4.6074,-4.6308,0.0,0.0,0.0,0.0,0.0,0.0,0.0,0.0,-4.6308,-4.6308,0.0,-4.5098,-4.3691,-4.3691,-4.2519,-4.1191,-4.1191,-4.2422,-4.3691,-4.3691,0.0,0.0,0.0,0.0,0.0,0.0,0.0,0.0,0.0,0.0,-5.2891,-5.6348,-5.7656,-5.8926,-6.0937,-6.1484,-6.1699,-6.1699,-6.1211,-6.0898,-6.0898,-6.0137,-5.9297,-5.8457,-5.8086,-5.7656,-5.7129,-5.709,-5.709,-5.709,-5.709,-5.6933,-5.6601,-5.6601,-5.6601,-5.6601,-5.6601,-5.6601,-5.6601,-5.6601,-5.6601,-5.6601,-5.6601,-5.6406,-5.6113,-5.6113,-5.5781,-5.5293,-5.5293,-5.5508,-5.5859,-5.6406,-5.6601,-5.6598,0.0,0.0,0.0,0.0,0.0,0.0,0.0,0.0,0.0,0.0,0.0,0.0,0.0,0.0,0.0,0.0,0.0,0.0,0.0,0.0,0.0,0.0,0.0,-3.7375,-3.8371,-3.8736,-3.963,-4.1091,-4.1171,-4.1191,-4.1191,0.0,0.0,0.0,0.0,0.0,0.0,0.0,-4.4492,-4.5058,-4.5644,-4.6055,0.0,0.0,0.0,0.0,0.0,0.0,0.0,0.0,0.0,0.0,0.0,0.0,0.0,0.0,-4.2519,-4.1269,-4.1504,-4.2617,-4.3769,0.0,0.0,0.0,0.0,0.0,0.0,0.0,0.0,0.0,0.0,0.0,0.0,0.0,-5.8223,-5.9297,-6.0703,-6.0918,-6.0918,-6.0918,-6.0371,-6.0019,-6.0019,-5.9277,-5.8535,-5.7949,-5.7656,-5.7226,-5.6621,-5.6601,-5.6601,-5.6601,-5.6601,-5.6601,-5.6601,-5.6601,-5.6465,-5.6191,-5.6191,-5.6328,-5.6601,-5.6601,-5.6445,-5.6191,-5.6484,-5.6289,-5.5801,-5.6074,-5.584,-5.5332,-5.5605,-5.5703,-5.5781,-5.6338,-5.6537,-5.6527,0.0,0.0,0.0,0.0,0.0,0.0,0.0,0.0,0.0,0.0,0.0,0.0,0.0,0.0,0.0,0.0,0.0,0.0,0.0,0.0,0.0,0.0,0.0,-3.7366,-3.8369,-3.9324,-4.0242,-4.1108,-4.1169,-4.1191,-4.1191,0.0,0.0,0.0,0.0,0.0,0.0,0.0,0.0,-4.498,-4.498,-4.5527,-4.6289,0.0,0.0,0.0,0.0,0.0,0.0,0.0,-4.6308,0.0,0.0,0.0,0.0,0.0,-4.2519,-4.1387,-4.2187,-4.3047,0.0,0.0,0.0,0.0,0.0,0.0,0.0,0.0,0.0,0.0,0.0,0.0,0.0,-5.6172,-5.7324,-5.8203,-5.9082,-5.9199,-5.9199,-5.9199,-5.9199,-5.9199,-5.9199,-5.8398,-5.789,-5.789,-5.709,-5.6601,-5.6582,-5.6601,-5.6582,-5.6582,-5.6582,-5.6601,-5.6582,-5.6601,-5.6172,-5.5312,-5.5293,-5.5742,-5.6582,-5.6582,-5.6113,-5.5351,-5.6191,-5.5605,-5.4082,-5.4941,-5.5312,-5.539,-5.6269,-5.6601,-5.6575,-5.6462,-5.6398,-5.6385,0.0,0.0,0.0,0.0,0.0,0.0,0.0,0.0,0.0,0.0,0.0,0.0,0.0,0.0,0.0,0.0,0.0,0.0,0.0,0.0,0.0,0.0,0.0,0.0,0.0,0.0,-4.0834,-4.1103,-4.1171,-4.1191,0.0,0.0,0.0,-4.1191,0.0,0.0,0.0,0.0,0.0,-4.3281,-4.4512,-4.5156,-4.5449,0.0,0.0,0.0,0.0,0.0,0.0,0.0,0.0,0.0,0.0,0.0,0.0,-4.2969,-4.2422,-4.2109,-4.2344,-4.3476,0.0,0.0,0.0,0.0,0.0,0.0,0.0,0.0,0.0,0.0,0.0,0.0,0.0,-5.6367,-5.7324,-5.8203,-5.9082,-5.9199,-5.9199,-5.9199,-5.8652,-5.8281,-5.8281,-5.75,-5.6992,-5.6992,-5.6758,-5.6328,-5.5723,-5.6269,-5.6035,-5.4805,-5.5957,-5.6308,-5.5683,-5.6289,-5.6465,-5.6211,-5.5586,-5.5449,-5.5664,-5.5058,-5.4961,-5.5273,-5.4922,-5.4824,-5.4979,-5.5753,-5.6063,-5.6093,-5.6261,-5.632,-5.6305,-5.6258,-5.6261,-5.6227,0.0,0.0,0.0,0.0,0.0,0.0,0.0,0.0,0.0,0.0,0.0,0.0,0.0,0.0,0.0,0.0,0.0,0.0,0.0,0.0,0.0,0.0,0.0,0.0,0.0,-4.0521,-4.1091,0.0,0.0,0.0,0.0,0.0,0.0,-4.1191,0.0,-4.1191,0.0,0.0,0.0,-4.2519,-4.3926,-4.4687,-4.5058,0.0,0.0,0.0,0.0,0.0,0.0,0.0,0.0,0.0,0.0,0.0,0.0,-4.2969,-4.2676,-4.2558,-4.3242,0.0,0.0,0.0,0.0,0.0,0.0,0.0,0.0,0.0,0.0,0.0,-5.4355,-5.4668,0.0,-5.6406,-5.7031,-5.7578,-5.8086,-5.8164,-5.8164,-5.8164,-5.7402,-5.6875,-5.6875,-5.6387,-5.6074,-5.6074,-5.6074,-5.5859,-5.5332,-5.5421,-5.5007,-5.3947,-5.4948,-5.5234,-5.4707,-5.5273,-5.5377,-5.4968,-5.4788,-5.4495,-5.4112,-5.402,-5.4101,-5.4258,-5.4014,-5.4409,-5.5277,-5.602,-5.6309,-5.6325,-5.622,-5.6199,-5.618,-5.6102,-5.6074,-5.6071,0.0,0.0,0.0,0.0,0.0,0.0,0.0,0.0,0.0,0.0,0.0,0.0,0.0,0.0,0.0,0.0,0.0,0.0,0.0,0.0,0.0,0.0,0.0,0.0,0.0,0.0,0.0,0.0,0.0,0.0,0.0,0.0,-4.1191,-4.1191,0.0,-4.1191,0.0,0.0,0.0,-4.2363,-4.3223,-4.4062,-4.4766,-4.4844,0.0,0.0,0.0,0.0,0.0,0.0,0.0,0.0,0.0,0.0,0.0,-4.3262,-4.3027,-4.2851,0.0,0.0,0.0,0.0,0.0,0.0,0.0,0.0,0.0,0.0,0.0,-5.4238,-5.5039,-5.4531,-5.4531,-5.6211,-5.6484,-5.6504,-5.6582,-5.6601,-5.6601,-5.6601,-5.582,-5.5293,-5.5293,-5.5234,-5.5175,-5.5151,-5.515,-5.5112,-5.5037,-5.4245,-5.3706,-5.3572,-5.3705,-5.3745,-5.365,-5.3866,-5.3501,-5.2626,-5.3319,-5.3181,-5.2338,-5.337,-5.3377,-5.2593,-5.3417,-5.4222,-5.5032,-5.5841,-5.6168,-5.6167,-5.6167,-5.6148,-5.6128,-5.5955,-5.5876,-5.5857,0.0,0.0,0.0,0.0,0.0,0.0,0.0,0.0,0.0,0.0,0.0,0.0,0.0,0.0,0.0,0.0,0.0,0.0,0.0,0.0,0.0,0.0,0.0,0.0,0.0,0.0,0.0,0.0,0.0,0.0,0.0,0.0,0.0,-4.1191,0.0,-4.1191,0.0,0.0,0.0,-4.1523,-4.2344,-4.2793,-4.3027,-4.3711,-4.3984,0.0,0.0,0.0,0.0,0.0,0.0,0.0,0.0,-4.2695,-4.2305,-4.1875,-4.2539,-4.3496,0.0,0.0,0.0,0.0,0.0,0.0,0.0,0.0,0.0,0.0,0.0,-5.4062,-5.4258,-5.4121,-5.4355,-5.541,-5.5586,-5.582,-5.6504,-5.6601,-5.6601,-5.6601,-5.582,-5.5293,-5.5293,-5.4687,-5.4244,-5.4125,-5.4119,-5.3767,-5.2995,-5.3379,-5.3039,-5.1722,-5.2962,-5.3314,-5.2633,-5.3323,-5.3584,-5.3351,-5.287,-5.2512,-5.2297,-5.255,-5.2224,-5.1534,-5.3005,-5.3746,-5.4026,-5.5403,-5.5962,-5.5955,-5.5838,-5.5799,-5.5799,-5.5761,-5.5742,-5.5742,0.0,0.0,0.0,0.0,0.0,0.0,0.0,0.0,0.0,0.0,0.0,0.0,0.0,0.0,0.0,0.0,0.0,0.0,0.0,0.0,0.0,0.0,0.0,0.0,0.0,0.0,0.0,0.0,0.0,0.0,0.0,0.0,0.0,-4.1191,0.0,-4.1191,0.0,0.0,0.0,0.0,-4.207,-4.2402,-4.2441,-4.2891,-4.3086,-4.3027,-4.2637,0.0,0.0,0.0,0.0,0.0,0.0,0.0,-4.1816,-4.1777,-4.2695,-4.3789,0.0,0.0,0.0,0.0,0.0,0.0,0.0,0.0,0.0,0.0,-5.2226,-5.4004,-5.4004,-5.4004,-5.4141,-5.4609,-5.4687,-5.4844,-5.5293,-5.5351,-5.5351,-5.5351,-5.4532,-5.3954,-5.3954,-5.3488,-5.3148,-5.3097,-5.3084,-5.2855,-5.2332,-5.192,-5.1486,-5.101,-5.1433,-5.1661,-5.1635,-5.2138,-5.2371,-5.2313,-5.2239,-5.2184,-5.2106,-5.1838,-5.1499,-5.1175,-5.2361,-5.3121,-5.3584,-5.4761,-5.5453,-5.5799,-5.5722,-5.5703,-5.5703,-5.5703,-5.5703,-5.5703,0.0,0.0,0.0,0.0,0.0,0.0,0.0,0.0,0.0,0.0,0.0,0.0,0.0,0.0,0.0,0.0,0.0,0.0,0.0,0.0,0.0,0.0,0.0,0.0,0.0,0.0,0.0,0.0,0.0,0.0,0.0,0.0,0.0,-4.1191,0.0,0.0,0.0,0.0,0.0,0.0,0.0,0.0,0.0,-4.2187,-4.2187,-4.2109,-4.1445,-4.1621,-4.2187,-4.2187,0.0,0.0,0.0,0.0,-4.1328,-4.1992,-4.2793,-4.3672,0.0,0.0,0.0,0.0,0.0,0.0,0.0,0.0,0.0,0.0,-5.1269,-5.334,-5.334,-5.3457,-5.3594,-5.375,-5.3789,-5.3827,-5.3946,-5.3963,-5.3969,-5.3939,-5.3055,-5.2471,-5.2454,-5.21,-5.1866,-5.1847,-5.1702,-5.1607,-5.1568,-5.0163,-4.9663,-5.0394,-4.9721,-4.9683,-5.0414,-5.0529,-5.0529,-5.0433,-5.1241,-5.1645,-5.1683,-5.1221,-5.1029,-5.1068,-5.176,-5.2472,-5.3201,-5.3972,-5.4664,-5.528,-5.5434,-5.5491,-5.5511,-5.5645,-5.5703,-5.5703,0.0,0.0,0.0,0.0,0.0,0.0,0.0,0.0,0.0,0.0,0.0,0.0,0.0,0.0,0.0,0.0,0.0,0.0,-3.5493,0.0,0.0,-3.6941,0.0,0.0,0.0,0.0,0.0,0.0,0.0,0.0,0.0,0.0,0.0,-4.1191,0.0,0.0,0.0,0.0,0.0,0.0,0.0,0.0,0.0,-4.1367,-4.1367,-4.1348,-4.123,-4.1269,-4.1367,-4.1367,-4.1367,0.0,0.0,0.0,-4.1211,-4.1328,-4.1933,-4.2754,0.0,0.0,0.0,0.0,0.0,0.0,0.0,0.0,0.0,0.0,-4.9863,-5.0703,-5.0703,-5.1289,-5.1992,-5.2754,-5.2871,-5.3093,-5.3751,-5.3829,-5.3781,-5.3662,-5.2864,-5.2324,-5.2338,-5.1008,-5.0081,-4.9965,-4.9256,-4.8796,-4.8663,-4.8432,-4.8355,-4.8471,-4.8355,-4.8355,-4.8471,-4.849,-4.849,-4.849,-4.9356,-5.0144,-5.0856,-5.0779,-5.0741,-5.0798,-5.1587,-5.1991,-5.2183,-5.3029,-5.3433,-5.3606,-5.4376,-5.4664,-5.4741,-5.5434,-5.5703,-5.5703,0.0,0.0,0.0,0.0,0.0,0.0,0.0,0.0,0.0,0.0,0.0,0.0,0.0,0.0,0.0,-3.5493,-3.5493,-3.5493,-3.5493,-3.5501,-3.588,-3.6708,-3.6741,0.0,0.0,0.0,0.0,0.0,0.0,0.0,0.0,-4.1171,-4.1191,0.0,0.0,0.0,0.0,0.0,0.0,0.0,0.0,0.0,0.0,0.0,-4.1191,-4.1191,-4.1191,-4.1191,-4.1191,-4.1191,-4.1191,-4.1191,-4.1191,0.0,0.0,0.0,-4.1777,0.0,0.0,0.0,0.0,0.0,0.0,0.0,0.0,0.0,0.0,-4.7441,-4.8144,-4.8887,-4.9375,-4.9766,-5.0107,-5.041,-5.0461,-5.0547,-5.0798,-5.125,-5.1355,-5.0801,-5.0758,-5.06,-5.0105,-4.9335,-4.8817,-4.8778,-4.8412,-4.8144,-4.8105,-4.7682,-4.7625,-4.8086,-4.7663,-4.7644,-4.8105,-4.8105,-4.8105,-4.8105,-4.849,-4.9125,-4.9952,-4.9471,-4.9779,-5.0721,-5.1068,-5.1491,-5.1933,-5.2318,-5.276,-5.3241,-5.3626,-5.378,-5.3876,-5.4722,-5.503,-5.5088,0.0,0.0,0.0,0.0,0.0,0.0,0.0,0.0,0.0,0.0,0.0,0.0,0.0,0.0,0.0,0.0,-3.5493,-3.5493,-3.5493,-3.5493,-3.5776,-3.6372,-3.6411,-3.6727,0.0,0.0,0.0,0.0,0.0,0.0,-4.1105,-4.1151,-4.1172,0.0,-4.1191,0.0,0.0,0.0,0.0,0.0,0.0,0.0,0.0,0.0,0.0,0.0,-4.1191,-4.1191,-4.1191,-4.1191,-4.1191,-4.1191,-4.1191,-4.1191,0.0,0.0,0.0,0.0,0.0,0.0,0.0,0.0,0.0,0.0,0.0,0.0,-4.6308,0.0,-4.6783,-4.7416,-4.8064,-4.8552,-4.8814,-4.872,-4.8658,-4.8585,-4.8468,-4.9003,-4.9163,-4.8471,-4.8894,-4.8951,-4.8297,-4.7971,-4.7798,-4.7798,-4.7586,-4.7451,-4.7451,-4.6894,-4.6836,-4.7451,-4.6874,-4.6855,-4.7451,-4.7451,-4.7586,-4.7798,-4.7798,-4.824,-4.9048,-4.8394,-4.8817,-5.0048,-5.026,-5.0702,-5.1279,-5.151,-5.1991,-5.2587,-5.2799,-5.2876,-5.2991,-5.3857,-5.4164,-5.428,0.0,0.0,0.0,0.0,0.0,0.0,0.0,0.0,0.0,0.0,0.0,0.0,0.0,-3.5493,-3.5493,-3.5493,-3.5493,-3.5493,-3.5493,-3.5493,-3.5526,-3.5565,-3.5565,0.0,-3.5631,0.0,0.0,0.0,0.0,0.0,-4.1101,-4.1105,-4.1111,-4.1113,-4.1172,-4.1191,-4.1191,0.0,0.0,0.0,0.0,0.0,0.0,0.0,0.0,0.0,0.0,-4.1191,-4.1191,-4.1191,-4.1191,-4.1191,-4.1191,-4.1191,-4.1191,0.0,0.0,0.0,0.0,0.0,0.0,0.0,0.0,0.0,0.0,0.0,0.0,-4.6308,-4.623,-4.6191,-4.623,-4.761,-4.8709,-4.8694,-4.8581,-4.8465,-4.8332,-4.8352,-4.8297,-4.8144,-4.8144,-4.8163,-4.8105,-4.7413,-4.6971,-4.6971,-4.6201,-4.572,-4.572,-4.5682,-4.5682,-4.572,-4.5682,-4.5682,-4.572,-4.572,-4.6144,-4.6971,-4.6971,-4.7394,-4.8163,-4.8125,-4.8144,-4.8279,-4.9106,-4.949,-4.9586,-5.0414,-5.0779,-5.0914,-5.1683,-5.1972,-5.2087,-5.2953,-5.328,-5.3395,0.0,0.0,0.0,0.0,0.0,0.0,0.0,0.0,0.0,0.0,0.0,0.0,0.0,-3.5493,-3.5493,-3.5493,-3.5493,-3.5493,-3.5493,-3.5493,-3.5493,-3.5493,-3.5493,-3.5501,-3.5502,0.0,0.0,0.0,0.0,-3.9818,-4.1033,-4.1085,-4.1099,-4.1103,-4.1132,-4.1152,-4.1191,-4.1191,0.0,0.0,0.0,0.0,0.0,0.0,0.0,0.0,0.0,-4.1191,-4.1191,-4.1191,-4.1191,-4.1191,-4.1191,-4.1191,-4.1191,-4.1191,-4.1406,-4.1738,0.0,0.0,0.0,0.0,0.0,0.0,0.0,-4.6308,-4.6307,-4.6292,-4.6221,-4.6143,-4.6116,-4.654,-4.6888,-4.6846,-4.6795,-4.6718,-4.6584,-4.7046,-4.7163,-4.6567,-4.699,-4.7105,-4.6547,-4.622,-4.6067,-4.6067,-4.5778,-4.5586,-4.5586,-4.5586,-4.5586,-4.5586,-4.5586,-4.5586,-4.5586,-4.5586,-4.5759,-4.6067,-4.6067,-4.6509,-4.7317,-4.674,-4.6797,-4.7355,-4.7663,-4.8413,-4.9413,-4.974,-5.0202,-5.0721,-5.101,-5.1125,-5.1221,-5.2068,-5.2375,-5.2568,0.0,0.0,0.0,0.0,0.0,0.0,0.0,0.0,0.0,0.0,0.0,0.0,0.0,0.0,-3.5493,-3.5493,-3.5493,-3.5493,-3.5493,-3.5493,-3.5493,-3.5493,-3.5493,-3.5636,-3.5894,0.0,0.0,0.0,0.0,0.0,0.0,-4.1047,-4.1078,-4.1091,-4.1108,-4.1132,0.0,0.0,0.0,-4.1191,0.0,0.0,-4.1191,0.0,0.0,0.0,-4.1601,-4.1797,-4.2031,-4.2031,-4.1836,-4.1601,-4.1601,-4.1426,-4.1191,-4.1191,-4.1191,-4.1328,-4.1855,0.0,0.0,0.0,0.0,0.0,0.0,0.0,-4.5855,-4.5852,-4.5978,-4.6092,-4.6044,-4.5891,-4.5809,-4.5808,-4.5757,-4.5699,-4.5605,-4.6105,-4.624,-4.5663,-4.6105,-4.624,-4.5663,-4.5586,-4.5586,-4.5586,-4.5586,0.0,-4.5586,-4.5586,-4.5586,-4.5586,-4.5586,-4.5586,-4.5586,-4.5586,-4.5586,-4.5586,-4.5586,-4.5893,-4.6432,-4.5855,-4.5913,-4.6471,-4.6471,-4.7259,-4.8586,-4.8856,-4.9298,-4.9856,-5.0144,-5.026,-5.0356,-5.1183,-5.151,-5.1702,0.0,0.0,0.0,0.0,0.0,0.0,0.0,0.0,0.0,0.0,0.0,0.0,0.0,0.0,0.0,-3.5493,-3.5493,-3.5493,-3.5493,-3.5493,-3.5493,-3.5493,-3.5512,-3.5911,-3.668,0.0,0.0,0.0,0.0,0.0,0.0,0.0,-4.1022,-4.1049,-4.1084,-4.1111,-4.1152,0.0,-4.1191,-4.1191,0.0,-4.1211,-4.123,0.0,0.0,-4.2441,-4.2441,-4.2988,-4.3691,-4.3691,-4.3144,-4.2422,-4.2402,-4.1855,-4.1191,-4.1191,-4.1191,-4.1191,0.0,0.0,0.0,0.0,0.0,0.0,-4.3691,0.0,-4.4977,-4.5,-4.5464,-4.5873,-4.5852,-4.5719,-4.5642,-4.5738,-4.568,-4.5586,-4.5586,-4.5586,-4.5586,-4.5586,-4.5586,-4.5586,-4.5586,-4.5586,-4.5586,-4.5586,-4.5586,-4.5586,-4.5586,-4.5586,-4.5586,-4.5586,-4.5586,-4.5586,-4.5586,-4.5586,-4.5586,-4.5586,-4.5586,-4.5586,-4.5586,-4.5586,-4.5586,-4.5586,-4.5586,-4.6086,-4.6932,-4.774,-4.8086,-4.8202,-4.9067,-4.9394,-4.951,-5.0375,-5.0702,-5.0818,0.0,0.0,0.0,0.0,0.0,0.0,0.0,0.0,0.0,0.0,0.0,0.0,0.0,0.0,-3.5493,-3.5493,-3.5493,-3.5493,-3.5493,-3.5493,-3.5493,-3.5493,-3.6065,-3.6469,-3.6699,0.0,0.0,0.0,0.0,0.0,0.0,0.0,0.0,0.0,-4.0826,-4.0798,-4.0293,-4.0937,0.0,-4.1191,-4.1191,-4.1543,0.0,0.0,0.0,-4.334,-4.334,-4.3496,-4.3691,-4.3691,-4.3535,-4.3223,-4.2598,-4.1855,-4.1191,-4.1191,-4.1191,-4.1191,-4.1191,0.0,0.0,0.0,0.0,0.0,0.0,0.0,-4.4238,-4.4876,-4.5064,-4.5086,-4.5034,-4.5379,-4.5459,-4.4814,-4.5201,-4.5586,-4.5586,-4.5586,-4.5586,-4.5586,-4.5586,-4.5586,-4.5586,-4.5586,-4.5586,0.0,-4.5586,-4.5586,-4.5586,-4.5586,-4.5586,-4.5586,-4.5586,-4.5586,-4.5586,-4.5586,-4.5586,-4.5586,-4.5586,-4.5586,-4.5586,-4.5586,-4.5586,-4.5586,-4.5586,-4.574,-4.6028,-4.6874,-4.7567,-4.8202,-4.9067,-4.9394,-4.951,-5.0375,-5.0702,-5.0818,0.0,0.0,0.0,0.0,0.0,0.0,0.0,0.0,0.0,0.0,0.0,0.0,0.0,0.0,-3.5493,-3.5493,-3.5493,-3.5493,-3.5493,-3.5493,-3.5493,-3.5493,-3.6276,-3.6873,-3.7238,0.0,0.0,0.0,0.0,0.0,0.0,0.0,0.0,0.0,0.0,0.0,0.0,0.0,0.0,0.0,-4.1562,0.0,0.0,-4.2793,-4.3476,0.0,-4.4238,-4.4473,-4.4785,-4.4785,-4.4531,-4.4023,-4.2793,-4.207,-4.1621,-4.1308,-4.1191,-4.1191,-4.1191,-4.1191,-4.1308,-4.1777,0.0,0.0,-4.2539,-4.293,-4.3301,0.0,-4.4094,-4.4239,-4.417,-4.4423,-4.4581,-4.4333,-4.472,-4.5182,-4.5547,-4.5586,-4.5586,-4.5586,-4.5586,-4.5586,-4.5586,-4.5586,-4.5586,-4.5586,-4.5586,-4.5586,-4.5586,-4.5586,-4.5586,-4.5586,-4.5586,-4.5586,-4.5586,-4.5586,-4.5586,-4.5586,-4.5586,-4.5586,-4.5586,-4.5586,-4.5586,-4.5586,-4.5586,-4.5586,-4.5624,-4.6144,-4.6624,-4.7182,-4.8394,-4.8856,-4.9009,-5.024,-5.0702,-5.076,0.0,0.0,0.0,0.0,0.0,0.0,0.0,0.0,0.0,0.0,0.0,0.0,0.0,0.0,0.0,0.0,-3.5551,-3.5493,-3.5493,-3.5493,-3.5532,-3.5641,-3.6411,-3.7257,-3.8123,-3.9003,0.0,0.0,0.0,0.0,0.0,0.0,0.0,0.0,0.0,0.0,0.0,0.0,0.0,-4.1269,-4.207,-4.2461,0.0,0.0,-4.4394,-4.5137,-4.5137,-4.5644,-4.6308,-4.6308,-4.5723,-4.4726,-4.3183,-4.2617,-4.2402,-4.1699,-4.1484,-4.1484,-4.1484,-4.1484,-4.1484,-4.1484,-4.1406,0.0,-4.1328,-4.1816,-4.2285,0.0,-4.2923,-4.3344,-4.3291,-4.3247,-4.3376,-4.3943,-4.4179,-4.4622,-4.547,-4.5586,-4.5586,-4.5586,-4.5586,-4.5586,-4.5586,-4.5586,-4.5586,-4.5586,-4.5586,-4.5586,-4.5586,-4.5586,-4.5586,-4.5586,-4.5586,-4.5586,-4.5586,-4.5586,-4.5586,-4.5586,-4.5586,-4.5586,-4.5586,-4.5586,-4.5586,-4.5586,-4.5586,-4.5586,-4.5586,-4.5586,-4.5586,-4.5759,-4.7355,-4.8029,-4.8298,-4.9952,-5.0606,-5.0702,-4.0489,0.0,0.0,0.0,0.0,0.0,0.0,0.0,0.0,0.0,0.0,0.0,0.0,0.0,0.0,0.0,-3.5872,-3.5493,-3.5493,-3.5493,-3.5795,-3.6449,-3.7296,-3.8142,-3.9027,-3.9903,0.0,0.0,0.0,0.0,0.0,0.0,0.0,0.0,0.0,0.0,0.0,0.0,0.0,-4.1269,-4.207,-4.2812,-4.3535,-4.4414,-4.5293,-4.6055,-4.6055,-4.6152,-4.6308,-4.6308,-4.5723,-4.4941,-4.4609,-4.4004,-4.3418,-4.3262,-4.3203,-4.3203,-4.3203,-4.3203,-4.3203,-4.3203,-4.2676,0.0,-4.2168,-4.1797,-4.1621,0.0,-4.2478,-4.2539,-4.2512,-4.2937,-4.3092,-4.255,-4.355,-4.4669,-4.5488,-4.5586,-4.5586,-4.5586,-4.5586,-4.5586,-4.5586,-4.5586,-4.5586,-4.5586,-4.5586,-4.5586,-4.5586,-4.5586,-4.5586,-4.5586,-4.5586,-4.5586,-4.5586,-4.5586,-4.5586,-4.5586,-4.5586,-4.5586,-4.5586,-4.5586,-4.5586,-4.5586,-4.5586,-4.5586,-4.5586,-4.5586,-4.5586,-4.5701,-4.674,-4.7528,-4.824,-4.926,-5.0087,-5.0702,-4.0489,0.0,0.0,0.0,0.0,0.0,0.0,0.0,0.0,0.0,0.0,0.0,0.0,0.0,0.0,0.0,-3.6334,-3.593,-3.5545,-3.5892,-3.6276,-3.668,-3.795,-3.8854,-3.9277,-4.0149,-3.9971,0.0,0.0,0.0,0.0,0.0,0.0,0.0,0.0,0.0,0.0,0.0,-4.0801,-4.1308,-4.2558,0.0,-4.3848,-4.5156,-4.5918,-4.6308,-4.6308,-4.6308,-4.6308,-4.6308,-4.6016,-4.5566,-4.5137,-4.4707,-4.4258,-4.3828,-4.3691,-4.3691,-4.3691,-4.3691,-4.3691,-4.3691,-4.3379,0.0,0.0,-4.209,-4.1797,-4.1797,-4.1757,-4.1694,-4.1667,-4.1935,-4.2129,-4.2055,-4.2667,-4.3453,-4.4286,-4.5101,-4.5432,-4.4989,-4.5336,-4.5432,-4.4989,-4.5336,-4.5586,-4.5586,-4.5586,-4.5586,-4.5586,-4.5586,-4.5586,-4.5586,-4.5586,-4.5586,-4.5586,-4.5586,-4.5586,-4.5586,-4.5586,-4.5586,-4.5586,-4.5586,-4.5586,-4.5586,-4.5586,-4.5586,-4.5586,-4.5586,-4.5586,-4.5682,-4.6567,-4.7163,-4.7663,-4.8933,-4.9683,-5.0106,-4.0489,0.0,0.0,0.0,0.0,0.0,0.0,0.0,0.0,0.0,0.0,0.0,0.0,0.0,0.0,-3.7469,-3.6988,-3.6584,-3.6257,-3.668,-3.7026,-3.7199,-3.8546,-3.9373,-3.9527,-4.0226,-3.9865,-3.835,0.0,0.0,0.0,0.0,0.0,0.0,0.0,0.0,0.0,0.0,0.0,-4.1348,0.0,-4.3691,-4.3887,-4.5644,-4.6308,-4.6308,-4.6308,-4.6308,-4.6308,-4.6308,-4.6308,-4.6172,-4.5469,-4.5254,-4.5117,-4.4414,-4.4199,-4.4199,-4.4199,-4.4199,-4.4199,-4.4199,-4.4062,-4.3769,0.0,0.0,0.0,-4.1601,0.0,0.0,-4.1062,0.0,0.0,-4.1791,0.0,0.0,0.0,-4.4206,0.0,-4.4374,-4.4778,-4.497,-4.4586,-4.5182,-4.5586,-4.5586,-4.5586,-4.5586,-4.5586,-4.5586,-4.5586,-4.5586,-4.5586,-4.5586,-4.5586,-4.5586,-4.5586,-4.5586,-4.5586,-4.5586,-4.5586,-4.5586,-4.5586,-4.5586,-4.5586,-4.5586,-4.5586,-4.5586,-4.5586,-4.5663,-4.6374,-4.6759,-4.7086,-4.8586,-4.926,-4.951,-4.0489,-4.0489,0.0,0.0,0.0,0.0,0.0,0.0,0.0,0.0,0.0,0.0,0.0,-3.8892,-3.8565,-3.995,-3.8007,-3.7315,-3.8757,-3.8238,-3.82,-3.8969,-3.9181,-3.9623,-4.0335,-4.0506,-4.0158,-3.9239,0.0,0.0,0.0,0.0,0.0,0.0,-4.0918,0.0,0.0,0.0,-4.1113,0.0,-4.3027,-4.3691,0.0,-4.5644,-4.6308,-4.6308,-4.6308,-4.6308,-4.6308,-4.6308,-4.6308,-4.6289,-4.6172,-4.6152,-4.6133,-4.6035,-4.5996,-4.5996,-4.5996,-4.5996,-4.5996,-4.5996,-4.543,-4.4824,-4.4726,0.0,-4.3301,-4.2441,0.0,-4.2012,-4.123,0.0,0.0,0.0,0.0,0.0,-4.2124,-4.2897,-4.3694,-4.4237,-4.3758,-4.3932,-4.5316,-4.5528,-4.5586,-4.5586,-4.5586,-4.5586,-4.5586,-4.5586,-4.5586,-4.5586,-4.5586,-4.5586,-4.5586,-4.5586,-4.5586,-4.5586,-4.5586,-4.5586,-4.5586,-4.5586,-4.5586,-4.5586,-4.5586,-4.5586,-4.5586,-4.5586,-4.5586,-4.5605,-4.5701,-4.622,-4.7009,-4.7913,-4.874,-4.951,-4.0489,-4.0489,0.0,0.0,0.0,0.0,0.0,0.0,0.0,0.0,0.0,0.0,-4.1162,-4.0623,-4.0277,-4.0469,-3.9508,-3.8796,-3.8565,-3.8681,-3.8911,-3.9277,-3.9738,-4.0142,-4.0489,-4.0569,-4.0221,-3.947,-3.9915,0.0,0.0,0.0,0.0,0.0,-4.0886,0.0,-4.1191,0.0,-4.1465,0.0,0.0,-4.4004,0.0,-4.582,-4.6308,-4.6308,-4.6308,-4.6308,-4.6308,0.0,-4.6308,-4.6308,-4.6308,-4.6308,-4.6308,-4.6308,-4.6308,-4.6308,-4.6308,-4.6308,-4.6308,-4.6308,-4.6016,-4.5625,-4.5117,-4.4726,-4.4219,-4.332,0.0,0.0,0.0,0.0,0.0,0.0,-4.1301,-4.1447,0.0,0.0,-4.2093,-4.2822,0.0,0.0,-4.549,-4.5586,-4.5586,-4.5586,-4.5586,-4.5586,-4.5586,-4.5586,-4.5586,-4.5586,-4.5586,-4.5586,-4.5586,-4.5586,-4.5586,-4.5586,-4.5586,-4.5586,-4.5586,-4.5586,-4.5586,-4.5586,-4.5586,-4.5586,-4.5586,-4.5586,-4.5586,-4.5586,-4.5586,-4.5817,-4.624,-4.7086,-4.7932,-4.8779,-4.0489,-4.0489,-4.0489,0.0,0.0,0.0,0.0,0.0,0.0,0.0,0.0,0.0,-4.17,-4.1585,-4.147,-4.1527,-4.1123,-4.0431,-3.9469,-3.9777,-3.9873,-3.9642,-4.0181,-4.0489,-4.0489,-4.0573,-4.0356,-3.9843,-3.9915,0.0,0.0,0.0,0.0,0.0,0.0,-4.1147,-4.1211,0.0,-4.1875,-4.25,-4.3613,-4.457,-4.543,-4.6055,-4.6308,-4.6308,-4.6308,-4.6308,-4.6308,-4.6308,-4.6308,0.0,-4.6308,-4.6308,-4.6308,-4.6308,-4.6308,-4.6308,-4.6308,-4.6308,-4.6308,-4.6308,-4.6308,-4.6133,-4.5508,-4.5351,-4.5117,-4.4238,-4.3555,0.0,0.0,0.0,-4.1464,-4.1455,0.0,-4.0998,0.0,-4.0896,0.0,0.0,0.0,0.0,0.0,-4.4913,-4.5009,-4.522,-4.5028,-4.5009,-4.522,-4.524,-4.5336,-4.5586,-4.5586,-4.5586,-4.5586,-4.5586,-4.5586,-4.5586,-4.5355,-4.5355,-4.5586,-4.5336,-4.5355,-4.5586,-4.5586,-4.5586,-4.5586,-4.5586,-4.5586,-4.5586,-4.5586,-4.5586,-4.5701,-4.6586,-4.7413,-4.8221,-4.0489,-4.0489,-4.0489,0.0,0.0,0.0,0.0,0.0,0.0,0.0,0.0,-4.0835,-4.17,-4.1046,-4.1508,-4.397,-4.2701,-4.2085,-4.2874,-4.2181,-4.1335,-4.0489,-4.0489,-4.0489,-4.0489,-4.0573,-4.0626,-4.0655,-4.08,0.0,0.0,0.0,0.0,0.0,0.0,-4.1191,-4.125,-4.2031,-4.2383,-4.2558,-4.4277,-4.5488,-4.6269,0.0,-4.6308,-4.6308,-4.6308,0.0,0.0,-4.6308,-4.6308,0.0,0.0,0.0,0.0,-4.6308,-4.6308,-4.6308,-4.6308,-4.6308,-4.6308,-4.6308,-4.6308,-4.6289,-4.6269,-4.6269,-4.6016,-4.5137,-4.4941,-4.4668,-4.3808,-4.2949,-4.2363,-4.2363,-4.1652,0.0,0.0,-4.098,-4.1235,-4.1918,-4.2666,0.0,0.0,-4.3181,-4.3508,-4.4278,-4.3624,-4.3528,-4.4297,-4.4335,-4.472,-4.5566,-4.5586,-4.5586,-4.5586,-4.5586,-4.5586,-4.5586,-4.4739,-4.4778,-4.5566,-4.472,-4.4797,-4.5586,-4.5586,-4.5586,-4.5586,-4.5586,-4.5586,-4.5586,-4.5586,-4.5586,-4.5701,-4.6586,-4.7413,-4.8221,0.0,-4.0489,-4.0489,0.0,0.0,0.0,0.0,-4.1354,0.0,-4.2874,-4.3008,-4.3566,-4.5028,-4.4393,-4.422,-4.5086,-4.4105,-4.3355,-4.3124,-4.2277,-4.1681,-4.1373,-4.0796,-4.0489,-4.0489,-4.0523,-4.0579,-4.0694,-4.0796,0.0,0.0,0.0,0.0,0.0,0.0,-4.1504,0.0,0.0,0.0,0.0,0.0,-4.6035,-4.6308,0.0,-4.6308,-4.6308,-4.6308,-4.6308,0.0,-4.6308,-4.6308,-4.6308,-4.6308,-4.6308,-4.6308,-4.6308,-4.6308,-4.6308,0.0,0.0,-4.6308,-4.6308,0.0,-4.6308,-4.6308,-4.6308,-4.6211,-4.5918,-4.5391,-4.4902,-4.4609,-4.3848,-4.3066,-4.248,-4.2145,-4.1746,0.0,-4.1033,-4.1062,-4.1256,-4.1867,-4.251,0.0,0.0,-4.3201,-4.3489,-4.3258,-4.3451,-4.4259,-4.4297,-4.4701,-4.5566,-4.5586,-4.5586,-4.5586,-4.5028,-4.4739,-4.472,-4.3893,-4.3662,-4.3951,-4.4182,-4.4451,-4.4759,-4.5336,-4.5586,-4.5586,-4.5586,-4.5586,-4.5586,-4.5586,-4.5586,-4.5624,-4.5932,-4.6586,-4.7509,-4.0546,-4.0489,0.0,0.0,0.0,0.0,0.0,0.0,-4.3085,-4.4162,-4.4566,-4.5316,-4.674,-4.6394,-4.6182,-4.6451,-4.5701,-4.4874,-4.4047,-4.3162,-4.2566,-4.2277,-4.1431,-4.095,-4.095,-4.0677,-4.0579,-4.0694,-4.0776,-4.0878,0.0,0.0,0.0,0.0,0.0,-4.1641,-4.2422,-4.2734,-4.3691,0.0,0.0,-4.6308,0.0,0.0,-4.6308,-4.6308,0.0,-4.6308,-4.6308,-4.6308,-4.6308,-4.6308,-4.6308,-4.6308,-4.6308,-4.6308,-4.6308,-4.6308,-4.6308,-4.6308,0.0,-4.6308,-4.6308,0.0,-4.6308,-4.6308,-4.6308,-4.6308,-4.5859,-4.5469,-4.5469,-4.4746,-4.3887,-4.3008,-4.2597,-4.2106,0.0,-4.1055,-4.1006,-4.0949,-4.1269,-4.1812,-4.2603,-4.2383,-4.2332,-4.2624,-4.2354,-4.2662,0.0,-4.3874,-4.4393,-4.5547,-4.5586,-4.5586,-4.5586,-4.4739,-4.4297,-4.4297,-4.3162,-4.2797,-4.3124,-4.3643,-4.4028,-4.4355,-4.522,-4.5586,-4.5586,-4.5586,-4.5586,-4.5586,-4.5586,-4.5586,-4.5586,-4.5586,-4.6144,-4.7105,0.0,0.0,0.0,0.0,-4.1277,0.0,0.0,0.0,-4.4412,-4.4547,-4.5297,-4.6182,-4.7048,-4.7067,-4.7336,-4.8105,-4.7394,-4.6547,-4.572,-4.4797,-4.3951,-4.3181,-4.2335,-4.1873,-4.1873,-4.1058,-4.0703,-4.0771,0.0,0.0,0.0,0.0,0.0,0.0,-4.1191,0.0,-4.2519,-4.3359,-4.4238,-4.5137,-4.5976,-4.6308,-4.6308,-4.6308,-4.6308,-4.6308,-4.6308,-4.6308,-4.6308,-4.6308,-4.6308,-4.6308,-4.6308,-4.6308,-4.6308,-4.6308,-4.6308,-4.6308,-4.6308,-4.6308,-4.6308,-4.6308,-4.6308,0.0,0.0,0.0,-4.6308,-4.6308,-4.6308,-4.6308,-4.6308,-4.5625,-4.4785,-4.3906,-4.3008,-4.2108,-4.1214,-4.1091,-4.1074,-4.1006,-4.0888,-4.1086,-4.1779,-4.1099,-4.092,-4.1681,-4.0969,-4.1258,0.0,-4.3104,-4.3874,-4.5547,-4.5586,-4.5586,-4.5586,-4.4701,-4.4239,-4.422,-4.2547,-4.2181,-4.297,-4.3066,-4.3528,-4.4297,-4.5201,-4.5586,-4.5586,-4.5586,-4.5586,-4.5586,-4.5586,-4.5586,-4.5586,-4.5586,-4.6144,-4.7009,-4.1508,-4.147,-4.1662,0.0,-4.2085,-4.222,0.0,0.0,0.0,-4.7836,-4.8836,-4.9702,-5.0529,-4.951,-4.8836,-4.9048,-4.774,-4.6817,-4.6586,-4.5143,-4.4201,-4.3989,-4.3201,-4.2777,-4.2777,-4.1931,-4.157,-4.173,-4.1125,0.0,-4.1071,0.0,0.0,0.0,0.0,0.0,-4.3379,-4.3613,-4.457,-4.5996,-4.6211,-4.6308,-4.6308,0.0,-4.6308,-4.6308,-4.6308,-4.6308,-4.6308,-4.6308,-4.6308,-4.6308,-4.6308,-4.6308,-4.6308,-4.6308,-4.6308,-4.6308,-4.6308,-4.6308,-4.6308,-4.6308,-4.6308,-4.6308,0.0,0.0,0.0,0.0,-4.6308,-4.6308,-4.6308,-4.6113,-4.5683,-4.4805,-4.3398,-4.2109,-4.1229,-4.1101,-4.1085,-4.1074,-4.0994,-4.0984,-4.1067,-4.0816,-4.0737,-4.0887,-4.0703,-4.1305,-4.2999,0.0,-4.3874,-4.5547,-4.5586,-4.5586,-4.5586,-4.4143,-4.3412,-4.3393,-4.1662,-4.095,-4.12,-4.2508,-4.3201,-4.3489,-4.4951,-4.5586,-4.5586,-4.5586,-4.5586,-4.5586,-4.5586,-4.5586,-4.5586,-4.5586,-4.6144,-4.6932,-4.245,0.0,0.0,-4.3547,0.0,0.0,-4.5297,-4.6144,0.0,-4.9163,-4.9817,-5.0298,-5.076,-5.0317,-4.9971,-4.9971,-4.8413,-4.7432,-4.7432,-4.5817,-4.4874,-4.4874,-4.4066,-4.3624,-4.3624,-4.2486,-4.1956,-4.2102,-4.1285,0.0,-4.1111,0.0,0.0,0.0,0.0,-4.1914,-4.3183,-4.3945,-4.5058,-4.6308,-4.6308,-4.6308,0.0,-4.6308,-4.6308,-4.6308,-4.6308,-4.6308,-4.6308,-4.6308,-4.6308,-4.6308,-4.6308,-4.6308,-4.6308,-4.6308,-4.6308,-4.6308,-4.6308,-4.6308,-4.6308,-4.6308,-4.6308,-4.6308,-4.6308,-4.6308,-4.6308,0.0,-4.6308,-4.6308,0.0,-4.6308,-4.6016,-4.5137,-4.3867,-4.2793,-4.2305,-4.2243,-4.2099,-4.1716,-4.1636,-4.1415,-4.0924,-4.0796,-4.0726,-4.0654,-4.0617,0.0,0.0,0.0,-4.3682,-4.4989,-4.5393,-4.5586,-4.5586,-4.4278,-4.3451,-4.3085,-4.172,-4.0873,-4.0546,-4.1912,-4.2739,-4.3162,-4.447,-4.524,-4.5586,-4.5586,-4.5586,-4.5586,-4.5586,-4.5586,-4.5586,-4.5586,-4.5913,-4.6336,-4.3393,0.0,0.0,0.0,0.0,0.0,0.0,-4.8163,0.0,-4.9779,0.0,-4.9894,-4.9894,-5.0375,-5.0702,-5.0702,-4.9202,-4.8221,-4.8105,-4.6644,-4.572,-4.5586,-4.4874,-4.447,-4.447,-4.2945,-4.2193,-4.2273,-4.1421,-4.1045,0.0,0.0,0.0,0.0,0.0,0.0,0.0,-4.4316,-4.5508,-4.6308,-4.6308,-4.6308,-4.6308,-4.6308,-4.6308,-4.6308,-4.6308,-4.6308,-4.6308,-4.6308,-4.6308,-4.6308,-4.6308,-4.6308,-4.6308,-4.6308,-4.6308,-4.6308,-4.6308,-4.6308,-4.6308,-4.6308,-4.6308,-4.6308,-4.6308,-4.6308,-4.6308,-4.6308,-4.6308,-4.6308,-4.6308,-4.6308,-4.6016,-4.5137,-4.4355,-4.3828,-4.3711,-4.3691,-4.3417,-4.2661,-4.248,0.0,-4.1267,-4.0974,-4.08,-4.0739,-4.0673,0.0,0.0,0.0,-4.3368,-4.4275,-4.5045,-4.5488,-4.5603,-4.4737,-4.3984,-4.3272,-4.2294,-4.1428,-4.0696,-4.145,-4.2277,-4.3143,-4.3951,-4.4778,-4.5586,-4.5586,-4.5586,-4.5586,-4.5586,-4.5586,-4.5586,-4.5586,-4.5586,-4.5586,0.0,0.0,0.0,0.0,0.0,-4.9433,-5.0818,-5.1144,-5.1548,-5.2414,-5.2529,-5.2529,-5.2529,-5.1433,-5.0702,-5.0702,-4.976,-4.8875,-4.8144,-4.7201,-4.6355,-4.5624,-4.5451,-4.5355,-4.5355,-4.3816,-4.3043,-4.317,-4.1699,-4.1056,-4.1185,0.0,0.0,0.0,0.0,0.0,-4.3535,-4.457,0.0,-4.6308,-4.6308,-4.6308,-4.6308,-4.6308,-4.6308,-4.6308,-4.6308,-4.6308,-4.6308,-4.6308,-4.6308,-4.6308,-4.6308,-4.6308,-4.6308,-4.6308,-4.6308,-4.6308,-4.6308,-4.6308,-4.6308,-4.6308,-4.6308,-4.6308,-4.6308,-4.6308,-4.6308,-4.6308,-4.6308,-4.6308,-4.6308,0.0,-4.6016,-4.5137,-4.4863,-4.4512,-4.3808,-4.3691,-4.3633,-4.3496,-4.2841,-4.2337,-4.2178,-4.1435,-4.0945,-4.0878,-4.0807,0.0,0.0,0.0,-4.2869,0.0,-4.453,0.0,0.0,0.0,-4.4365,-4.4322,-4.2666,-4.1808,-4.1654,-4.1771,-4.2277,-4.3143,-4.3951,-4.4778,-4.5586,-4.5586,-4.5586,-4.5586,-4.5586,-4.5586,-4.5586,-4.5586,-4.5586,-4.5586,0.0,0.0,0.0,0.0,0.0,0.0,0.0,-5.2279,-5.2568,-5.2529,-5.1779,-5.1221,-5.1221,-5.0914,-5.0702,-5.0702,-4.949,-4.8548,-4.8125,-4.6913,-4.6028,-4.5605,-4.5586,-4.5624,-4.5699,-4.4126,-4.3574,-4.4131,-4.211,-4.135,-4.1816,0.0,0.0,0.0,0.0,-4.2519,0.0,0.0,0.0,-4.6308,-4.6308,-4.6308,-4.6308,-4.6308,-4.6308,-4.6308,-4.6308,-4.6308,-4.6308,-4.6308,-4.6308,-4.6308,-4.6308,-4.6308,-4.6308,-4.6308,-4.6308,-4.6308,-4.6308,-4.6308,-4.6308,-4.6308,-4.6308,-4.6308,-4.6308,-4.6308,-4.6308,-4.6308,-4.6308,-4.6308,-4.6308,-4.6308,0.0,0.0,-4.5664,-4.5527,-4.5117,-4.5058,-4.4883,-4.4433,-4.3592,-4.2902,-4.2438,-4.1581,-4.1011,-4.0968,-4.0888,0.0,0.0,0.0,-4.2608,0.0,0.0,0.0,-4.5815,0.0,-4.4998,-4.4639,-4.3766,-4.3125,-4.2656,-4.2171,-4.2691,-4.394,-4.3852,-4.4547,-4.5757,-4.5757,-4.5757,-4.5757,-4.5719,-4.5699,-4.5699,-4.5624,-4.5586,-4.5586,0.0,-4.5874,0.0,0.0,-4.8817,-5.0433,-5.1952,-5.2933,-5.3241,-5.2549,-5.0991,-4.9933,-4.9933,-5.0394,-5.0702,-5.0702,-4.9279,-4.8298,-4.8105,-4.6701,-4.5797,-4.5643,-4.5624,-4.5699,-4.5815,-4.4416,-4.3993,-4.4549,-4.2479,-4.1699,-4.2129,-4.1504,0.0,0.0,0.0,0.0,0.0,0.0,-4.5508,-4.6308,-4.6308,-4.6308,-4.6308,-4.6308,-4.6308,-4.6308,-4.6308,-4.6308,-4.6308,-4.6308,-4.6308,-4.6308,-4.6308,-4.6308,-4.6308,-4.6308,-4.6308,-4.6308,-4.6308,-4.6308,-4.6308,-4.6308,-4.6308,-4.6308,-4.6308,-4.6308,-4.6308,-4.6308,-4.6308,-4.6308,-4.6308,-4.6308,0.0,0.0,-4.6308,-4.6308,-4.6308,-4.6308,-4.6055,-4.5351,-4.4336,-4.3436,-4.2741,-4.173,-4.1072,-4.1039,-4.0976,0.0,-4.0849,0.0,0.0,0.0,0.0,-4.5052,-4.5924,0.0,-4.5628,-4.5013,-4.482,-4.4356,-4.3672,-4.2781,-4.3225,-4.4664,-4.397,-4.4519,-4.5889,-4.5889,-4.5889,-4.5889,-4.5831,-4.5822,-4.5815,-4.5699,-4.5643,-4.5643,0.0,0.0,0.0,0.0,0.0,-5.1991,-5.2933,-5.3818,-5.4357,-5.426,-5.2741,-5.1683,-5.1683,-5.1087,-5.0702,-5.0702,-4.9817,-4.8933,-4.8144,-4.7278,-4.6471,-4.5815,-4.5776,-4.5815,-4.5892,-4.5105,-4.4339,-4.3707,-4.2752,-4.1953,-4.1308,-4.123,-4.1191,0.0,0.0,0.0,0.0,-4.4629,-4.5508,-4.6308,-4.6308,-4.6308,-4.6308,-4.6308,-4.6308,-4.6308,-4.6308,-4.6308,-4.6308,-4.6308,-4.6308,-4.6308,-4.6308,-4.6308,-4.6308,-4.6308,-4.6308,-4.6308,-4.6308,-4.6308,-4.6308,-4.6308,-4.6308,-4.6308,-4.6308,-4.6308,-4.6308,-4.6308,-4.6308,-4.6308,-4.6308,-4.6308,-4.6308,0.0,-4.6308,-4.6308,-4.6308,-4.6308,-4.6269,-4.6191,-4.4707,-4.3672,-4.3594,-4.2087,-4.1101,-4.1085,-4.1075,0.0,0.0,0.0,0.0,-4.3447,-4.4323,-4.5201,-4.608,-4.6085,-4.608,-4.6047,-4.5208,-4.4754,-4.4637,-4.3697,-4.3808,-4.4692,-4.4606,-4.5083,-4.5901,-4.5901,-4.5901,-4.5901,-4.5881,-4.5899,-4.5892,-4.5873,-4.5873,-4.5873,0.0,0.0,0.0,0.0,0.0,0.0,0.0,-5.3395,-5.3126,-5.3645,-5.2664,-5.1722,-5.1221,-5.0894,-5.0491,-4.9971,-4.9125,-4.8279,-4.7432,-4.6663,-4.6105,-4.5815,-4.5838,-4.591,-4.6007,-4.522,-4.4935,-4.5222,-4.3854,-4.3281,-4.3476,-4.2949,-4.2695,0.0,0.0,-4.4141,-4.4531,-4.541,-4.5976,-4.6308,-4.6308,-4.6308,-4.6308,-4.6308,-4.6308,-4.6308,-4.6308,-4.6308,-4.6308,-4.6308,-4.6308,-4.6308,-4.6308,-4.6308,-4.6308,-4.6308,-4.6308,-4.6308,-4.6308,-4.6308,-4.6308,-4.6308,-4.6308,-4.6308,-4.6308,-4.6308,-4.6308,-4.6308,-4.6308,-4.6308,-4.6308,-4.6308,-4.6308,-4.6308,0.0,-4.6308,-4.6308,-4.6308,-4.6308,-4.6308,-4.4766,-4.3691,-4.3691,-4.2167,-4.1151,-4.1168,0.0,0.0,0.0,0.0,0.0,-4.3592,0.0,-4.5332,-4.6201,-4.6216,-4.6234,-4.6258,-4.5887,-4.5692,-4.5673,-4.4767,-4.4546,-4.4917,-4.5425,-4.5835,-4.6144,-4.6144,-4.6144,-4.6124,-4.6046,-4.6021,-4.6006,-4.5936,-4.5886,-4.5899,-4.8759,0.0,-5.0125,0.0,-5.2125,-5.2991,-5.3972,-5.3299,-5.2702,-5.2799,-5.2279,-5.1587,-5.0779,-5.0702,-5.0337,-4.9471,-4.8644,-4.7817,-4.699,-4.624,-4.5853,-4.5892,-4.5938,-4.6019,-4.6157,-4.5563,-4.5468,-4.5918,-4.4687,-4.4277,-4.4609,-4.3984,0.0,0.0,-4.4609,-4.5,-4.5058,-4.5937,-4.6308,-4.6308,-4.6308,-4.6308,-4.6308,-4.6308,-4.6308,-4.6308,-4.6308,-4.6308,-4.6308,-4.6308,-4.6308,-4.6308,-4.6308,-4.6308,-4.6308,-4.6308,-4.6308,-4.6308,-4.6308,-4.6308,-4.6308,-4.6308,-4.6308,-4.6308,-4.6308,-4.6308,-4.6308,-4.6308,-4.6308,-4.6308,-4.6308,-4.6308,-4.6308,-4.6308,0.0,-4.6308,-4.6308,-4.6308,-4.6308,-4.6308,-4.498,-4.3984,-4.3711,-4.2402,-4.1445,0.0,0.0,0.0,0.0,0.0,0.0,0.0,0.0,0.0,-4.6294,-4.6294,-4.6303,-4.6308,-4.6308,-4.6308,-4.6289,-4.5664,-4.5371,-4.543,-4.6035,-4.6308,-4.6308,-4.6308,-4.6308,-4.6289,-4.6191,-4.6152,-4.6152,-4.6045,-4.6013,-4.6018,-5.0317,-5.0664,-5.1202,-5.2876,-5.3895,-5.4184,-5.3337,-5.3933,-5.3857,-5.2145,-5.1914,-5.1587,-5.0779,-5.0702,-5.0337,-4.9471,-4.8721,-4.7914,-4.7067,-4.6315,-4.5969,0.0,0.0,-4.6162,-4.6289,-4.6289,-4.5879,-4.5019,-4.498,-4.4551,-4.3711,-4.3691,-4.3691,-4.373,-4.4609,-4.5,-4.5058,-4.5937,-4.6308,-4.6308,-4.6308,-4.6308,-4.6308,-4.6308,-4.6308,-4.6308,-4.6308,-4.6308,-4.6308,-4.6308,-4.6308,-4.6308,-4.6308,-4.6308,-4.6308,-4.6308,-4.6308,-4.6308,-4.6308,-4.6308,-4.6308,-4.6308,-4.6308,-4.6308,-4.6308,-4.6308,-4.6308,-4.6308,-4.6308,-4.6308,-4.6308,-4.6308,-4.6308,-4.6308,0.0,0.0,-4.6308,-4.6308,-4.6308,-4.6308,-4.5527,-4.4648,-4.3789,-4.2891,-4.2051,0.0,0.0,0.0,0.0,0.0,0.0,-4.4961,-4.582,0.0,-4.6308,-4.6308,-4.6308,-4.6308,-4.6308,-4.6308,-4.6308,-4.6289,-4.6289,-4.6289,-4.6308,-4.6308,-4.6308,-4.6308,-4.6308,-4.6308,-4.6308,-4.6308,-4.6308,-4.6308,-4.6296,-4.6299,-5.0587,-5.1625,-5.2568,-5.3106,-5.4376,-5.503,-5.4203,-5.3818,-5.3203,-5.2049,-5.1491,-5.1106,-5.0875,-5.0856,-5.024,0.0,-4.8529,-4.7805,0.0,-4.6132,-4.6065,-4.6103,-4.6192,-4.6257,-4.6308,-4.6308,-4.6152,-4.5898,0.0,0.0,0.0,-4.5469,-4.5469,-4.5488,-4.5762,-4.5898,-4.5898,-4.6172,-4.6308,-4.6308,-4.6308,-4.6308,-4.6308,-4.6308,-4.6308,-4.6308,-4.6308,-4.6308,-4.6308,-4.6308,-4.6308,-4.6308,-4.6308,-4.6308,-4.6308,-4.6308,-4.6308,-4.6308,-4.6308,-4.6308,-4.6308,-4.6308,-4.6308,-4.6308,-4.6308,-4.6308,-4.6308,-4.6308,-4.6308,-4.6308,-4.6308,-4.6308,-4.6308,-4.6308,-4.6308,0.0,-4.6308,-4.6308,-4.6308,-4.6308,-4.5527,-4.4883,-4.4609,-4.3262,-4.2539,0.0,0.0,0.0,0.0,0.0,0.0,0.0,-4.5859,0.0,-4.6308,-4.6308,-4.6308,-4.6308,-4.6308,-4.6308,-4.6308,-4.6308,-4.6308,-4.6308,-4.6308,-4.6308,-4.6308,-4.6308,-4.6308,-4.6308,-4.6308,-4.6308,-4.6308,-4.6308,-4.6306,-4.6306,-5.1087,-5.226,-5.3299,-5.3626,-5.4549,-5.4972,-5.4145,-5.3318,-5.2491,-5.1645,-5.1183,-5.0836,-5.0526,-5.0526,0.0,-4.8501,-4.8503,-4.7827,-4.608,-4.61,-4.618,-4.618,-4.6253,-4.6308,-4.6308,-4.6308,0.0,-4.6308,-4.6308,-4.6308,-4.6308,-4.6308,-4.6308,-4.6308,-4.6308,-4.6308,-4.6308,-4.6308,-4.6308,-4.6308,-4.6308,-4.6308,-4.6308,-4.6308,-4.6308,-4.6308,-4.6308,-4.6308,-4.6308,-4.6308,-4.6308,-4.6308,-4.6308,-4.6308,-4.6308,-4.6308,-4.6308,-4.6308,-4.6308,-4.6308,-4.6308,-4.6308,-4.6308,-4.6308,-4.6308,-4.6308,-4.6308,-4.6308,-4.6308,-4.6308,-4.6308,-4.6308,-4.6308,-4.6308,-4.6308,-4.6308,-4.6308,-4.6308,-4.6308,-4.6308,-4.582,-4.5351,0.0,-4.4023,-4.3476,0.0,0.0,0.0,0.0,0.0,-4.5156,-4.5488,-4.6016,-4.6308,-4.6308,-4.6308,-4.6308,-4.6308,-4.6308,-4.6308,-4.6308,-4.6308,-4.6308,-4.6308,-4.6308,-4.6308,-4.6308,-4.6308,-4.6308,-4.6308,-4.6308,-4.6308,-4.6308,-4.6308,-4.6308,-4.6308,-5.1683,-5.2568,-5.3453,0.0,-5.4453,-5.4203,-5.3356,-5.2587,-5.1818,-5.101,-5.1029,-5.0808,-4.999,-4.9966,-4.9614,-4.861,0.0,0.0,-4.6208,-4.6228,-4.6308,-4.6308,-4.6308,-4.6308,-4.6308,-4.6308,-4.6308,-4.6308,-4.6308,-4.6308,-4.6308,-4.6308,-4.6308,-4.6308,-4.6308,-4.6308,-4.6308,-4.6308,-4.6308,-4.6308,-4.6308,-4.6308,-4.6308,-4.6308,-4.6308,-4.6308,-4.6308,-4.6308,-4.6308,-4.6308,-4.6308,-4.6308,-4.6308,-4.6308,-4.6308,-4.6308,-4.6308,-4.6308,-4.6308,-4.6308,-4.6308,-4.6308,-4.6308,-4.6308,-4.6308,-4.6308,-4.6308,-4.6308,-4.6308,-4.6308,-4.6308,-4.6308,-4.6308,-4.6308,-4.6308,-4.6308,-4.6308,-4.6308,-4.6308,-4.6308,0.0,0.0,-4.5176,-4.5039,-4.4687,0.0,0.0,0.0,0.0,0.0,-4.5469,-4.6269,-4.6308,-4.6308,-4.6308,-4.6308,-4.6308,-4.6308,-4.6308,-4.6308,-4.6308,-4.6308,-4.6308,-4.6308,-4.6308,-4.6308,-4.6308,-4.6308,-4.6308,-4.6308,-4.6308,-4.6308,-4.6308,-4.6308,-4.6308,-4.6308,0.0,0.0,-5.328,-5.3472,-5.4068,-5.4241,-5.3451,-5.2645,-5.1855,-5.1153,-5.1109,-5.1087,-5.0887,-5.0451,-4.9779,-4.8868,-4.8224,-4.7396,-4.6327,-4.6284,-4.6308,-4.6308,-4.6308,-4.6308,-4.6308,-4.6308,-4.6308,-4.6308,-4.6308,-4.6308,-4.6308,-4.6308,-4.6308,-4.6308,-4.6308,-4.6308,-4.6308,-4.6308,-4.6308,-4.6308,-4.6308,-4.6308,-4.6308,-4.6308,-4.6308,-4.6308,-4.6308,-4.6308,-4.6308,-4.6308,-4.6308,-4.6308,-4.6308,-4.6308,-4.6308,-4.6308,-4.6308,-4.6308,-4.6308,-4.6308,-4.6308,-4.6308,-4.6308,-4.6308,-4.6308,-4.6308,-4.6308,-4.6308,-4.6308,-4.6308,-4.6308,-4.6308,-4.6308,-4.6308,-4.6308,-4.6308,-4.6308,-4.6308,-4.6308,0.0,-4.6308,-4.6211,-4.6016,-4.5391,-4.5195,0.0,0.0,-4.5293,-4.5957,-4.5996,-4.6094,-4.6289,-4.6308,-4.6308,-4.6308,-4.6308,-4.6308,-4.6308,-4.6308,-4.6308,-4.6308,-4.6308,-4.6308,-4.6308,-4.6308,-4.6308,-4.6308,-4.6308,-4.6308,-4.6308,-4.6308,-4.6308,-4.6308,-4.6308,-4.6308,-4.6308,-5.1183,-5.2299,-5.3222,-5.328,-5.3683,-5.376,-5.3009,-5.2222,-5.1567,-5.1199,-5.0906,-5.0741,-5.0741,-4.9722,-4.8826,-4.8349,-4.7873,-4.7226,-4.6367,-4.6308,-4.6308,-4.6308,-4.6308,-4.6308,-4.6308,-4.6308,-4.6308,-4.6308,-4.5898,-4.5703,-4.5703,-4.5293,-4.5312,-4.5703,-4.5703,-4.5937,-4.6308,-4.6308,-4.6308,-4.6308,-4.6308,-4.6308,-4.6308,-4.6308,-4.6308,-4.6308,-4.6308,-4.6308,-4.6308,-4.6308,-4.6308,-4.6308,-4.6308,-4.6308,-4.6308,-4.6308,-4.6308,-4.6308,-4.6308,-4.6308,-4.6308,-4.6308,-4.6308,-4.6308,-4.6308,-4.6308,-4.6308,-4.6308,-4.6308,-4.6308,-4.6308,-4.6308,-4.6308,-4.6308,-4.6245,-4.6222,-4.6288,-4.625,-4.623,-4.6289,-4.6308,-4.6308,-4.6308,-4.5879,-4.5781,-4.6269,-4.5859,0.0,-4.6269,-4.6308,-4.6308,-4.6308,-4.6308,-4.6308,-4.6308,-4.6308,-4.6308,-4.6308,-4.6308,-4.6308,-4.6308,-4.6308,-4.6308,-4.6308,-4.6308,-4.6308,-4.6308,-4.6308,-4.6308,-4.6308,-4.6308,-4.6308,-4.6308,-4.6308,-4.6308,-4.6308,-5.1587,-5.2414,-5.3049,-5.3163,-5.3201,-5.3009,-5.2412,-5.1702,-5.1163,-5.1073,-5.0648,-5.0281,-5.0033,-4.8672,-4.7734,-4.7617,-4.748,-4.709,-4.6348,-4.6308,-4.6308,-4.6308,-4.6308,-4.6308,-4.6308,-4.6308,-4.6308,-4.6308,-4.543,-4.5,-4.498,-4.4101,-4.4082,-4.4805,-4.4805,-4.5293,-4.6094,-4.6094,-4.6172,-4.6308,-4.6308,-4.6308,-4.6308,-4.6308,-4.6308,-4.6308,-4.6308,-4.6308,-4.6308,-4.6308,-4.6308,-4.6308,-4.6308,-4.6308,-4.6308,-4.6308,-4.6308,-4.6308,-4.6308,-4.6308,-4.6308,-4.6308,-4.6308,-4.6308,-4.6308,-4.6308,-4.6308,-4.6308,-4.6308,-4.6308,-4.6308,-4.6308,-4.6308,-4.6308,-4.6201,-4.6151,-4.6253,0.0,-4.613,-4.6269,-4.6269,-4.6289,-4.6308,-4.6308,-4.6308,-4.6308,-4.6308,-4.6308,-4.6308,-4.6308,-4.6308,-4.6308,-4.6308,-4.6308,-4.6308,-4.6308,-4.6308,-4.6308,-4.6308,-4.6308,-4.6308,-4.6308,-4.6308,-4.6308,-4.6308,-4.6308,-4.6308,-4.6308,-4.6308,-4.6308,-4.6308,-4.6308,-4.6308,-4.6308,-4.6308,-4.6308,-5.0856,-5.1548,-5.2145,-5.2279,-5.2299,-5.2336,-5.2447,-5.1759,-5.0999,-5.0425,-5.0861,-5.0666,-4.9257,-4.8864,-4.8398,-4.7656,-4.6933,-4.6445,-4.6308,-4.6308,-4.6308,-4.6308,-4.6308,-4.6308,-4.6308,-4.6308,-4.6308,-4.6308,-4.543,-4.5,-4.498,-4.4101,-4.3769,-4.3906,-4.3906,-4.4394,-4.5195,-4.5195,-4.5625,-4.6308,-4.6308,-4.6308,-4.6308,-4.6308,-4.6308,-4.6308,-4.6308,-4.6308,-4.6308,-4.6308,-4.6308,-4.6308,-4.6308,-4.6308,-4.6308,-4.6308,-4.6308,-4.6308,-4.6308,-4.6308,-4.6308,-4.6308,-4.6308,-4.6308,-4.6308,-4.6308,-4.6308,-4.6308,-4.6308,-4.6308,-4.6308,-4.6308,-4.6308,-4.6308,-4.6275,-4.6241,-4.6148,0.0,-4.6103,-4.6132,-4.6133,-4.6172,-4.6289,-4.6308,-4.6308,-4.6308,-4.6308,-4.6308,-4.6308,-4.6308,-4.6308,-4.6308,-4.6308,-4.6308,-4.6308,-4.6308,-4.6308,-4.6308,-4.6308,-4.6308,-4.6308,-4.6308,-4.6308,-4.6308,-4.6308,-4.6308,-4.6308,-4.6308,-4.6308,-4.6308,-4.6308,-4.6308,-4.6308,-4.6308,-4.6308,-4.6308,-5.126,-5.1702,-5.2049,-5.2182,-5.2258,-5.2221,-5.1947,-5.156,-5.1193,-5.0897,-5.0371,-4.9941,-4.9629,-4.834,-4.7539,-4.7598,-4.6797,-4.6308,-4.6308,-4.6308,-4.6308,-4.6308,-4.6308,-4.6308,-4.6308,-4.6308,-4.6308,-4.6308,-4.4961,-4.4297,-4.4277,-4.2969,-4.2832,-4.3672,-4.3203,-4.373,-4.5,-4.5,-4.5234,-4.5644,-4.6113,-4.6308,-4.6308,-4.6308,-4.6308,-4.6308,-4.6308,-4.6308,-4.6308,-4.6308,-4.6308,-4.6308,-4.6308,-4.6308,-4.6308,-4.6308,-4.6308,-4.6308,-4.6308,-4.6308,-4.6308,-4.6308,-4.6308,-4.6308,-4.6308,-4.6308,-4.6308,-4.6308,-4.6308,-4.6308,-4.6308,-4.6308,-4.6308,-4.6308,-4.6243,-4.6206,-4.6208,-4.6151,-4.6099,-4.6095,-4.616,-4.6191,-4.6191,-4.6269,-4.6308,-4.6308,-4.6308,-4.6308,-4.6308,-4.6308,-4.6308,-4.6308,-4.6308,-4.6308,-4.6308,-4.6308,-4.6543,-4.6992,-4.6523,-4.6543,-4.6973,-4.6504,-4.6308,-4.6308,-4.6308,-4.6308,-4.6308,-4.6308,-4.6308,-4.6308,-4.6308,-4.6308,-4.6308,-4.6308,-4.6308,-4.6308,-5.151,-5.1741,-5.1857,-5.2009,-5.2127,-5.2012,-5.1474,-5.123,-5.1055,-5.0859,-4.9707,-4.9004,-4.9258,-4.7676,-4.6797,-4.7266,-4.6699,-4.6308,-4.6308,-4.6308,-4.6308,-4.6308,-4.6308,-4.6308,-4.6308,-4.6308,-4.6191,-4.5996,-4.4453,-4.3594,-4.3379,-4.1894,-4.1894,-4.3086,-4.2422,-4.2969,-4.4394,-4.4394,-4.4629,-4.5058,-4.5723,-4.6113,-4.6308,-4.6308,-4.6308,-4.6308,-4.6308,-4.6308,-4.6308,-4.6308,-4.6308,-4.6308,-4.6308,-4.6308,-4.6308,-4.6308,-4.6308,-4.6308,-4.6308,-4.6308,-4.6308,-4.6308,-4.6308,-4.6308,-4.6308,-4.6308,-4.6308,-4.6308,-4.6308,-4.6308,-4.6308,-4.6308,-4.6308,-4.6308,0.0,-4.6168,-4.6236,-4.6162,-4.609,-4.6102,-4.6183,-4.6228,-4.6152,-4.623,-4.6308,-4.6308,-4.6308,-4.6308,-4.6308,-4.6308,-4.6308,-4.6308,-4.6308,-4.6308,-4.6308,-4.6308,-4.6641,-4.7285,-4.6621,-4.6758,-4.7578,-4.6699,-4.6406,-4.6582,-4.6387,-4.6308,-4.6308,-4.6308,-4.6308,-4.6308,-4.6308,-4.6308,-4.6308,-4.6308,-4.6308,-4.6308,-5.0779,-5.0894,-5.1024,-5.1163,-5.125,-5.1324,-5.1398,-5.0762,-5.0,-4.9199,-4.8984,-4.8301,-4.6758,-4.7148,-4.7207,-4.6465,-4.6348,-4.6308,-4.6308,-4.6308,-4.6308,-4.6308,-4.6308,-4.6308,-4.6308,-4.6308,-4.5898,-4.5098,-4.416,-4.3281,-4.248,-4.1601,-4.1269,-4.1387,-4.1328,-4.1777,-4.2598,-4.2598,-4.3516,-4.5019,-4.5078,-4.5586,-4.6308,-4.6308,-4.6308,-4.6308,-4.6308,-4.6308,-4.6308,-4.6308,-4.6308,-4.6308,-4.6308,-4.6308,-4.6308,-4.6308,-4.6308,-4.6308,-4.6308,-4.6308,-4.6308,-4.6308,-4.6308,-4.6308,-4.6308,-4.6308,-4.6308,-4.6308,-4.6308,-4.6308,-4.6308,-4.6308,-4.6308,-4.6308,0.0,0.0,-4.6132,-4.6114,-4.6096,-4.6111,-4.6114,-4.6162,-4.6267,-4.6289,-4.6308,-4.6308,-4.6308,-4.6308,-4.6308,-4.6308,-4.6308,-4.6308,-4.6308,-4.6308,-4.6308,-4.6308,-4.6328,-4.6406,-4.6328,-4.6758,-4.7578,-4.6699,-4.6738,-4.7461,-4.6641,-4.6308,-4.6308,-4.6308,-4.6308,-4.6308,-4.6308,-4.6308,-4.6308,-4.6308,-4.6308,-4.6308,-4.9298,-5.0183,-5.0913,-5.0491,-5.0506,-5.077,-5.1327,-5.0254,-4.9473,-4.9687,-4.8769,-4.7832,-4.7187,-4.6914,-4.666,-4.6328,-4.6308,-4.6308,-4.6308,-4.6308,-4.6308,-4.6308,-4.6308,-4.6308,-4.6308,-4.5762,-4.5332,-4.5,-4.3594,-4.2715,-4.2383,-4.1582,-4.1465,-4.1914,-4.1426,-4.1641,-4.2402,-4.2402,-4.3086,-4.4238,-4.4785,-4.5527,-4.6308,-4.6308,-4.6308,-4.6308,-4.6308,-4.6308,-4.6308,-4.6308,-4.6308,-4.6308,-4.6308,-4.6308,-4.6308,-4.6308,-4.6308,-4.6308,-4.6308,-4.6308,-4.6308,-4.6308,-4.6308,-4.6308,-4.6308,-4.6308,-4.6308,-4.6308,-4.6308,-4.6308,-4.6308,-4.6308,-4.6308,-4.6308,0.0,-4.6289,-4.623,-4.6229,-4.6195,-4.6105,-4.617,-4.6212,-4.6171,-4.6249,-4.6523,-4.707,-4.7109,-4.7344,-4.7871,-4.791,-4.7422,-4.6328,-4.6816,-4.6855,-4.6308,-4.6308,-4.6562,-4.7109,-4.6562,-4.6758,-4.7578,-4.6699,-4.6484,-4.6777,-4.6445,-4.6308,-4.6308,-4.6308,-4.6308,-4.6308,-4.6308,-4.6308,-4.6308,-4.6308,-4.6641,-4.7031,-4.8759,-4.9791,-5.0634,-5.0394,-5.0488,-5.0762,-5.1328,-4.998,-4.9101,-4.9707,-4.8262,-4.7187,-4.7187,-4.666,-4.6308,-4.6308,-4.6308,-4.6308,-4.6308,-4.6308,-4.6308,-4.6308,-4.6308,-4.6308,-4.6308,-4.5449,-4.4863,-4.459,-4.3125,-4.2266,-4.2012,-4.1465,-4.1484,-4.1992,-4.1445,-4.1504,-4.2012,-4.2012,-4.2676,-4.375,-4.4355,-4.5273,-4.6308,-4.6308,-4.6308,-4.6308,-4.6308,-4.6308,-4.6308,-4.6308,-4.6308,-4.6308,-4.6308,-4.6308,-4.6308,-4.6308,-4.6308,-4.6308,-4.6308,-4.6308,-4.6308,-4.6308,-4.6308,-4.6308,-4.6308,-4.6308,-4.6308,-4.6308,-4.6308,-4.6308,-4.6308,-4.6308,-4.6308,-4.6308,-4.6308,-4.6308,-4.6308,-4.6543,-4.6562,-4.6211,-4.6484,-4.6677,-4.6577,-4.665,-4.707,-4.7949,-4.7754,-4.7851,-4.8457,-4.8496,-4.7949,-4.6758,-4.7285,-4.7187,-4.6308,-4.6308,-4.6601,-4.7187,-4.6582,-4.6758,-4.7578,-4.6699,-4.6445,-4.6699,-4.6426,-4.6308,-4.6308,-4.6308,-4.6308,-4.6308,-4.6308,-4.6308,-4.6308,-4.6308,-4.6855,-4.746,-4.9375,-4.9702,-5.0103,-5.1027,-5.1295,-5.1387,-5.1387,-4.9961,-4.8887,-4.8887,-4.7383,-4.6308,-4.6308,-4.6308,-4.6308,-4.6308,-4.6308,-4.6308,-4.6308,-4.6308,-4.6308,-4.6308,-4.6308,-4.6308,-4.6308,-4.5449,-4.457,-4.3691,-4.2812,-4.1973,-4.1191,-4.1191,-4.1191,-4.1191,-4.1191,-4.1191,-4.1191,-4.1211,-4.2168,-4.3691,-4.3711,-4.4746,-4.6308,-4.6308,-4.6308,-4.6308,-4.6308,-4.6308,-4.6308,-4.6308,-4.6308,-4.6308,-4.6308,-4.6308,-4.6308,-4.6308,-4.6308,-4.6308,-4.6308,-4.6308,-4.6308,-4.6308,-4.6308,-4.6308,-4.6308,-4.6308,-4.6308,-4.6308,-4.6308,-4.6308,-4.6308,-4.6308,-4.6308,-4.6308,-4.6308,-4.6308,-4.6308,-4.7031,-4.7266,-4.6406,-4.7051,-4.7598,-4.7598,-4.7598,-4.7949,-4.8828,-4.8105,-4.7617,-4.7617,-4.7617,-4.7617,-4.7598,-4.7598,-4.7187,-4.6308,-4.6308,-4.6308,-4.6308,-4.6308,-4.6758,-4.7558,-4.6699,-4.6777,-4.7539,-4.668,-4.6308,-4.6308,-4.6308,-4.6308,-4.6308,-4.6308,-4.6308,-4.6308,-4.6308,-4.6855,-4.7454,-4.7834,-4.8922,-4.975,-4.9607,-5.0122,-5.0351,-4.9746,-4.8691,-4.7988,-4.7988,-4.6992,-4.6308,-4.6308,-4.6308,-4.6308,-4.6308,-4.6308,-4.6308,-4.6308,-4.6308,-4.6308,-4.6308,-4.6308,-4.6308,-4.6308,-4.4844,-4.3965,-4.3691,-4.2266,-4.1445,-4.1191,-4.1191,-4.1191,-4.1191,-4.1191,-4.1191,-4.123,-4.1797,-4.2676,-4.375,-4.4375,-4.5293,-4.6308,-4.6308,-4.6308,-4.6308,-4.6308,-4.6308,-4.6308,-4.6308,-4.6308,-4.6308,-4.6308,-4.6308,-4.6308,-4.6308,-4.6308,-4.6308,-4.6308,-4.6308,-4.6308,-4.6308,-4.6308,-4.6308,-4.6308,-4.6308,-4.6308,-4.6308,-4.6308,-4.6308,-4.6308,-4.6308,-4.6308,-4.6308,-4.6308,-4.6308,-4.6308,-4.6523,-4.6582,-4.6328,-4.6523,-4.6699,-4.6699,-4.6699,-4.7305,-4.8789,-4.9746,-4.9719,-4.8448,-4.896,-4.8399,-4.6476,-4.7008,-4.6911,-4.6027,-4.7413,-4.7519,-4.6308,-4.6914,-4.7031,-4.668,-4.6426,-4.6445,-4.668,-4.6406,-4.6308,-4.6308,-4.6308,-4.6308,-4.6287,-4.6201,-4.6169,-4.6154,-4.6057,-4.6957,-4.8008,-4.7101,-4.8087,-4.8866,-4.8882,-4.9336,-4.9512,-4.8984,-4.8164,-4.7598,-4.7598,-4.6836,-4.6308,-4.6308,-4.6308,-4.6308,-4.6308,-4.6308,-4.6308,-4.6308,-4.6308,-4.6308,-4.6308,-4.6308,-4.6308,-4.6308,-4.459,-4.3691,-4.3691,-4.2012,-4.1191,-4.1191,-4.1191,-4.1191,-4.1191,-4.1191,-4.1191,-4.123,-4.1719,-4.2617,-4.375,-4.4277,-4.5215,-4.6308,-4.6308,-4.6308,-4.6308,-4.6308,-4.6308,-4.6308,-4.6308,-4.6308,-4.6308,-4.6308,-4.6308,-4.6308,-4.6308,-4.6308,-4.6308,-4.6308,-4.6308,-4.6308,-4.6308,-4.6308,-4.6308,-4.6308,-4.6308,-4.6308,-4.6308,-4.6308,-4.6308,-4.6308,-4.6308,-4.6284,-4.6222,-4.6267,-4.6268,-4.617,-4.6474,-4.6621,-4.6269,-4.6475,-4.6674,-4.6736,-4.6684,-4.7084,-4.8158,-4.9485,-4.9614,-4.8172,-4.8623,-4.8121,-4.648,-4.6938,-4.6945,-4.6416,-4.8301,-4.823,-4.623,-4.6705,-4.6708,-4.6308,-4.625,-4.6217,-4.6222,-4.6222,-4.6201,-4.6144,-4.6144,-4.6144,-4.6132,-4.6042,-4.602,-4.6003,-4.5938,-4.701,-4.8257,-4.7017,-4.7309,-4.7694,-4.8623,-4.8848,-4.8848,-4.8691,-4.8066,-4.7578,-4.748,-4.6797,-4.6308,-4.6308,-4.6308,-4.6308,-4.6308,-4.6308,-4.6308,-4.6308,-4.6308,-4.6308,-4.6308,-4.6308,-4.6308,-4.6308,-4.459,-4.3652,-4.3574,-4.1973,-4.1191,-4.1191,-4.1191,-4.1191,-4.1191,-4.1191,-4.1191,-4.1211,-4.1367,-4.2305,-4.3711,-4.3867,-4.4883,-4.6308,-4.6308,-4.6308,-4.6308,-4.6308,-4.6308,-4.6308,-4.6308,-4.6308,-4.6308,-4.6308,-4.6308,-4.6308,-4.6308,-4.6308,-4.6308,-4.6308,-4.6308,-4.6308,-4.6308,-4.6308,-4.6308,-4.6308,-4.6308,-4.6308,-4.6285,-4.6288,-4.6308,-4.6289,-4.6289,-4.6261,-4.6148,-4.6205,-4.6202,-4.5957,-4.6704,-4.6977,-4.6173,-4.6663,-4.7132,-4.7248,-4.7223,-4.7203,-4.7203,-4.801,-4.8127,-4.7242,-4.727,-4.7216,-4.7062,-4.7139,-4.7162,-4.7165,-4.874,-4.8458,-4.6301,-4.6268,-4.63,-4.6381,-4.6247,-4.6151,-4.6095,-4.6082,-4.6018,-4.591,-4.591,-4.591,-4.591,-4.5891,-4.5899,-4.5892,-4.5873,-4.6969,-4.824,-4.7031,-4.7303,-4.7486,-4.7823,-4.8457,-4.8437,-4.707,-4.7285,-4.7344,-4.668,-4.6426,-4.6308,-4.6308,-4.6308,-4.6308,-4.6308,-4.6308,-4.6308,-4.6308,-4.6308,-4.6308,-4.6308,-4.6308,-4.6308,-4.6308,-4.459,-4.3379,-4.2676,-4.1699,-4.1191,-4.1191,-4.1191,-4.1191,-4.1191,-4.1191,-4.1191,-4.1289,-4.2598,-4.3379,-4.3828,-4.5195,-4.5957,-4.6308,-4.6308,-4.6308,-4.6308,-4.6308,-4.6308,-4.6308,-4.6308,-4.6308,-4.6308,-4.6308,-4.6308,-4.6308,-4.6308,-4.6308,-4.6308,-4.6308,-4.6308,-4.6308,-4.6308,-4.6308,-4.6308,-4.6308,-4.6308,-4.6273,-4.6174,-4.6235,-4.6269,-4.6152,-4.623,-4.6287,-4.6264,-4.6192,-4.6109,-4.6059,-4.6152,-4.6169,-4.5969,-4.6083,-4.6189,-4.6213,-4.6822,-4.7194,-4.7194,-4.8002,-4.8114,-4.7175,-4.7713,-4.7411,-4.5988,-4.6623,-4.6971,-4.6972,-4.7336,-4.7673,-4.7981,-4.8638,-4.8269,-4.6997,-4.6969,-4.6586,-4.5936,-4.5943,-4.5924,-4.5889,-4.5889,-4.5889,-4.5889,-4.5831,-4.5822,-4.5815,-4.5699,-4.674,-4.8336,-4.6474,-4.6735,-4.6897,-4.697,-4.7363,-4.7344,-4.6445,-4.6699,-4.6816,-4.6367,-4.6308,-4.6308,-4.6308,-4.6308,-4.6308,-4.6308,-4.6308,-4.6308,-4.6308,-4.6308,-4.6308,-4.6308,-4.6308,-4.6113,-4.5683,-4.4375,-4.3476,-4.3027,-4.1797,-4.1191,-4.1191,-4.1191,-4.1191,-4.1191,-4.1191,-4.1406,-4.1836,-4.2715,-4.3555,-4.4394,-4.5312,-4.5937,-4.6308,-4.6308,-4.6308,-4.6308,-4.6308,-4.6308,-4.6308,-4.6308,-4.6308,-4.6308,-4.6308,-4.6308,-4.6308,-4.6308,-4.6308,-4.6308,-4.6308,-4.6308,-4.6308,-4.6308,-4.6308,-4.6308,-4.6308,-4.6245,-4.6173,-4.6108,-4.6106,-4.6084,-4.6026,-4.6054,-4.6094,-4.6068,-4.6022,-4.596,-4.5868,-4.5853,-4.5853,-4.5853,-4.5795,-4.5935,-4.6352,-4.6411,-4.6775,-4.7584,-4.7699,-4.768,-4.7566,-4.797,-4.7777,-4.6817,-4.724,-4.7682,-4.8086,-4.8086,-4.8586,-4.9567,-4.9173,-4.8361,-4.72,-4.756,-4.7256,-4.6416,-4.642,-4.6394,-4.6336,-4.593,-4.5757,-4.5757,-4.5719,-4.5699,-4.5757,-4.6086,-4.7028,-4.8355,-4.5891,-4.6117,-4.6308,-4.6308,-4.6308,-4.6308,-4.6308,-4.6308,-4.6308,-4.6308,-4.6308,-4.6308,-4.6308,-4.6308,-4.6308,-4.6308,-4.6308,-4.6308,-4.6308,-4.6308,-4.6308,-4.6308,-4.6308,-4.5957,-4.5234,-4.4375,-4.3789,-4.3476,-4.1953,-4.1191,-4.1191,-4.1191,-4.1191,-4.1191,-4.1191,-4.1641,-4.2402,-4.2558,-4.3535,-4.5019,-4.5156,-4.5664,-4.6308,-4.6308,-4.6308,-4.6308,-4.6308,-4.6308,-4.6308,-4.6308,-4.6308,-4.6308,-4.6308,-4.6308,-4.6308,-4.6308,-4.6308,-4.6308,-4.6308,-4.6308,-4.6308,-4.6308,-4.6308,-4.6308,-4.6308,-4.6201,-4.6128,-4.608,-4.6007,-4.5931,-4.5886,-4.589,-4.5871,-4.5828,-4.5841,-4.5832,-4.5673,-4.5719,-4.5776,-4.5776,-4.568,-4.5932,-4.6817,-4.6105,-4.624,-4.7778,-4.7278,-4.7124,-4.7644,-4.8086,-4.8202,-4.7894,-4.8163,-4.8663,-4.9394,-4.9394,-4.9837,-5.0664,-4.9221,-4.8183,-4.7587,-4.8047,-4.7797,-4.6971,-4.6836,-4.674,-4.6624,-4.5893,-4.5586,-4.5586,-4.5586,-4.5682,-4.5932,-4.6971,-4.7759,-4.8548,-4.5891,-4.6117,-4.6308,-4.6308,-4.6308,-4.6308,-4.6308,-4.6308,-4.6308,-4.6308,-4.6308,-4.6308,-4.6308,-4.6308,-4.6308,-4.6308,-4.6308,-4.6308,-4.6308,-4.6308,-4.6308,-4.6308,-4.6308,-4.623,-4.6133,-4.5273,-4.4082,-4.2578,-4.1641,-4.1191,-4.1191,-4.1191,-4.1191,-4.1191,-4.1191,-4.1641,-4.2441,-4.3203,-4.4101,-4.5078,-4.582,-4.6191,-4.6308,-4.6308,-4.6308,-4.6308,-4.6308,-4.6308,-4.6308,-4.6308,-4.6308,-4.6308,-4.6308,-4.6308,-4.6308,-4.6308,-4.6308,-4.6308,-4.6308,-4.6308,-4.6308,-4.6308,-4.6308,-4.6308,-4.6308,-4.6285,-4.6206,-4.5963,-4.6007,-4.6025,-4.5844,-4.5861,-4.5902,-4.5873,-4.5847,-4.5806,-4.5776,-4.5699,-4.5624,-4.5624,-4.5605,-4.5932,-4.6817,-4.6105,-4.6009,-4.699,-4.6971,-4.6624,-4.597,-4.8029,-4.8567,-4.7105,-4.8471,-4.9279,-4.9394,-4.9394,-4.9837,-5.0702,-5.0452,-4.9913,-4.9086,-4.8432,-4.7682,-4.6874,-4.6124,-4.5778,-4.5759,-4.5643,-4.5586,-4.5586,-4.5586,-4.6067,-4.6913,-4.8471,-4.9125,-4.9375,-4.5891,-4.6117,-4.6308,-4.6308,-4.6308,-4.6308,-4.6308,-4.6308,-4.6308,-4.6308,-4.6308,-4.6308,-4.6308,-4.6308,-4.6308,-4.6308,-4.6308,-4.6308,-4.6308,-4.6308,-4.6308,-4.6308,-4.6308,-4.6074,-4.5586,-4.4726,-4.3652,-4.2402,-4.2031,-4.1641,-4.1191,-4.1191,-4.1191,-4.1191,-4.1191,-4.1641,-4.2461,-4.332,-4.4199,-4.5078,-4.5957,-4.6308,-4.6308,-4.6308,-4.6308,-4.6308,-4.6308,-4.6308,-4.6308,-4.6308,-4.6308,-4.6308,-4.6308,-4.6308,-4.6308,-4.6308,-4.6308,-4.6308,-4.6308,-4.6308,-4.6308,-4.6308,-4.6308,-4.6282,-4.6216,-4.6192,-4.6124,-4.5937,-4.5862,-4.5796,-4.5699,-4.5719,-4.5738,-4.5738,-4.5719,-4.5699,-4.5699,-4.5624,-4.5586,-4.5586,-4.6028,-4.6644,-4.749,-4.7221,-4.7355,-4.824,-4.8298,-4.7913,-4.7048,-4.899,-4.9548,-4.8336,-4.949,-5.0125,-5.0125,-5.0125,-5.0317,-5.0702,-5.0702,-5.024,-4.9394,-4.899,-4.8375,-4.7528,-4.6682,-4.6336,-4.6297,-4.5797,-4.5586,-4.5586,-4.5586,-4.6413,-4.7663,-4.8394,-4.9298,-5.0183]}]]